[[{"header":{"parameterUnit":"m.s-1","parameterCategory":1,"la1":31.0,"la2":29.5877,"lo1":-88.7671,"lo2":-86.6584,"dx":0.0162,"dy":0.0185,"nx":115,"ny":88,"refTime":"2022-12-31T06:00:00:Z","depth":0,"parameterNumber":2,"parameterNumberName":"U-component_of_WINDS"},"data":[0.0,0.0,0.0,0.0,0.0,0.0,0.0,0.0,0.0,0.0,0.0,0.0,0.0,0.0,0.0,0.0,0.0,0.0,0.0,0.0,0.0,0.0,0.0,0.0,0.0,0.0,0.0,0.0,0.0,0.0,0.0,0.0,0.0,0.0,0.0,0.0,0.0,0.0,0.0,0.0,0.0,0.0,0.0,0.0,0.0,0.0,0.0,0.0,0.0,0.0,0.0,0.0,0.0,0.0,0.0,0.0,0.0,0.0,0.0,0.0,0.0,0.0,0.0,0.0,0.0,0.0,0.0,0.0,0.0,0.0,0.0,0.0,0.0,0.0,0.0,0.0,0.0,0.0,0.0,0.0,0.0,0.0,0.0,0.0,0.0,0.0,0.0,0.0,0.0,0.0,0.0,0.0,0.0,0.0,0.0,0.0,0.0,0.0,0.0,0.0,0.0,0.0,0.0,0.0,0.0,0.0,0.0,0.0,0.0,0.0,0.0,0.0,0.0,0.0,0.0,0.0,0.0,0.0,0.0,0.0,0.0,0.0,0.0,0.0,0.0,0.0,0.0,0.0,0.0,0.0,0.0,0.0,0.0,0.0,0.0,0.0,0.0,0.0,0.0,0.0,0.0,0.0,0.0,0.0,0.0,0.0,0.0,0.0,0.0,0.0,0.0,0.0,0.0,0.0,0.0,0.0,0.0,0.0,0.0,0.0,0.0,0.0,0.0,0.0,0.0,0.0,0.0,0.0,0.0,0.0,0.0,0.0,0.0,0.0,0.0,0.0,0.0,0.0,0.0,0.0,0.0,0.0,0.0,0.0,0.0,0.0,0.0,0.0,0.0,0.0,0.0,0.0,0.0,0.0,0.0,0.0,0.0,0.0,0.0,0.0,0.0,0.0,0.0,0.0,0.0,0.0,0.0,0.0,0.0,0.0,0.0,0.0,0.0,0.0,0.0,0.0,0.0,0.0,0.0,0.0,0.0,0.0,0.0,0.0,0.0,0.0,0.0,0.0,0.0,0.0,0.0,0.0,0.0,0.0,0.0,0.0,0.0,0.0,0.0,0.0,0.0,0.0,0.0,0.0,0.0,0.0,0.0,0.0,0.0,0.0,0.0,0.0,0.0,0.0,0.0,0.0,0.0,0.0,0.0,0.0,0.0,0.0,0.0,0.0,0.0,0.0,0.0,0.0,0.0,0.0,0.0,0.0,0.0,0.0,0.0,0.0,0.0,0.0,0.0,0.0,0.0,0.0,0.0,0.0,0.0,0.0,0.0,0.0,0.0,0.0,0.0,0.0,0.0,0.0,0.0,0.0,0.0,0.0,0.0,0.0,0.0,0.0,0.0,0.0,0.0,0.0,0.0,0.0,0.0,0.0,0.0,0.0,0.0,0.0,0.0,0.0,0.0,0.0,0.0,0.0,0.0,0.0,0.0,0.0,0.0,0.0,0.0,0.0,0.0,0.0,0.0,0.0,0.0,0.0,0.0,0.0,0.0,0.0,0.0,0.0,0.0,0.0,0.0,0.0,0.0,0.0,0.0,0.0,0.0,0.0,0.0,0.0,0.0,0.0,0.0,0.0,0.0,0.0,0.0,0.0,0.0,0.0,0.0,0.0,0.0,0.0,0.0,0.0,0.0,0.0,0.0,0.0,0.0,0.0,0.0,0.0,0.0,0.0,0.0,0.0,0.0,0.0,0.0,0.0,0.0,0.0,0.0,0.0,0.0,0.0,0.0,0.0,0.0,0.0,0.0,0.0,0.0,0.0,0.0,0.0,0.0,0.0,0.0,0.0,0.0,0.0,0.0,0.0,0.0,0.0,0.0,0.0,0.0,0.0,0.0,0.0,0.0,0.0,0.0,0.0,0.0,0.0,0.0,0.0,0.0,0.0,0.0,0.0,0.0,0.0,0.0,0.0,0.0,0.0,0.0,0.0,0.0,0.0,0.0,0.0,0.0,0.0,0.0,0.0,0.0,0.0,0.0,0.0,0.0,0.0,0.0,0.0,0.0,0.0,0.0,0.0,0.0,0.0,0.0,0.0,0.0,0.0,0.0,0.0,0.0,0.0,0.0,0.0,0.0,0.0,0.0,0.0,0.0,0.0,0.0,0.0,0.0,0.0,0.0,0.0,0.0,0.0,0.0,0.0,0.0,0.0,0.0,0.0,0.0,0.0,0.0,0.0,0.0,0.0,0.0,0.0,0.0,0.0,0.0,0.0,0.0,0.0,0.0,0.0,0.0,0.0,0.0,0.0,0.0,0.0,0.0,0.0,0.0,0.0,0.0,0.0,0.0,0.0,0.0,0.0,0.0,0.0,0.0,0.0,0.0,0.0,0.0,0.0,0.0,0.0,0.0,0.0,0.0,0.0,0.0,0.0,0.0,0.0,0.0,0.0,0.0,0.0,0.0,0.0,0.0,0.0,0.0,0.0,0.0,0.0,0.0,0.0,0.0,0.0,0.0,0.0,0.0,0.0,0.0,0.0,0.0,0.0,0.0,0.0,0.0,0.0,0.0,0.0,0.0,0.0,0.0,0.0,0.0,0.0,0.0,0.0,0.0,0.0,0.0,0.0,0.0,0.0,0.0,0.0,0.0,0.0,0.0,0.0,0.0,0.0,0.0,0.0,0.0,0.0,0.0,0.0,0.0,0.0,0.0,0.0,0.0,0.0,0.0,0.0,0.0,0.0,0.0,0.0,0.0,0.0,0.0,0.0,0.0,0.0,0.0,0.0,0.0,0.0,0.0,0.0,0.0,0.0,0.0,0.0,0.0,0.0,0.0,0.0,0.0,0.0,0.0,0.0,0.0,0.0,0.0,0.0,0.0,0.0,0.0,0.0,0.0,0.0,0.0,0.0,0.0,0.0,0.0,0.0,0.0,0.0,0.0,0.0,0.0,0.0,0.0,0.0,0.0,0.0,0.0,0.0,0.0,0.0,0.0,0.0,0.0,0.0,0.0,0.0,0.0,0.0,0.0,0.0,0.0,0.0,0.0,0.0,0.0,0.0,0.0,0.0,0.0,0.0,0.0,0.0,0.0,0.0,0.0,0.0,0.0,0.0,0.0,0.0,0.0,0.0,0.0,0.0,0.0,0.0,0.0,0.0,0.0,0.0,0.0,0.0,0.0,0.0,0.0,0.0,0.0,0.0,0.0,0.0,0.0,0.0,0.0,0.0,0.0,0.0,0.0,0.0,0.0,0.0,0.0,0.0,0.0,0.0,0.0,0.0,0.0,0.0,0.0,0.0,0.0,0.0,0.0,0.0,0.0,0.0,0.0,0.0,0.0,0.0,0.0,0.0,0.0,0.0,0.0,0.0,0.0,0.0,0.0,0.0,0.0,0.0,0.0,0.0,0.0,0.0,0.0,0.0,0.0,0.0,0.0,0.0,0.0,0.0,0.0,0.0,0.0,0.0,0.0,0.0,0.0,0.0,0.0,0.0,0.0,0.0,0.0,0.0,0.0,0.0,0.0,0.0,0.0,0.0,0.0,0.0,0.0,0.0,0.0,0.0,0.0,0.0,0.0,0.0,0.0,0.0,0.0,0.0,0.0,0.0,0.0,0.0,0.0,0.0,0.0,0.0,0.0,0.0,0.0,0.0,0.0,0.0,0.0,0.0,0.0,0.0,0.0,0.0,0.0,0.0,0.0,0.0,0.0,0.0,0.0,0.0,0.0,0.0,0.0,0.0,0.0,0.0,0.0,0.0,0.0,0.0,0.0,0.0,0.0,0.0,0.0,0.0,0.0,0.0,0.0,0.0,0.0,0.0,0.0,0.0,0.0,0.0,0.0,0.0,0.0,0.0,0.0,0.0,0.0,0.0,0.0,0.0,0.0,0.0,0.0,0.0,0.0,0.0,0.0,0.0,0.0,0.0,0.0,0.0,0.0,0.0,0.0,0.0,0.0,0.0,0.0,0.0,0.0,0.0,0.0,0.0,0.0,0.0,0.0,0.0,0.0,0.0,0.0,0.0,0.0,0.0,0.0,0.0,0.0,0.0,0.0,0.0,0.0,0.0,0.0,0.0,0.0,0.0,0.0,0.0,0.0,0.0,0.0,0.0,0.0,0.0,0.0,0.0,0.0,0.0,0.0,0.0,0.0,0.0,0.0,0.0,0.0,0.0,0.0,0.0,0.0,0.0,0.0,0.0,0.0,0.0,0.0,0.0,0.0,0.0,0.0,0.0,0.0,0.0,0.0,0.0,0.0,0.0,0.0,0.0,0.0,0.0,0.0,0.0,0.0,0.0,0.0,0.0,0.0,0.0,-1.6203,0.0,0.0,0.0,-1.4252,0.0,0.0,0.0,0.0,0.0,0.0,0.0,0.0,0.0,0.0,0.0,0.0,0.0,0.0,0.0,0.0,0.0,0.0,0.0,0.0,0.0,0.0,0.0,0.0,0.0,0.0,0.0,0.0,0.0,0.0,0.0,0.0,0.0,0.0,0.0,0.0,0.0,0.0,0.0,0.0,0.0,0.0,0.0,0.0,0.0,0.0,0.0,0.0,0.0,0.0,0.0,0.0,0.0,0.0,0.0,0.0,0.0,0.0,0.0,0.0,0.0,0.0,0.0,0.0,0.0,0.0,0.0,0.0,0.0,0.0,0.0,0.0,0.0,0.0,0.0,0.0,0.0,0.0,0.0,0.0,0.0,0.0,0.0,0.0,0.0,0.0,0.0,0.0,0.0,0.0,0.0,0.0,0.0,0.0,0.0,0.0,0.0,0.0,0.0,0.0,0.0,0.0,0.0,0.0,0.0,0.0,0.0,0.0,0.0,0.0,-1.6098,-1.3809,-1.7099,-1.7297,-1.3812,0.0,0.0,0.0,0.0,0.0,0.0,0.0,0.0,0.0,0.0,0.0,0.0,0.0,0.0,0.0,0.0,0.0,0.0,0.0,0.0,0.0,0.0,0.0,0.0,0.0,0.0,0.0,0.0,0.0,0.0,0.0,0.0,0.0,0.0,0.0,0.0,0.0,0.0,0.0,0.0,0.0,0.0,0.0,0.0,0.0,0.0,0.0,0.0,0.0,0.0,0.0,0.0,0.0,0.0,0.0,0.0,0.0,0.0,0.0,0.0,0.0,0.0,0.0,0.0,0.0,0.0,0.0,0.0,0.0,0.0,0.0,0.0,0.0,0.0,0.0,0.0,0.0,0.0,0.0,0.0,0.0,0.0,0.0,0.0,0.0,0.0,0.0,0.0,0.0,0.0,0.0,0.0,0.0,0.0,0.0,0.0,0.0,0.0,0.0,0.0,0.0,0.0,0.0,0.0,0.0,0.0,0.0,0.0,0.0,0.0,0.0,0.0,-1.7787,-1.808,-1.4857,0.0,0.0,0.0,0.0,0.0,0.0,0.0,0.0,0.0,0.0,0.0,0.0,0.0,0.0,0.0,0.0,0.0,0.0,0.0,0.0,0.0,0.0,0.0,0.0,0.0,0.0,0.0,0.0,0.0,0.0,0.0,0.0,0.0,0.0,0.0,0.0,0.0,0.0,0.0,0.0,0.0,0.0,0.0,0.0,0.0,0.0,0.0,0.0,0.0,0.0,0.0,0.0,0.0,0.0,0.0,0.0,0.0,0.0,0.0,0.0,0.0,0.0,0.0,0.0,0.0,0.0,0.0,0.0,0.0,0.0,0.0,0.0,0.0,0.0,0.0,0.0,0.0,0.0,0.0,0.0,0.0,0.0,0.0,0.0,0.0,0.0,0.0,0.0,0.0,0.0,0.0,0.0,0.0,0.0,0.0,0.0,0.0,0.0,0.0,0.0,0.0,0.0,0.0,0.0,0.0,0.0,0.0,0.0,0.0,0.0,-1.4856,-1.6639,-1.7104,0.0,-1.77,0.0,0.0,0.0,0.0,0.0,0.0,0.0,0.0,0.0,0.0,0.0,0.0,0.0,0.0,0.0,0.0,0.0,0.0,0.0,0.0,0.0,0.0,0.0,0.0,0.0,0.0,0.0,0.0,0.0,0.0,0.0,0.0,0.0,0.0,0.0,0.0,0.0,0.0,0.0,0.0,0.0,0.0,0.0,0.0,0.0,0.0,0.0,0.0,0.0,0.0,0.0,0.0,0.0,0.0,0.0,0.0,0.0,0.0,0.0,0.0,0.0,0.0,0.0,0.0,0.0,0.0,0.0,0.0,0.0,0.0,0.0,0.0,0.0,0.0,0.0,0.0,0.0,0.0,0.0,0.0,0.0,0.0,0.0,0.0,0.0,0.0,0.0,0.0,0.0,0.0,0.0,0.0,0.0,0.0,0.0,0.0,0.0,0.0,0.0,0.0,0.0,0.0,0.0,0.0,0.0,0.0,0.0,0.0,0.0,0.0,-1.565,-1.6984,-1.7001,-1.6949,0.0,0.0,0.0,0.0,0.0,0.0,0.0,0.0,0.0,0.0,0.0,0.0,0.0,0.0,0.0,0.0,0.0,0.0,0.0,0.0,0.0,0.0,0.0,0.0,0.0,0.0,0.0,0.0,0.0,0.0,0.0,0.0,0.0,0.0,0.0,0.0,0.0,0.0,0.0,0.0,0.0,0.0,0.0,0.0,0.0,0.0,0.0,0.0,0.0,0.0,0.0,0.0,0.0,0.0,0.0,0.0,0.0,0.0,0.0,0.0,0.0,0.0,0.0,0.0,0.0,0.0,0.0,0.0,0.0,0.0,0.0,0.0,0.0,0.0,0.0,0.0,0.0,0.0,0.0,0.0,0.0,0.0,0.0,0.0,0.0,0.0,0.0,0.0,0.0,0.0,0.0,0.0,0.0,0.0,0.0,0.0,0.0,0.0,0.0,0.0,0.0,0.0,0.0,0.0,0.0,0.0,0.0,0.0,0.0,0.0,-1.5968,-1.676,-1.7845,-1.7552,-1.6974,-1.6216,0.0,0.0,0.0,0.0,0.0,0.0,0.0,0.0,0.0,0.0,0.0,0.0,0.0,0.0,0.0,0.0,0.0,0.0,0.0,0.0,0.0,0.0,0.0,0.0,0.0,0.0,0.0,0.0,0.0,0.0,0.0,0.0,0.0,0.0,0.0,0.0,0.0,0.0,0.0,0.0,0.0,0.0,0.0,0.0,0.0,0.0,0.0,0.0,0.0,0.0,0.0,0.0,0.0,0.0,0.0,0.0,0.0,0.0,0.0,0.0,0.0,0.0,0.0,0.0,0.0,0.0,0.0,0.0,0.0,0.0,0.0,0.0,0.0,0.0,0.0,0.0,0.0,0.0,0.0,0.0,0.0,0.0,0.0,0.0,0.0,0.0,0.0,0.0,0.0,0.0,0.0,0.0,0.0,0.0,0.0,0.0,0.0,0.0,0.0,0.0,0.0,0.0,0.0,0.0,0.0,0.0,0.0,0.0,-1.9705,-1.7983,-1.799,-2.0102,-1.8879,-1.7766,0.0,0.0,0.0,0.0,0.0,0.0,0.0,0.0,0.0,0.0,0.0,0.0,0.0,0.0,0.0,0.0,0.0,0.0,0.0,0.0,0.0,0.0,0.0,0.0,0.0,0.0,0.0,0.0,0.0,0.0,0.0,0.0,0.0,0.0,0.0,0.0,0.0,0.0,0.0,0.0,0.0,0.0,0.0,0.0,0.0,0.0,0.0,0.0,0.0,0.0,0.0,0.0,0.0,0.0,0.0,0.0,0.0,0.0,0.0,0.0,0.0,0.0,0.0,0.0,0.0,0.0,0.0,0.0,0.0,0.0,0.0,0.0,0.0,0.0,0.0,0.0,0.0,0.0,0.0,0.0,0.0,0.0,0.0,0.0,0.0,0.0,0.0,0.0,0.0,0.0,0.0,0.0,0.0,0.0,0.0,0.0,0.0,0.0,0.0,0.0,0.0,0.0,0.0,0.0,0.0,0.0,0.0,0.0,0.0,-1.5965,-1.6637,-1.8345,-2.0941,-1.8741,-1.7662,0.0,0.0,0.0,0.0,0.0,0.0,0.0,0.0,0.0,0.0,0.0,0.0,0.0,0.0,0.0,0.0,0.0,0.0,0.0,0.0,0.0,0.0,0.0,0.0,0.0,0.0,0.0,0.0,0.0,0.0,0.0,0.0,0.0,0.0,0.0,0.0,0.0,0.0,0.0,0.0,0.0,0.0,0.0,0.0,0.0,0.0,0.0,0.0,0.0,0.0,0.0,0.0,0.0,0.0,0.0,0.0,0.0,0.0,0.0,0.0,0.0,0.0,0.0,0.0,0.0,0.0,0.0,0.0,0.0,0.0,0.0,0.0,0.0,0.0,0.0,0.0,0.0,0.0,0.0,0.0,0.0,0.0,0.0,0.0,0.0,0.0,0.0,0.0,0.0,0.0,0.0,0.0,0.0,0.0,0.0,0.0,0.0,0.0,0.0,0.0,0.0,0.0,0.0,0.0,0.0,0.0,0.0,0.0,0.0,-1.5765,-1.801,-1.9826,-2.1019,-1.8925,-1.7528,0.0,0.0,0.0,0.0,0.0,0.0,0.0,0.0,0.0,0.0,0.0,0.0,0.0,0.0,0.0,0.0,0.0,0.0,0.0,0.0,0.0,0.0,0.0,0.0,0.0,0.0,0.0,0.0,0.0,0.0,0.0,0.0,0.0,0.0,0.0,0.0,0.0,0.0,0.0,0.0,0.0,0.0,0.0,0.0,0.0,0.0,0.0,0.0,0.0,0.0,0.0,0.0,0.0,0.0,0.0,0.0,0.0,0.0,0.0,0.0,0.0,0.0,0.0,0.0,0.0,0.0,0.0,0.0,0.0,0.0,0.0,0.0,0.0,0.0,0.0,0.0,0.0,0.0,0.0,0.0,0.0,0.0,0.0,0.0,0.0,0.0,0.0,0.0,0.0,0.0,0.0,0.0,0.0,0.0,0.0,0.0,0.0,0.0,0.0,0.0,0.0,0.0,0.0,0.0,0.0,0.0,0.0,0.0,-1.578,-1.9966,-2.2226,-2.2295,-2.0389,-1.9493,-1.7391,0.0,0.0,0.0,0.0,0.0,0.0,0.0,0.0,0.0,0.0,0.0,0.0,0.0,0.0,0.0,0.0,0.0,0.0,0.0,0.0,0.0,0.0,0.0,0.0,0.0,0.0,0.0,0.0,0.0,0.0,0.0,0.0,0.0,0.0,0.0,0.0,0.0,0.0,0.0,0.0,0.0,0.0,0.0,0.0,0.0,0.0,0.0,0.0,0.0,0.0,0.0,0.0,0.0,0.0,0.0,0.0,0.0,0.0,0.0,0.0,0.0,0.0,0.0,0.0,0.0,0.0,0.0,0.0,0.0,0.0,0.0,0.0,0.0,0.0,0.0,0.0,0.0,0.0,0.0,0.0,0.0,0.0,0.0,0.0,0.0,0.0,0.0,0.0,0.0,0.0,0.0,0.0,0.0,0.0,0.0,0.0,0.0,0.0,0.0,0.0,0.0,0.0,0.0,0.0,0.0,0.0,0.0,0.0,0.0,-1.611,-1.9051,-2.0705,-2.0658,-1.842,-1.7304,0.0,0.0,0.0,0.0,0.0,0.0,0.0,0.0,0.0,0.0,0.0,0.0,0.0,0.0,0.0,0.0,0.0,0.0,0.0,0.0,0.0,0.0,0.0,0.0,0.0,0.0,0.0,0.0,0.0,0.0,0.0,0.0,0.0,0.0,0.0,0.0,0.0,0.0,0.0,0.0,0.0,0.0,0.0,0.0,0.0,0.0,0.0,0.0,0.0,0.0,0.0,0.0,0.0,0.0,0.0,0.0,0.0,0.0,0.0,0.0,0.0,0.0,0.0,0.0,0.0,0.0,0.0,0.0,0.0,0.0,0.0,0.0,0.0,0.0,0.0,0.0,0.0,0.0,0.0,0.0,0.0,0.0,0.0,0.0,0.0,0.0,0.0,0.0,0.0,0.0,0.0,0.0,0.0,0.0,0.0,0.0,0.0,0.0,0.0,0.0,0.0,0.0,0.0,0.0,0.0,0.0,0.0,0.0,0.0,-1.7123,-2.0111,-2.1667,-2.1427,-1.889,-1.7675,-1.7955,0.0,0.0,0.0,0.0,0.0,0.0,0.0,0.0,0.0,0.0,0.0,0.0,0.0,0.0,0.0,0.0,0.0,0.0,0.0,0.0,0.0,0.0,0.0,0.0,0.0,0.0,0.0,0.0,0.0,0.0,0.0,0.0,0.0,0.0,0.0,0.0,0.0,0.0,0.0,0.0,0.0,0.0,0.0,0.0,0.0,0.0,0.0,0.0,0.0,0.0,0.0,0.0,0.0,0.0,0.0,0.0,0.0,0.0,0.0,0.0,0.0,0.0,0.0,0.0,0.0,0.0,0.0,0.0,0.0,0.0,0.0,0.0,0.0,0.0,0.0,0.0,0.0,0.0,0.0,0.0,0.0,0.0,0.0,0.0,0.0,0.0,0.0,0.0,0.0,0.0,0.0,0.0,0.0,0.0,0.0,0.0,0.0,0.0,0.0,0.0,0.0,0.0,0.0,0.0,0.0,0.0,0.0,0.0,-2.1686,-2.4547,-2.4827,-2.244,-2.0494,-1.8434,0.0,0.0,0.0,0.0,0.0,0.0,0.0,0.0,0.0,0.0,0.0,0.0,0.0,0.0,0.0,0.0,0.0,0.0,0.0,0.0,0.0,0.0,0.0,0.0,0.0,0.0,0.0,0.0,0.0,0.0,0.0,0.0,0.0,0.0,0.0,0.0,0.0,0.0,0.0,0.0,0.0,0.0,0.0,0.0,0.0,0.0,0.0,0.0,0.0,0.0,0.0,0.0,0.0,0.0,0.0,0.0,0.0,0.0,0.0,0.0,0.0,0.0,0.0,0.0,0.0,0.0,0.0,0.0,0.0,0.0,0.0,0.0,0.0,0.0,0.0,0.0,0.0,0.0,0.0,0.0,0.0,0.0,0.0,0.0,0.0,0.0,0.0,0.0,0.0,0.0,0.0,0.0,0.0,0.0,0.0,0.0,0.0,0.0,0.0,0.0,0.0,0.0,0.0,0.0,0.0,0.0,0.0,0.0,0.0,-2.3058,-2.5343,-2.5543,-2.3425,-2.0448,-1.857,0.0,0.0,0.0,0.0,0.0,0.0,0.0,0.0,0.0,0.0,0.0,0.0,0.0,0.0,0.0,0.0,0.0,0.0,0.0,0.0,0.0,0.0,0.0,0.0,0.0,0.0,0.0,0.0,0.0,0.0,0.0,0.0,0.0,0.0,0.0,0.0,0.0,0.0,0.0,0.0,0.0,0.0,0.0,0.0,0.0,0.0,0.0,0.0,0.0,0.0,0.0,0.0,0.0,0.0,0.0,0.0,0.0,0.0,0.0,0.0,0.0,0.0,0.0,0.0,0.0,0.0,0.0,0.0,0.0,0.0,0.0,0.0,0.0,0.0,0.0,0.0,0.0,0.0,0.0,0.0,0.0,0.0,0.0,0.0,0.0,0.0,0.0,0.0,0.0,0.0,0.0,0.0,0.0,0.0,0.0,0.0,0.0,0.0,0.0,0.0,0.0,0.0,0.0,0.0,0.0,0.0,0.0,0.0,-2.2155,-2.5557,-2.6512,-2.6448,-2.5358,-2.2274,-2.0059,0.0,0.0,0.0,0.0,0.0,0.0,0.0,0.0,0.0,0.0,0.0,0.0,0.0,0.0,0.0,0.0,0.0,0.0,0.0,0.0,0.0,0.0,0.0,0.0,0.0,0.0,0.0,0.0,0.0,0.0,0.0,0.0,0.0,0.0,0.0,0.0,0.0,0.0,0.0,0.0,0.0,0.0,0.0,0.0,0.0,0.0,0.0,0.0,0.0,0.0,0.0,0.0,0.0,0.0,0.0,0.0,0.0,0.0,0.0,0.0,0.0,0.0,0.0,0.0,0.0,0.0,0.0,0.0,0.0,0.0,0.0,0.0,0.0,0.0,0.0,0.0,0.0,0.0,0.0,0.0,0.0,0.0,0.0,0.0,0.0,0.0,0.0,0.0,0.0,0.0,0.0,0.0,0.0,0.0,0.0,0.0,0.0,0.0,0.0,0.0,0.0,0.0,0.0,0.0,0.0,0.0,0.0,0.0,-2.406,-2.8273,-2.7811,-2.7503,-2.745,-2.4827,-2.2077,0.0,0.0,0.0,0.0,0.0,0.0,0.0,0.0,0.0,0.0,0.0,0.0,0.0,0.0,0.0,0.0,0.0,0.0,0.0,0.0,0.0,0.0,0.0,0.0,0.0,0.0,0.0,0.0,0.0,0.0,0.0,0.0,0.0,0.0,0.0,0.0,0.0,0.0,0.0,0.0,0.0,0.0,0.0,0.0,0.0,0.0,0.0,0.0,0.0,0.0,0.0,0.0,0.0,0.0,0.0,0.0,0.0,0.0,0.0,0.0,0.0,0.0,0.0,0.0,0.0,0.0,0.0,0.0,0.0,0.0,0.0,0.0,0.0,0.0,0.0,0.0,0.0,0.0,0.0,0.0,0.0,0.0,0.0,0.0,0.0,0.0,0.0,0.0,0.0,0.0,0.0,0.0,0.0,0.0,0.0,0.0,0.0,0.0,0.0,0.0,0.0,0.0,0.0,0.0,0.0,0.0,0.0,0.0,-2.5259,-2.8273,-2.8258,-2.8196,-2.8181,-2.494,-2.2168,0.0,0.0,0.0,0.0,0.0,0.0,0.0,0.0,0.0,0.0,0.0,0.0,0.0,0.0,0.0,0.0,0.0,0.0,0.0,0.0,0.0,0.0,0.0,0.0,0.0,0.0,0.0,0.0,0.0,0.0,0.0,0.0,0.0,0.0,0.0,0.0,0.0,0.0,0.0,0.0,0.0,0.0,0.0,0.0,0.0,0.0,0.0,0.0,-1.4197,0.0,0.0,0.0,0.0,0.0,0.0,0.0,0.0,0.0,0.0,0.0,0.0,0.0,0.0,0.0,0.0,0.0,0.0,0.0,0.0,0.0,0.0,0.0,0.0,0.0,0.0,0.0,0.0,0.0,0.0,0.0,0.0,0.0,0.0,0.0,0.0,0.0,0.0,0.0,0.0,0.0,0.0,0.0,0.0,0.0,0.0,0.0,0.0,0.0,0.0,0.0,0.0,0.0,0.0,0.0,0.0,0.0,0.0,0.0,-2.5641,-2.8288,-2.8411,-2.8372,-2.8222,-2.6413,-2.3893,0.0,0.0,0.0,0.0,0.0,0.0,0.0,0.0,0.0,0.0,0.0,0.0,0.0,0.0,0.0,0.0,0.0,0.0,0.0,0.0,0.0,0.0,0.0,0.0,0.0,0.0,0.0,0.0,0.0,0.0,0.0,0.0,0.0,0.0,0.0,0.0,0.0,0.0,0.0,0.0,0.0,0.0,0.0,0.0,0.0,0.0,0.0,0.0,0.0,0.0,0.0,0.0,0.0,0.0,0.0,0.0,0.0,0.0,0.0,0.0,0.0,0.0,0.0,0.0,0.0,0.0,0.0,0.0,0.0,0.0,0.0,0.0,0.0,0.0,0.0,0.0,0.0,0.0,0.0,0.0,0.0,0.0,0.0,0.0,0.0,0.0,0.0,0.0,0.0,0.0,0.0,0.0,0.0,0.0,0.0,0.0,0.0,0.0,0.0,0.0,0.0,0.0,0.0,0.0,0.0,0.0,0.0,-2.3148,-2.5641,-2.8273,-2.8411,-2.8323,-2.821,-2.8079,-2.5826,-2.1276,0.0,0.0,0.0,0.0,0.0,0.0,0.0,0.0,0.0,0.0,0.0,0.0,0.0,0.0,0.0,0.0,0.0,0.0,0.0,0.0,0.0,0.0,0.0,0.0,0.0,0.0,0.0,0.0,0.0,0.0,0.0,0.0,0.0,0.0,0.0,0.0,0.0,0.0,-1.4339,-1.6518,0.0,0.0,0.0,0.0,0.0,0.0,0.0,0.0,-1.5586,0.0,0.0,0.0,0.0,0.0,0.0,0.0,0.0,0.0,0.0,0.0,0.0,0.0,0.0,0.0,0.0,0.0,0.0,0.0,0.0,0.0,0.0,0.0,0.0,0.0,0.0,0.0,0.0,0.0,0.0,0.0,0.0,0.0,0.0,0.0,0.0,0.0,0.0,0.0,0.0,0.0,0.0,0.0,0.0,0.0,0.0,0.0,0.0,0.0,0.0,0.0,0.0,0.0,0.0,0.0,0.0,-2.3579,-2.4087,-2.5641,-2.8319,-2.8411,-2.8323,-2.821,-2.8054,-2.5781,-2.1239,0.0,0.0,0.0,0.0,0.0,0.0,0.0,0.0,0.0,0.0,0.0,0.0,0.0,0.0,0.0,0.0,0.0,0.0,0.0,0.0,0.0,0.0,0.0,0.0,0.0,0.0,0.0,0.0,0.0,0.0,0.0,0.0,0.0,0.0,0.0,0.0,0.0,0.0,0.0,-1.8403,-1.9348,0.0,0.0,0.0,0.0,0.0,0.0,0.0,0.0,-1.553,0.0,0.0,0.0,0.0,0.0,0.0,0.0,0.0,0.0,0.0,0.0,0.0,0.0,0.0,0.0,0.0,0.0,0.0,0.0,0.0,0.0,0.0,0.0,0.0,0.0,0.0,0.0,0.0,0.0,0.0,0.0,0.0,0.0,0.0,0.0,0.0,0.0,0.0,0.0,0.0,0.0,0.0,0.0,0.0,0.0,0.0,0.0,0.0,0.0,0.0,0.0,0.0,0.0,0.0,0.0,-2.2156,-2.4894,-2.6965,-2.8253,-2.8226,-2.8113,-2.7989,-2.793,-2.5485,0.0,0.0,0.0,0.0,0.0,0.0,0.0,0.0,0.0,0.0,0.0,0.0,0.0,0.0,0.0,0.0,0.0,0.0,0.0,0.0,0.0,0.0,0.0,0.0,0.0,0.0,0.0,0.0,0.0,0.0,0.0,0.0,0.0,0.0,0.0,0.0,0.0,0.0,0.0,0.0,-1.9375,-2.0468,-2.116,0.0,0.0,0.0,0.0,0.0,0.0,-1.7056,-1.6099,0.0,0.0,0.0,0.0,0.0,0.0,0.0,0.0,0.0,0.0,0.0,0.0,0.0,0.0,0.0,0.0,0.0,0.0,0.0,0.0,0.0,0.0,0.0,0.0,0.0,0.0,0.0,0.0,0.0,0.0,0.0,0.0,0.0,0.0,0.0,0.0,0.0,0.0,0.0,0.0,0.0,0.0,0.0,0.0,0.0,0.0,0.0,0.0,0.0,0.0,0.0,0.0,0.0,0.0,0.0,-2.0502,-2.5114,-2.7887,-2.8513,-2.8464,-2.8339,-2.8223,-2.8087,-2.5462,0.0,0.0,0.0,0.0,0.0,0.0,0.0,0.0,0.0,0.0,0.0,0.0,0.0,0.0,0.0,0.0,0.0,0.0,0.0,0.0,0.0,0.0,0.0,0.0,0.0,0.0,0.0,0.0,0.0,0.0,0.0,0.0,0.0,0.0,0.0,0.0,0.0,0.0,0.0,0.0,0.0,-2.1455,-2.2343,-2.0543,0.0,0.0,0.0,0.0,-1.954,-1.8685,0.0,0.0,0.0,0.0,0.0,0.0,0.0,0.0,0.0,0.0,0.0,0.0,0.0,0.0,0.0,0.0,0.0,0.0,0.0,0.0,0.0,0.0,0.0,0.0,0.0,0.0,0.0,0.0,0.0,0.0,0.0,0.0,0.0,0.0,0.0,0.0,0.0,0.0,0.0,0.0,0.0,0.0,0.0,0.0,0.0,0.0,0.0,0.0,0.0,0.0,0.0,0.0,0.0,0.0,0.0,0.0,-2.0889,-2.38,-2.6736,-2.964,-2.9765,-2.9701,-2.9569,-2.8996,-2.6154,0.0,0.0,0.0,0.0,0.0,0.0,0.0,0.0,0.0,0.0,0.0,0.0,0.0,0.0,0.0,0.0,0.0,0.0,0.0,0.0,0.0,0.0,0.0,0.0,0.0,0.0,0.0,0.0,0.0,0.0,0.0,0.0,0.0,0.0,0.0,0.0,0.0,0.0,0.0,0.0,0.0,-2.2313,-2.1894,-2.1051,-2.0868,0.0,0.0,-2.0972,-2.2757,-2.2478,0.0,0.0,0.0,0.0,0.0,0.0,0.0,0.0,0.0,0.0,0.0,0.0,0.0,0.0,0.0,0.0,0.0,0.0,0.0,0.0,0.0,0.0,0.0,0.0,0.0,0.0,0.0,0.0,0.0,0.0,0.0,0.0,0.0,0.0,0.0,0.0,0.0,0.0,0.0,0.0,0.0,0.0,0.0,0.0,0.0,0.0,0.0,0.0,0.0,0.0,0.0,0.0,0.0,0.0,0.0,-1.9448,-2.1027,-2.5402,-2.8399,-2.9815,-2.9795,-2.9756,-2.9702,-2.9402,-2.6555,0.0,0.0,0.0,0.0,0.0,0.0,0.0,0.0,0.0,0.0,0.0,0.0,0.0,0.0,0.0,0.0,0.0,0.0,0.0,0.0,0.0,0.0,0.0,0.0,0.0,0.0,0.0,0.0,0.0,0.0,0.0,0.0,0.0,0.0,0.0,0.0,0.0,0.0,0.0,0.0,0.0,0.0,-2.3789,-2.2727,0.0,0.0,0.0,-2.2652,-2.3475,0.0,0.0,0.0,0.0,0.0,0.0,0.0,0.0,0.0,0.0,0.0,0.0,0.0,0.0,0.0,0.0,0.0,0.0,0.0,0.0,0.0,0.0,0.0,0.0,0.0,0.0,0.0,0.0,0.0,0.0,0.0,0.0,0.0,0.0,0.0,0.0,0.0,0.0,0.0,0.0,0.0,0.0,0.0,0.0,0.0,0.0,0.0,0.0,0.0,0.0,0.0,0.0,0.0,0.0,0.0,0.0,0.0,-2.1209,-2.6958,-3.0045,-3.021,-3.0128,-3.0073,-3.0073,-2.9909,0.0,0.0,0.0,0.0,0.0,0.0,0.0,0.0,0.0,0.0,0.0,0.0,0.0,0.0,0.0,0.0,0.0,0.0,0.0,0.0,0.0,0.0,0.0,0.0,0.0,0.0,0.0,-0.939,0.0,0.0,0.0,0.0,0.0,0.0,0.0,0.0,0.0,0.0,0.0,0.0,0.0,0.0,-2.3167,-2.5068,-2.4388,-2.432,0.0,0.0,-2.4739,-2.5046,-2.5106,-2.4268,0.0,0.0,0.0,0.0,0.0,0.0,0.0,0.0,0.0,0.0,0.0,0.0,0.0,0.0,0.0,0.0,0.0,0.0,0.0,0.0,0.0,0.0,0.0,0.0,0.0,0.0,0.0,0.0,0.0,0.0,0.0,0.0,0.0,0.0,0.0,0.0,0.0,0.0,0.0,0.0,0.0,0.0,0.0,0.0,0.0,0.0,0.0,0.0,0.0,0.0,0.0,0.0,0.0,0.0,-2.1006,-2.1819,-2.7455,-3.0746,-3.1375,-3.1376,-3.1376,-3.1361,-3.0776,-2.7629,0.0,0.0,0.0,0.0,0.0,0.0,0.0,0.0,0.0,0.0,0.0,0.0,0.0,0.0,0.0,0.0,0.0,0.0,0.0,0.0,0.0,0.0,0.0,0.0,0.0,0.0,0.0,0.0,0.0,0.0,0.0,0.0,0.0,0.0,0.0,0.0,0.0,0.0,0.0,0.0,0.0,-2.2488,-2.441,-2.563,-2.6811,0.0,-2.7809,-2.7764,-2.9007,-2.9172,-2.7275,-2.171,0.0,0.0,0.0,0.0,0.0,0.0,0.0,0.0,0.0,0.0,0.0,0.0,0.0,0.0,0.0,0.0,0.0,0.0,0.0,0.0,0.0,0.0,0.0,0.0,0.0,0.0,0.0,0.0,0.0,0.0,0.0,0.0,0.0,0.0,0.0,0.0,0.0,0.0,0.0,0.0,0.0,0.0,0.0,0.0,0.0,0.0,0.0,0.0,0.0,0.0,0.0,0.0,0.0,-2.1327,-2.1594,-2.779,-3.1112,-3.1365,-3.138,-3.1424,-3.1496,-3.0778,-2.8546,0.0,0.0,0.0,0.0,0.0,0.0,0.0,0.0,0.0,0.0,0.0,0.0,0.0,0.0,0.0,0.0,0.0,0.0,0.0,0.0,0.0,0.0,0.0,0.0,0.0,0.0,0.0,0.0,-1.583,-1.6009,-1.4573,0.0,0.0,0.0,0.0,0.0,0.0,0.0,0.0,0.0,0.0,-2.5121,-2.6288,-2.7245,0.0,0.0,-2.8637,-2.8543,-2.9472,-2.8547,-2.6866,-2.4163,-2.2712,0.0,0.0,0.0,0.0,0.0,0.0,0.0,0.0,0.0,0.0,0.0,0.0,0.0,0.0,0.0,0.0,0.0,0.0,0.0,0.0,0.0,0.0,0.0,0.0,0.0,0.0,0.0,0.0,0.0,0.0,0.0,0.0,0.0,0.0,0.0,0.0,0.0,0.0,0.0,0.0,0.0,0.0,0.0,0.0,0.0,0.0,0.0,0.0,0.0,0.0,0.0,0.0,-2.1584,-2.1709,-2.7976,-3.1234,-3.1249,-3.1234,-3.1263,-3.1366,-3.0822,-2.9101,0.0,0.0,0.0,0.0,0.0,0.0,0.0,0.0,0.0,0.0,0.0,0.0,0.0,0.0,0.0,0.0,0.0,0.0,0.0,0.0,0.0,0.0,0.0,0.0,0.0,0.0,0.0,0.0,-1.6593,-1.6383,-1.5215,0.0,0.0,0.0,0.0,0.0,0.0,0.0,0.0,0.0,0.0,-2.7061,-2.8289,-2.8738,-2.9131,-2.9786,-2.9146,-2.8757,-2.922,-2.8412,-2.725,-2.5768,0.0,0.0,0.0,0.0,0.0,0.0,0.0,0.0,0.0,0.0,0.0,0.0,0.0,0.0,0.0,0.0,0.0,0.0,0.0,0.0,0.0,0.0,0.0,0.0,0.0,0.0,0.0,-1.2402,0.0,0.0,-1.1127,0.0,0.0,0.0,0.0,0.0,0.0,0.0,0.0,0.0,0.0,0.0,0.0,0.0,0.0,0.0,0.0,0.0,0.0,0.0,0.0,0.0,0.0,-2.1713,-2.2361,-2.8125,-3.1161,-3.1146,-3.1117,-3.1117,-3.1117,-3.1102,-2.9173,-2.5142,0.0,0.0,0.0,0.0,0.0,0.0,0.0,0.0,0.0,0.0,0.0,0.0,0.0,0.0,0.0,0.0,0.0,0.0,0.0,0.0,0.0,0.0,0.0,0.0,0.0,0.0,-1.325,-1.4107,-1.514,0.0,0.0,0.0,0.0,0.0,0.0,0.0,0.0,0.0,-2.4694,-2.6108,-2.756,-3.0073,-2.9953,-2.9879,-3.0432,-2.9475,-2.8667,-2.8757,-2.9624,-2.9286,0.0,0.0,0.0,0.0,0.0,0.0,0.0,0.0,0.0,0.0,0.0,0.0,0.0,0.0,0.0,0.0,0.0,0.0,0.0,0.0,0.0,0.0,0.0,0.0,0.0,0.0,0.0,-1.7175,-1.6208,0.0,0.0,0.0,0.0,0.0,0.0,0.0,0.0,0.0,0.0,0.0,-2.1416,-2.3299,0.0,0.0,0.0,0.0,0.0,0.0,0.0,0.0,0.0,0.0,0.0,0.0,-2.2089,-2.2704,-2.8864,-3.217,-3.217,-3.2156,-3.1986,-3.1567,-3.1013,-2.8494,-2.388,0.0,0.0,0.0,0.0,0.0,0.0,0.0,0.0,0.0,0.0,0.0,0.0,0.0,0.0,0.0,0.0,0.0,0.0,0.0,0.0,0.0,0.0,0.0,0.0,0.0,-1.5364,0.0,0.0,0.0,0.0,0.0,0.0,0.0,0.0,0.0,0.0,-2.0628,-2.3774,-2.5974,-2.8353,-3.0315,-3.163,-3.2048,-3.2258,0.0,0.0,0.0,0.0,0.0,0.0,0.0,0.0,0.0,0.0,0.0,0.0,0.0,0.0,-2.7694,-2.2471,-2.0884,-2.0438,-2.0647,0.0,0.0,0.0,0.0,0.0,0.0,0.0,0.0,0.0,0.0,0.0,0.0,0.0,0.0,-2.0812,-2.0135,-1.9437,0.0,0.0,0.0,0.0,0.0,0.0,0.0,0.0,-2.3703,-2.4742,-2.4343,-2.6179,-2.576,-2.3409,-2.326,-2.1381,0.0,0.0,0.0,0.0,0.0,0.0,0.0,0.0,-2.3022,-2.4407,-2.9472,-3.2101,-3.1828,-3.1828,-3.1636,-3.1226,-3.044,-2.8605,-2.5695,-2.3865,-2.2162,0.0,0.0,0.0,0.0,0.0,0.0,0.0,0.0,0.0,0.0,0.0,0.0,0.0,0.0,0.0,0.0,0.0,0.0,0.0,0.0,0.0,0.0,0.0,-1.6563,0.0,0.0,0.0,0.0,0.0,0.0,0.0,0.0,0.0,-2.0225,-2.3902,-2.723,-2.8786,-3.0851,-3.2422,-3.311,0.0,0.0,0.0,0.0,0.0,0.0,0.0,-2.9322,-3.011,-2.8554,-2.7085,-2.674,-2.8724,-3.0116,-2.9191,0.0,0.0,-2.6436,-2.4931,-2.4507,-2.4717,-2.4964,-2.5039,-2.4792,-2.5659,-2.6437,0.0,0.0,0.0,0.0,-1.917,0.0,0.0,0.0,-2.3431,-2.362,0.0,-2.3616,0.0,0.0,0.0,0.0,-1.7592,-2.1708,0.0,0.0,-2.8608,-2.9696,-2.8556,-2.852,-2.8195,-2.7521,-2.6739,-2.5537,-2.3898,-2.2684,0.0,0.0,0.0,0.0,0.0,0.0,-2.4526,-2.7434,-3.0115,-3.109,-3.0391,-3.0391,-3.0357,-3.0288,-2.9531,-2.9443,-2.9982,-2.5722,-2.3263,-2.3032,-1.7039,0.0,0.0,0.0,0.0,0.0,0.0,0.0,0.0,0.0,0.0,0.0,0.0,0.0,0.0,0.0,0.0,0.0,0.0,0.0,0.0,-1.7697,0.0,0.0,0.0,0.0,0.0,0.0,0.0,0.0,0.0,-2.759,-2.509,-2.7116,-2.9909,-3.2961,0.0,0.0,0.0,0.0,-3.2901,-3.3574,-3.2003,-3.0821,-3.0836,-3.1633,-3.2212,-3.2208,0.0,0.0,-3.0484,-3.1673,-3.2266,-2.985,-3.1634,-3.3252,-3.3118,-3.1051,-2.9804,-3.0283,-2.9951,-2.9894,-3.0492,-3.1539,-3.2931,-2.5544,0.0,0.0,0.0,0.0,-2.3103,-2.4679,-2.7083,-2.7463,-2.7059,-2.609,-2.5558,0.0,0.0,0.0,0.0,0.0,0.0,-2.4671,-2.6762,-2.7435,-2.8536,-3.0037,-2.9665,-2.9386,-2.9217,-2.8981,-2.8787,-2.8613,-2.8256,-2.4313,-1.7128,0.0,0.0,0.0,0.0,-2.7187,-2.8404,-3.1732,-3.3146,-3.2347,-3.2893,-3.2652,-3.1572,-2.985,-2.9082,-2.929,-2.7594,-2.5762,-2.3816,-2.1528,0.0,0.0,0.0,0.0,0.0,0.0,0.0,0.0,0.0,0.0,0.0,0.0,0.0,0.0,0.0,0.0,0.0,0.0,0.0,-1.4441,-1.7533,-1.9174,0.0,0.0,0.0,0.0,0.0,0.0,0.0,0.0,0.0,-2.9389,-3.0945,-3.2258,0.0,0.0,-3.4294,-3.4488,-3.4966,-3.5579,-3.6193,-3.5804,0.0,-3.5444,-3.4467,-3.4161,-3.5459,-3.5913,-3.5722,-3.4781,-3.476,-3.4651,-3.4003,-3.4312,-3.4617,-3.456,-3.3436,-3.2512,-3.2587,-3.2482,-3.2422,-3.2647,-3.3155,-3.3649,-2.8249,-2.6205,-2.4417,-2.4427,-2.5629,-2.5965,-2.7483,-2.979,-3.0201,-2.9977,-2.9371,-2.9009,-2.7209,-2.4371,-2.3114,0.0,0.0,0.0,-2.6777,-2.8813,-2.8507,-2.9116,-3.0377,-3.0133,-2.9975,-2.9939,-2.9358,-2.9609,-3.0514,-2.9922,-2.6688,-2.1017,0.0,-2.2777,-2.1942,-2.5855,-2.8689,-3.0243,-3.2532,-3.3241,-3.2313,-3.2484,-3.2282,-3.1623,-3.0085,-2.9366,-2.9667,-2.8874,-2.767,-2.6013,-2.4368,-2.2443,0.0,0.0,0.0,0.0,0.0,0.0,0.0,0.0,0.0,0.0,0.0,-1.3151,-1.0775,0.0,0.0,0.0,-1.7606,-1.8538,-1.9409,-2.1563,0.0,0.0,0.0,0.0,0.0,0.0,0.0,-2.7414,-3.0386,-3.2482,-3.3164,-3.4317,-3.4801,-3.4173,-3.4803,-3.5387,-3.5609,0.0,-3.6985,-3.736,-3.7404,-3.7404,-3.7355,-3.6317,-3.5826,-3.6867,-3.6866,-3.674,-3.6726,-3.6353,-3.6173,-3.63,-3.6185,-3.6019,-3.6053,-3.5499,-3.4846,-3.4382,-3.4292,-3.4292,-3.4292,-3.4292,-3.4487,-3.014,-2.9834,-2.6766,-2.635,-2.7705,-2.8011,-2.9364,-3.1351,-3.1671,-3.2182,-3.2778,-3.2817,-3.1356,-2.8738,-2.6737,0.0,-2.8325,-2.9038,-2.9966,-3.1046,-3.1009,-3.0731,-3.0218,-3.017,-3.02,-3.0152,-2.8775,-2.8903,-3.0311,-2.9032,-2.8025,-2.7402,-2.7346,-2.7461,-2.7602,-2.785,-2.9549,-3.2629,-3.2734,-3.2273,-3.125,-3.0381,-3.0292,-3.1086,-3.0267,-3.0151,-3.0745,-2.9618,-2.8963,-2.8863,-2.605,-2.4142,-2.3509,0.0,0.0,0.0,0.0,0.0,0.0,0.0,0.0,0.0,0.0,0.0,0.0,0.0,0.0,-1.9313,-2.4345,0.0,-2.8674,-2.7678,0.0,0.0,0.0,-2.2914,-2.4837,-2.7497,-2.9571,-3.0526,0.0,0.0,-3.6268,-3.6909,-3.7191,-3.6701,-3.6582,-3.6746,-3.727,-3.7375,-3.7494,-3.7629,-3.7564,-3.7584,-3.7704,-3.7481,-3.7292,-3.7257,-3.7083,-3.7157,-3.7107,-3.7019,-3.7094,-3.7268,-3.7223,-3.7233,-3.7355,-3.7255,-3.7045,-3.5833,-3.5654,-3.5669,-3.5654,-3.5654,-3.5818,-3.1189,-3.091,-2.9969,-2.9498,-2.9438,-2.9941,-3.0265,-3.0487,-3.0961,-3.108,-3.1055,-3.1284,-3.1227,-3.0906,-3.0415,-3.0422,-3.0828,-3.1022,-3.1247,-3.1501,-3.1125,-3.1063,-3.1308,-3.091,-3.0687,-3.0663,-3.0344,-3.0248,-3.0391,-3.0044,-2.9768,-2.9633,-3.0104,-2.9448,-2.7833,-3.0108,-3.1724,-3.2538,-3.3026,-3.3506,-3.3978,-3.2071,-3.1498,-3.2468,-3.1151,-3.0284,-3.0049,-2.9769,-2.9591,-2.9553,-2.8423,-2.7659,-2.7458,-2.1591,0.0,0.0,0.0,0.0,0.0,0.0,0.0,0.0,0.0,-1.721,-1.3509,0.0,-1.8799,0.0,-2.7569,-2.9184,-2.5943,-2.6739,0.0,0.0,-2.5752,-2.5861,-3.1661,-3.1501,-3.1842,-3.426,-3.591,-3.6833,-3.6758,-3.7001,-3.7327,-3.7639,-3.7406,-3.7075,-3.6791,-3.7569,-3.8347,-3.8796,-3.885,-3.891,-3.885,-3.891,-3.8758,-3.8608,-3.8578,-3.8557,-3.8557,-3.8142,-3.7901,-3.8033,-3.7699,-3.743,-3.7434,-3.7404,-3.7345,-3.7015,-3.6956,-3.6956,-3.6956,-3.6941,-3.6985,-3.1318,-3.1139,-3.1017,-3.0841,-3.0623,-3.0922,-3.0929,-3.069,-3.1052,-3.1146,-3.0979,-3.1194,-3.1428,-3.1705,-3.1705,-3.1705,-3.1705,-3.1705,-3.1705,-3.1693,-3.1404,-3.1428,-3.1693,-3.1404,-3.1271,-3.1271,-3.1271,-3.117,-3.0979,-3.0967,-3.0979,-3.0979,-3.1339,-3.0857,-2.9644,-3.1628,-3.2293,-3.1432,-3.2384,-3.3195,-3.3851,-3.2276,-3.1236,-3.0823,-3.093,-3.0357,-2.9101,-2.9754,-2.9704,-2.8725,-2.8134,-2.7833,-2.7758,-2.3828,-2.2083,0.0,0.0,0.0,0.0,0.0,0.0,0.0,0.0,0.0,0.0,0.0,-2.1225,-2.313,-2.8518,-3.0461,-2.7003,-2.9035,-3.0991,-3.1965,-3.0208,-3.0776,-3.519,-3.4456,-3.4345,-3.608,-3.698,-3.7464,-3.7429,-3.7857,-3.826,-3.8633,-3.8471,-3.8182,-3.7928,-3.8437,-3.899,-3.9328,-3.9388,-3.9388,-3.9388,-3.9388,-3.9388,-3.9265,-3.9228,-3.9228,-3.9213,-3.893,-3.8713,-3.879,-3.8542,-3.8302,-3.8302,-3.8302,-3.8302,-3.8302,-3.8302,-3.8078,-3.7524,-3.7404,-3.7449,-3.1074,-3.1029,-3.1074,-3.1196,-3.1306,-3.135,-3.135,-3.135,-3.1617,-3.1705,-3.1705,-3.1705,-3.1705,-3.1705,-3.1705,-3.1705,-3.1705,-3.1705,-3.1705,-3.1705,-3.1705,-3.1705,-3.1705,-3.1705,-3.1705,-3.1705,-3.1705,-3.1705,-3.1705,-3.1705,-3.1705,-3.1705,-3.1793,-3.1697,-3.1467,-3.2529,-3.2214,-3.0461,-3.1332,-3.2016,-3.2385,-3.1616,-3.031,-2.8558,-3.041,-3.057,-2.8674,-2.993,-2.9829,-2.7934,-2.7379,-2.7102,-2.7014,-2.6113,-2.5146,0.0,-2.3281,0.0,0.0,0.0,0.0,0.0,0.0,0.0,0.0,-2.443,-2.4351,-2.3048,-2.8598,-3.1636,-3.0243,-3.2638,-3.4618,-3.5418,-3.544,-3.5711,-3.6458,-3.6531,-3.6645,-3.6913,-3.7552,-3.8037,-3.8216,-3.8871,-3.9301,-3.9307,-3.9298,-3.9239,-3.9328,-3.9313,-3.9343,-3.9388,-3.9388,-3.9388,-3.9388,-3.9388,-3.9388,-3.9388,-3.9388,-3.9388,-3.9388,-3.9373,-3.9373,-3.9373,-3.9313,-3.9328,-3.9409,-3.9343,-3.9358,-3.9284,-3.9269,-3.8975,-3.8063,-3.7778,-3.7853,-3.1451,-3.1273,-3.1484,-3.1439,-3.1306,-3.154,-3.1617,-3.1617,-3.1673,-3.1705,-3.1705,-3.1705,-3.1705,-3.1705,-3.1705,-3.1705,-3.1705,-3.1705,-3.1705,-3.1705,-3.1705,-3.1705,-3.1705,-3.1705,-3.1705,-3.1705,-3.1705,-3.1705,-3.1705,-3.1705,-3.1705,-3.1705,-3.2232,-3.1583,-2.9994,0.0,0.0,0.0,-3.0447,-3.0238,-3.1299,-3.0534,-2.9999,-2.9822,-3.1231,0.0,-3.0846,-3.1085,-3.106,-3.0645,-3.0507,0.0,0.0,0.0,0.0,0.0,0.0,0.0,0.0,0.0,0.0,0.0,-2.4079,-2.4582,-2.5497,-2.8017,-2.9031,-2.7773,-3.0183,-3.2411,-3.3784,-3.4433,-3.5192,-3.602,-3.6385,-3.6529,-3.6437,-3.716,-3.7769,-3.7691,-3.8106,-3.851,-3.8839,-3.8906,-3.898,-3.9156,-3.9301,-3.9388,-3.9388,-3.9388,-3.9388,-3.9388,-3.9388,-3.9388,-3.9388,-3.9388,-3.9388,-3.9388,-3.9388,-3.9388,-3.9388,-3.9388,-3.9388,-3.9388,-3.9388,-3.9388,-3.9388,-3.9388,-3.9388,-3.9388,-3.9388,-3.9313,-3.9059,-3.8985,-3.908,-3.2421,-3.2285,-3.2261,-3.2163,0.0,-3.1878,-3.1812,-3.1705,-3.1705,-3.1705,-3.1705,-3.1705,-3.1705,-3.1705,-3.1705,-3.1705,-3.1705,-3.1705,-3.1705,-3.1705,-3.1705,-3.1705,-3.1705,-3.1705,-3.1705,-3.1705,-3.1705,-3.1705,-3.1705,-3.1705,-3.1705,-3.1705,-3.2025,-3.16,-3.0561,-3.1976,-3.2698,-3.2667,-3.142,-3.1141,-3.1835,-3.1602,-3.0985,-3.0086,-3.1706,0.0,0.0,0.0,0.0,0.0,0.0,0.0,0.0,-2.7758,0.0,-2.7971,-2.6465,-2.5523,-2.5523,-2.5523,-2.6468,-2.8543,-2.9301,-2.9399,-2.872,-3.0577,-3.1501,-3.0842,-3.1969,-3.3221,-3.4331,-3.4696,-3.5193,-3.6057,-3.6587,-3.6973,-3.7237,-3.774,-3.8128,-3.8099,-3.8399,-3.8701,-3.8789,-3.8907,-3.8995,-3.9104,-3.9192,-3.9301,-3.9388,-3.9388,-3.9373,-3.9265,-3.9265,-3.925,-3.9265,-3.9337,-3.9388,-3.9388,-3.9388,-3.9388,-3.9388,-3.9388,-3.9388,-3.9388,-3.9388,-3.9388,-3.9388,-3.9388,-3.9388,-3.9388,-3.9388,-3.9388,-3.9388,-3.9388,-3.9388,-3.3284,-3.3296,-3.3074,-3.2775,-3.2503,-3.2285,-3.1974,-3.1705,-3.1661,0.0,0.0,-3.1629,-3.1617,-3.1629,-3.1661,-3.1705,-3.1705,-3.1705,-3.1705,-3.1705,-3.1705,-3.1705,-3.1705,-3.1705,-3.1705,-3.1705,-3.1705,-3.1705,-3.1705,-3.1705,-3.1705,-3.1705,-3.1705,-3.1705,-3.1705,-3.1705,-3.2045,-3.2673,-3.2136,-3.1896,-3.2152,-3.2364,-3.1637,-2.9842,-3.1884,-3.2185,-3.043,-3.1567,-3.1455,-2.9689,-2.9189,-2.8938,-2.885,-2.8837,-2.9591,-3.121,-3.1386,-3.1386,-3.1386,-3.1386,-3.183,-3.2777,-3.3303,-3.3028,-3.1671,-3.2408,-3.2962,-3.3028,-3.3668,-3.4082,-3.419,-3.4585,-3.5198,-3.6063,-3.6627,-3.7256,-3.8075,-3.824,-3.8248,-3.8277,-3.8486,-3.8686,-3.8627,-3.8848,-3.9053,-3.9104,-3.9156,-3.9228,-3.9337,-3.9388,-3.9337,-3.9228,-3.9228,-3.9177,-3.9177,-3.9301,-3.9388,-3.9388,-3.9388,-3.9388,-3.9388,-3.9388,-3.9388,-3.9388,-3.9388,-3.9388,-3.9388,-3.9388,-3.9388,-3.9388,-3.9388,-3.9388,-3.9388,-3.9388,-3.9388,-3.3296,-3.3284,-3.3284,-3.2937,-3.2503,-3.2457,-3.2166,-3.1673,-3.1484,-3.1273,-3.1107,-3.1261,-3.135,-3.135,-3.1617,-3.1705,-3.1705,-3.1705,-3.1705,-3.1705,-3.1705,-3.1705,-3.1705,-3.1705,-3.1705,-3.1705,-3.1705,-3.1705,-3.1705,-3.1705,-3.1705,-3.1705,-3.1705,-3.1705,-3.1705,-3.1705,-3.1749,-3.1845,-3.0367,-2.9677,-2.9876,-3.0125,-3.0131,-2.9917,-3.1718,-3.2642,-3.2319,-3.2505,-3.2505,-3.2194,-3.2331,-3.2152,-3.1662,-3.1599,-3.1574,-3.1399,-3.1386,-3.1386,-3.1386,-3.1386,-3.1983,-3.3204,-3.2808,-3.2411,-3.246,-3.3235,-3.3916,-3.4348,-3.4546,-3.4867,-3.5303,-3.5425,-3.5798,-3.6612,-3.6968,-3.741,-3.8075,-3.8329,-3.8404,-3.8441,-3.8366,-3.8449,-3.8686,-3.8797,-3.8943,-3.9068,-3.9228,-3.9388,-3.9373,-3.9388,-3.9388,-3.9352,-3.9352,-3.9352,-3.9316,-3.9388,-3.9388,-3.9388,-3.9388,-3.9388,-3.9388,-3.9388,-3.9388,-3.9388,-3.9388,-3.9388,-3.9388,-3.9388,-3.9388,-3.9388,-3.9388,-3.9388,-3.9388,-3.9388,-3.9388,-3.4126,-3.4126,-3.4126,-3.3813,-3.332,-3.3044,-3.2565,-3.1914,-3.1779,-3.1523,-3.1196,-3.1261,-3.1273,-3.1139,-3.1395,-3.1484,-3.1484,-3.1617,-3.1705,-3.1705,-3.1705,-3.1705,-3.1705,-3.1705,-3.1705,-3.1705,-3.1705,-3.1705,-3.1705,-3.1705,-3.1705,-3.1705,-3.1705,-3.1705,-3.1705,-3.1705,-3.1705,-3.1693,-3.101,-3.0776,-3.1038,-3.1232,-3.1439,-3.1587,-3.2506,-3.2896,-3.2939,-3.2939,-3.2939,-3.2952,-3.3038,-3.2955,-3.2704,-3.2692,-3.2566,-3.2328,-3.2303,-3.229,-3.2357,-3.2749,-3.3101,-3.3274,-3.337,-3.3226,-3.2899,-3.3682,-3.4272,-3.4538,-3.4969,-3.5316,-3.5588,-3.5628,-3.5949,-3.6819,-3.6582,-3.6855,-3.7872,-3.781,-3.781,-3.824,-3.8464,-3.8575,-3.8627,-3.8833,-3.898,-3.9104,-3.9265,-3.9388,-3.9388,-3.9388,-3.9337,-3.925,-3.9213,-3.9228,-3.9228,-3.9352,-3.9388,-3.9388,-3.9388,-3.9388,-3.9388,-3.9388,-3.9388,-3.9388,-3.9388,-3.9388,-3.9388,-3.9388,-3.9388,-3.9388,-3.9388,-3.9388,-3.9388,-3.9388,-3.9388,-3.4775,-3.4775,-3.4643,-3.4306,-3.379,-3.3452,-3.2879,-3.2194,-3.2194,-3.1851,-3.1354,-3.1306,-3.1184,-3.1029,-3.1229,-3.1261,-3.1273,-3.1484,-3.1617,-3.1617,-3.1661,-3.1705,-3.1705,-3.1705,-3.1705,-3.1705,-3.1705,-3.1705,-3.1705,-3.1705,-3.1705,-3.1705,-3.1705,-3.1705,-3.1705,-3.1705,-3.1705,-3.1705,-3.1849,-3.2069,-3.23,-3.2506,-3.2766,-3.2982,-3.2939,-3.2952,-3.2982,-3.3038,-3.3025,-3.2982,-3.3068,-3.3124,-3.3124,-3.3124,-3.3124,-3.3124,-3.3124,-3.321,-3.3411,-3.4176,-3.4371,-3.3755,-3.4105,-3.4118,-3.3539,-3.3823,-3.4189,-3.4468,-3.5494,-3.6015,-3.5507,-3.5775,-3.6148,-3.657,-3.6267,-3.666,-3.7886,-3.7606,-3.7453,-3.8113,-3.8538,-3.8649,-3.859,-3.8811,-3.9068,-3.9192,-3.9301,-3.9373,-3.9352,-3.9352,-3.9301,-3.9192,-3.9141,-3.9177,-3.9177,-3.9301,-3.9388,-3.9388,-3.9388,-3.9388,-3.9388,-3.9388,-3.9388,-3.9388,-3.9388,-3.9388,-3.9388,-3.9388,-3.9388,-3.9388,-3.9388,-3.9388,-3.9388,-3.9388,-3.9388,-3.4775,-3.4703,-3.4306,-3.3766,-3.3404,-3.332,-3.2984,-3.2481,-3.2445,-3.1998,-3.1374,-3.1306,-3.1184,-3.1017,-3.1217,-3.1217,-3.1062,-3.1273,-3.135,-3.1395,-3.1572,-3.1705,-3.1717,-3.1705,-3.1705,-3.1705,-3.1705,-3.1705,-3.1705,-3.1705,-3.1705,-3.1705,-3.1705,-3.1705,-3.1705,-3.1705,-3.1705,-3.1705,-3.1705,-3.1849,-3.2038,-3.2257,-3.2506,-3.2711,-3.2562,-3.2562,-3.2766,-3.2766,-3.2766,-3.2766,-3.2982,-3.3124,-3.3124,-3.3124,-3.3124,-3.3124,-3.3124,-3.3454,-3.423,-3.5047,-3.5346,-3.5346,-3.4703,-3.4384,-3.423,-3.3654,-3.3611,-3.4509,-3.6517,-3.6727,-3.4991,-3.5989,-3.6607,-3.6029,-3.6425,-3.7372,-3.791,-3.8277,-3.8329,-3.8165,-3.8389,-3.8516,-3.8553,-3.8723,-3.8995,-3.9316,-3.9373,-3.9337,-3.9228,-3.9301,-3.9337,-3.9192,-3.9228,-3.9367,-3.9367,-3.9388,-3.9388,-3.9388,-3.9388,-3.9388,-3.9388,-3.9388,-3.9388,-3.9388,-3.9388,-3.9388,-3.9388,-3.9388,-3.9388,-3.9388,-3.9388,-3.9388,-3.9388,-3.9388,-3.9388,-3.4689,-3.4568,-3.4498,-3.4162,-3.3729,-3.3428,-3.2996,-3.2515,-3.2503,-3.2145,-3.1564,-3.1528,-3.1362,-3.1017,-3.1229,-3.1261,-3.1172,-3.1407,-3.1528,-3.1528,-3.1484,-3.1439,-3.1439,-3.1484,-3.1484,-3.1484,-3.1617,-3.1705,-3.1705,-3.1705,-3.1705,-3.1705,-3.1705,-3.1705,-3.1705,-3.1705,-3.1705,-3.1705,-3.1705,-3.1761,-3.1849,-3.2038,-3.2463,-3.3013,-3.2766,-3.2593,-3.2723,-3.2853,-3.2939,-3.2939,-3.3068,-3.3124,-3.3124,-3.3124,-3.3124,-3.3124,-3.3124,-3.324,-3.3611,-3.3966,-3.4358,-3.4841,-3.4592,-3.4579,-3.5087,-3.5251,-3.5128,-3.4675,-3.5803,-3.6162,-3.5318,-3.6267,-3.6844,-3.6399,-3.5923,-3.5883,-3.6596,-3.6738,-3.6908,-3.7362,-3.8188,-3.8612,-3.859,-3.8811,-3.9068,-3.9352,-3.9403,-3.9382,-3.9294,-3.9352,-3.9337,-3.9361,-3.9687,-3.9762,-3.9523,-3.9388,-3.9403,-3.9403,-3.9388,-3.9388,-3.9448,-3.9388,-3.9388,-3.9418,-3.9433,-3.9433,-3.9388,-3.9388,-3.9388,-3.9448,-3.9403,-3.9388,-3.9388,-3.9388,-3.9388,-3.4628,-3.4433,-3.4543,-3.4293,-3.3792,-3.3636,-3.3229,-3.2751,-3.2642,-3.2304,-3.18,-3.1733,-3.1496,-3.1241,-3.1273,-3.1261,-3.1273,-3.1484,-3.1572,-3.1572,-3.1439,-3.1395,-3.1306,-3.1306,-3.1306,-3.135,-3.1484,-3.1617,-3.1717,-3.1705,-3.1705,-3.1705,-3.1705,-3.1793,-3.1925,-3.1793,-3.1793,-3.1925,-3.1837,-3.1793,-3.1925,-3.1937,-3.2288,-3.3025,-3.2853,-3.2711,-3.2797,-3.3025,-3.3124,-3.3124,-3.3124,-3.3124,-3.3124,-3.3124,-3.3124,-3.3167,-3.3543,-3.3797,-3.3797,-3.4008,-3.4301,-3.4662,-3.4551,-3.4538,-3.491,-3.548,-3.5291,-3.4356,-3.4814,-3.5237,-3.502,-3.5949,-3.657,-3.6492,-3.5575,-3.548,-3.6267,-3.6346,-3.6752,-3.7323,-3.8225,-3.856,-3.83,-3.8598,-3.9024,-3.9099,-3.9401,-3.9689,-3.9757,-3.9898,-3.9971,-3.989,-4.036,-4.0352,-3.9858,-3.9963,-3.9903,-3.9963,-4.0068,-4.0083,-3.9918,-3.9873,-3.9903,-4.0187,-3.9888,-3.9873,-4.0187,-4.0098,-3.9911,-3.9918,-3.9822,-3.9702,-3.9732,-3.9582,-3.9418,-3.4628,-3.4384,-3.4211,-3.3807,-3.3383,-3.3772,-3.3713,-3.3137,-3.2948,-3.2543,-3.2075,-3.1812,-3.1673,-3.1617,-3.1395,-3.1217,-3.1062,-3.1273,-3.1395,-3.1395,-3.1572,-3.1528,-3.1306,-3.1306,-3.1306,-3.1306,-3.135,-3.1484,-3.1705,-3.1705,-3.1705,-3.1705,-3.1705,-3.2013,-3.2363,-3.1969,-3.2013,-3.245,-3.2057,-3.2013,-3.2494,-3.2069,-3.2025,-3.2475,-3.2593,-3.281,-3.3025,-3.3124,-3.3124,-3.3124,-3.321,-3.3167,-3.3124,-3.3124,-3.3167,-3.324,-3.4553,-3.5373,-3.5373,-3.5923,-3.6162,-3.5588,-3.4937,-3.4189,-3.4008,-3.4079,-3.4008,-3.3326,-3.4301,-3.4426,-3.3869,-3.5156,-3.5949,-3.5909,-3.6543,-3.7102,-3.7796,-3.7682,-3.8263,-3.824,-3.8298,-3.8214,-3.7491,-3.8144,-3.8792,-3.8981,-3.9484,-4.0166,-4.0535,-4.0933,-4.0994,-4.0971,-4.1053,-4.1115,-4.0591,-4.0621,-4.1025,-4.0988,-4.0801,-4.113,-4.104,-4.0935,-4.0935,-4.0891,-4.0591,-4.0636,-4.1085,-4.122,-4.11,-4.0935,-4.0524,-4.0375,-4.0315,-3.9777,-3.9612,-3.464,-3.4299,-3.3613,-3.333,-3.33,-3.3159,-3.2934,-3.2794,-3.2665,-3.2463,-3.2114,-3.2012,-3.1851,-3.1705,-3.1617,-3.154,-3.1451,-3.1528,-3.1572,-3.1528,-3.1484,-3.1395,-3.1306,-3.1306,-3.1229,-3.1139,-3.1407,-3.1572,-3.1705,-3.1705,-3.1705,-3.1705,-3.1705,-3.1837,-3.1969,-3.1837,-3.2013,-3.2581,-3.245,-3.245,-3.2667,-3.2568,-3.2494,-3.2388,-3.2475,-3.2605,-3.284,-3.3526,-3.3696,-3.3124,-3.4108,-3.4178,-3.327,-3.3611,-3.3641,-3.3283,-3.4217,-3.4566,-3.4204,-3.4814,-3.5413,-3.5628,-3.5883,-3.6056,-3.632,-3.632,-3.6122,-3.5696,-3.5736,-3.5615,-3.5033,-3.5346,-3.5909,-3.632,-3.6267,-3.6292,-3.645,-3.6621,-3.6635,-3.6769,-3.7427,-3.8022,-3.8302,-3.904,-3.9803,-3.9945,-4.0235,-4.0536,-4.0683,-4.0888,-4.0947,-4.0976,-4.1252,-4.1561,-4.1522,-4.1308,-4.1369,-4.1255,-4.1164,-4.1293,-4.1272,-4.1196,-4.1181,-4.1414,-4.119,-4.119,-4.1564,-4.1562,-4.1562,-4.1519,-4.1137,-4.1032,-4.0988,-4.0591,-4.0337,-3.4347,-3.4091,-3.3357,-3.3108,-3.3268,-3.2893,-3.2742,-3.2766,-3.2662,-3.2524,-3.2358,-3.2199,-3.2012,-3.1836,-3.1745,-3.1705,-3.1705,-3.1705,-3.1705,-3.1705,-3.1528,-3.1395,-3.1306,-3.1306,-3.1229,-3.1139,-3.1407,-3.1617,-3.1661,-3.1617,-3.1617,-3.1705,-3.1705,-3.1793,-3.1925,-3.1837,-3.2013,-3.2537,-3.2494,-3.2463,-3.268,-3.2945,-3.3147,-3.3159,-3.3288,-3.3172,-3.2884,-3.3569,-3.3738,-3.3368,-3.4191,-3.44,-3.3654,-3.381,-3.3865,-3.3654,-3.433,-3.4538,-3.4121,-3.4703,-3.5454,-3.5949,-3.6241,-3.6752,-3.7271,-3.713,-3.6688,-3.6215,-3.5776,-3.5521,-3.5913,-3.5927,-3.6088,-3.635,-3.5722,-3.5346,-3.5602,-3.6087,-3.6653,-3.7356,-3.8224,-3.8688,-3.868,-3.9326,-3.9707,-3.9977,-4.018,-4.0492,-4.0749,-4.0848,-4.1046,-4.1288,-4.1441,-4.1741,-4.1882,-4.1967,-4.2121,-4.2013,-4.1909,-4.1814,-4.1703,-4.1596,-4.1596,-4.1801,-4.1893,-4.1863,-4.187,-4.1829,-4.1867,-4.1914,-4.1818,-4.1675,-4.1609,-4.1497,-4.113,-3.3729,-3.3668,-3.3381,-3.3273,-3.3312,-3.3266,-3.3273,-3.3197,-3.3001,-3.2855,-3.2755,-3.237,-3.2164,-3.2041,-3.1839,-3.1709,-3.1745,-3.1697,-3.1705,-3.1717,-3.1661,-3.1528,-3.135,-3.135,-3.135,-3.1306,-3.1306,-3.1439,-3.1629,-3.1439,-3.1439,-3.1661,-3.1705,-3.1969,-3.2624,-3.2013,-3.2013,-3.2463,-3.2189,-3.2145,-3.2667,-3.3048,-3.3619,-3.4415,-3.4733,-3.4345,-3.3283,-3.3356,-3.3441,-3.3154,-3.3441,-3.3654,-3.4343,-3.3894,-3.3611,-3.4426,-3.5169,-3.5548,-3.5588,-3.6188,-3.6624,-3.657,-3.6122,-3.5909,-3.5989,-3.5372,-3.4896,-3.495,-3.4463,-3.4367,-3.6292,-3.6729,-3.6593,-3.5791,-3.5669,-3.5547,-3.6075,-3.7061,-3.8354,-3.9326,-3.9794,-3.9852,-3.9171,-3.9082,-3.9157,-3.9102,-3.9564,-4.0359,-4.0883,-4.1191,-4.1709,-4.2135,-4.1966,-4.1799,-4.2164,-4.2566,-4.2845,-4.3026,-4.2877,-4.2783,-4.2559,-4.243,-4.2292,-4.2415,-4.2296,-4.2281,-4.2524,-4.2535,-4.2678,-4.2712,-4.2557,-4.2318,-4.2282,-4.2132,-4.1743,-3.3679,-3.3679,-3.3431,-3.3281,-3.3281,-3.3281,-3.3281,-3.3281,-3.3197,-3.3053,-3.2901,-3.272,-3.2571,-3.2358,-3.2091,-3.1977,-3.1953,-3.1809,-3.1705,-3.1705,-3.1705,-3.1661,-3.1572,-3.1572,-3.1572,-3.1528,-3.1229,-3.1229,-3.1395,-3.135,-3.1339,-3.1439,-3.1629,-3.1805,-3.2013,-3.1793,-3.2013,-3.2581,-3.2494,-3.2581,-3.2871,-3.3018,-3.3462,-3.4069,-3.3759,-3.3814,-3.4787,-3.54,-3.4841,-3.3283,-3.5359,-3.6478,-3.6016,-3.5278,-3.4951,-3.5264,-3.6002,-3.6201,-3.5789,-3.6399,-3.6688,-3.6227,-3.6281,-3.6478,-3.6399,-3.5709,-3.548,-3.5991,-3.6251,-3.6864,-3.7382,-3.7947,-3.8221,-3.8655,-3.8481,-3.809,-3.8225,-3.8476,-3.8471,-3.8476,-3.9321,-3.9478,-3.9033,-3.9143,-3.9533,-3.9209,-3.981,-4.0492,-4.0916,-4.1353,-4.1856,-4.2201,-4.1939,-4.1827,-4.2213,-4.2392,-4.2541,-4.2729,-4.2835,-4.301,-4.2946,-4.2902,-4.2822,-4.2777,-4.2674,-4.2703,-4.2961,-4.309,-4.309,-4.313,-4.2872,-4.2837,-4.2961,-4.2707,-4.224,-3.353,-3.353,-3.3381,-3.3281,-3.3281,-3.3281,-3.3281,-3.3281,-3.3281,-3.3197,-3.3068,-3.2945,-3.2798,-3.257,-3.2285,-3.2103,-3.2077,-3.18,-3.1705,-3.1705,-3.1705,-3.1705,-3.1705,-3.1705,-3.1705,-3.1617,-3.1273,-3.1229,-3.1439,-3.1261,-3.1273,-3.1439,-3.1528,-3.1617,-3.1705,-3.1749,-3.2069,-3.2419,-3.2494,-3.2766,-3.3074,-3.3318,-3.3674,-3.4262,-3.4304,-3.4692,-3.5669,-3.6713,-3.636,-3.48,-3.6188,-3.7,-3.6805,-3.6068,-3.5749,-3.6148,-3.6517,-3.6649,-3.6241,-3.6922,-3.7193,-3.6738,-3.6791,-3.7092,-3.7092,-3.6385,-3.6029,-3.6811,-3.7113,-3.7681,-3.8203,-3.8858,-3.9664,-4.0735,-3.9613,-3.9365,-3.9276,-3.87,-3.8403,-3.8396,-3.9068,-3.9133,-3.9155,-3.8898,-3.9431,-3.9091,-3.9607,-4.0116,-4.0446,-4.1001,-4.1451,-4.1731,-4.1577,-4.1702,-4.2146,-4.2228,-4.2172,-4.2281,-4.2389,-4.2688,-4.2805,-4.2805,-4.271,-4.275,-4.2676,-4.2662,-4.289,-4.2809,-4.2809,-4.293,-4.2996,-4.2896,-4.2862,-4.2906,-4.2584,-3.3331,-3.3281,-3.3281,-3.3281,-3.3281,-3.3281,-3.3281,-3.3281,-3.3281,-3.3319,-3.3193,-3.3056,-3.2945,-3.2835,-3.2441,-3.2225,-3.2089,-3.1875,-3.1733,-3.1729,-3.1705,-3.1705,-3.1705,-3.1705,-3.1705,-3.1661,-3.1395,-3.1395,-3.1572,-3.1229,-3.1229,-3.1572,-3.1439,-3.1439,-3.1661,-3.1893,-3.1994,-3.2081,-3.23,-3.2723,-3.327,-3.3602,-3.4178,-3.4868,-3.5736,-3.6082,-3.6068,-3.7078,-3.7271,-3.5989,-3.5855,-3.6227,-3.6649,-3.6108,-3.5949,-3.6819,-3.6936,-3.6975,-3.7092,-3.7453,-3.7848,-3.7682,-3.7078,-3.7208,-3.7529,-3.6517,-3.6004,-3.6948,-3.7079,-3.7524,-3.8723,-3.9492,-4.0404,-4.1207,-3.9718,-3.8614,-3.8374,-3.7828,-3.8033,-3.8851,-3.9183,-3.9152,-3.8938,-3.8405,-3.8069,-3.7978,-3.8554,-3.9033,-3.9387,-4.0014,-4.0887,-4.1071,-4.1029,-4.1156,-4.1423,-4.1646,-4.1506,-4.1141,-4.1436,-4.1949,-4.2389,-4.2444,-4.2541,-4.2581,-4.2622,-4.2662,-4.2703,-4.2622,-4.2662,-4.2769,-4.2769,-4.2688,-4.2729,-4.2809,-4.2795,-3.3481,-3.3281,-3.3281,-3.3281,-3.3281,-3.3281,-3.3281,-3.3281,-3.3281,-3.3281,-3.3296,-3.3254,-3.32,-3.3142,-3.2833,-3.2594,-3.2359,-3.2103,-3.1863,-3.1709,-3.1705,-3.1705,-3.1705,-3.1705,-3.1705,-3.1661,-3.1427,-3.135,-3.1395,-3.1151,-3.1151,-3.1395,-3.1395,-3.1439,-3.1717,-3.1937,-3.1994,-3.205,-3.2257,-3.2562,-3.2884,-3.3,-3.3543,-3.4509,-3.495,-3.5655,-3.6413,-3.6975,-3.7453,-3.7477,-3.6227,-3.6346,-3.7491,-3.6464,-3.6306,-3.7438,-3.7285,-3.7208,-3.7644,-3.7529,-3.7299,-3.7169,-3.6635,-3.6306,-3.713,-3.6281,-3.6328,-3.7316,-3.7985,-3.8641,-3.9465,-4.0041,-4.0335,-3.9974,-3.9569,-3.9302,-3.8959,-3.8803,-3.884,-3.9139,-3.9108,-3.8765,-3.8238,-3.7933,-3.7533,-3.7302,-3.7704,-3.8342,-3.8657,-3.921,-4.013,-4.0346,-4.0346,-4.0432,-4.0603,-4.0831,-4.0703,-4.0043,-4.0303,-4.0958,-4.145,-4.1771,-4.2022,-4.2242,-4.2325,-4.2351,-4.2433,-4.2474,-4.2541,-4.2622,-4.2622,-4.2581,-4.2648,-4.2688,-4.2688,-3.3431,-3.3281,-3.3281,-3.3281,-3.3281,-3.3281,-3.3281,-3.3281,-3.3281,-3.3431,-3.3519,-3.3381,-3.3431,-3.356,-3.3317,-3.2991,-3.2687,-3.247,-3.2196,-3.1887,-3.1769,-3.1717,-3.1705,-3.1705,-3.1705,-3.1705,-3.1528,-3.1484,-3.1439,-3.1229,-3.1184,-3.135,-3.1593,-3.1649,-3.1572,-3.2276,-3.2624,-3.2698,-3.2766,-3.2896,-3.3356,-3.3013,-3.3154,-3.3937,-3.4454,-3.5696,-3.7169,-3.7438,-3.7567,-3.7362,-3.6478,-3.6385,-3.7872,-3.6922,-3.6791,-3.8075,-3.772,-3.7682,-3.7962,-3.7696,-3.7491,-3.7299,-3.6621,-3.6674,-3.7187,-3.6884,-3.7169,-3.8285,-3.9244,-3.9927,-4.0272,-4.0506,-3.9944,-3.8988,-3.9121,-3.921,-3.8644,-3.8166,-3.8043,-3.7997,-3.7997,-3.7874,-3.7268,-3.7222,-3.7036,-3.6896,-3.7361,-3.7763,-3.8128,-3.8734,-3.9254,-3.9505,-3.9637,-3.9637,-3.9724,-3.9956,-3.9738,-3.9121,-3.8944,-3.9694,-4.0273,-4.0816,-4.1311,-4.1577,-4.1856,-4.2133,-4.2242,-4.2284,-4.231,-4.2351,-4.2433,-4.2474,-4.2459,-4.2541,-4.25,-3.3281,-3.3281,-3.3281,-3.3281,-3.3281,-3.3281,-3.3281,-3.3281,-3.3369,-3.3618,-3.3854,-3.3618,-3.3817,-3.4054,-3.3872,-3.3456,-3.2968,-3.2937,-3.2503,-3.2133,-3.1889,-3.1761,-3.1705,-3.1705,-3.1705,-3.1705,-3.1705,-3.1661,-3.1617,-3.1439,-3.135,-3.1472,-3.1933,-3.1901,-3.1793,-3.2624,-3.3373,-3.3518,-3.3172,-3.3556,-3.4134,-3.3768,-3.3569,-3.3966,-3.5115,-3.632,-3.7477,-3.7872,-3.7644,-3.6936,-3.6241,-3.683,-3.7947,-3.7362,-3.7362,-3.7886,-3.7962,-3.7886,-3.8156,-3.8101,-3.8196,-3.8088,-3.7579,-3.7483,-3.815,-3.8222,-3.8524,-3.9401,-4.0387,-4.0447,-4.0278,-4.0336,-3.9376,-3.8069,-3.7717,-3.7671,-3.7487,-3.6909,-3.6417,-3.6417,-3.6452,-3.6417,-3.6417,-3.6417,-3.6417,-3.6593,-3.7002,-3.7222,-3.75,-3.7841,-3.8405,-3.8841,-3.8885,-3.8841,-3.8944,-3.9033,-3.8675,-3.8192,-3.7841,-3.8192,-3.8854,-3.9475,-4.026,-4.0745,-4.1212,-4.1717,-4.2133,-4.2119,-4.2078,-4.216,-4.2242,-4.2201,-4.2133,-4.2242,-4.2269,-3.3281,-3.3281,-3.3281,-3.3281,-3.3281,-3.3281,-3.3281,-3.3331,-3.3656,-3.3892,-3.404,-3.4286,-3.4494,-3.4617,-3.4474,-3.415,-3.3467,-3.3334,-3.2911,-3.2075,-3.199,-3.1849,-3.1749,-3.1705,-3.1705,-3.1705,-3.1705,-3.1705,-3.1661,-3.1697,-3.1617,-3.1661,-3.2006,-3.2001,-3.2025,-3.2537,-3.3232,-3.3716,-3.3416,-3.3911,-3.4924,-3.4579,-3.4413,-3.4992,-3.5989,-3.6688,-3.7014,-3.7169,-3.7092,-3.7039,-3.7376,-3.7758,-3.7924,-3.7376,-3.7362,-3.7863,-3.7634,-3.7558,-3.8063,-3.8232,-3.8325,-3.8847,-3.8721,-3.8814,-3.9566,-3.9599,-3.9949,-4.0419,-4.0281,-3.9788,-3.8912,-3.8537,-3.7965,-3.7176,-3.6815,-3.6769,-3.6687,-3.6546,-3.6417,-3.6417,-3.6417,-3.6417,-3.6417,-3.6417,-3.6417,-3.6417,-3.6546,-3.6675,-3.6896,-3.7129,-3.752,-3.8056,-3.7874,-3.7782,-3.8011,-3.8102,-3.7887,-3.7579,-3.7222,-3.7002,-3.7658,-3.8283,-3.9108,-3.9942,-4.0689,-4.1156,-4.1577,-4.1953,-4.1897,-4.1995,-4.2092,-4.2092,-4.2092,-4.2092,-4.2092,-3.3281,-3.3281,-3.3281,-3.3281,-3.3281,-3.3281,-3.3281,-3.3381,-3.3805,-3.4139,-3.4384,-3.4677,-3.4932,-3.515,-3.4908,-3.4387,-3.3796,-3.3344,-3.2783,-3.2139,-3.1994,-3.1893,-3.1749,-3.1705,-3.1705,-3.1717,-3.1793,-3.1849,-3.1898,-3.2144,-3.2249,-3.1974,-3.256,-3.2616,-3.2257,-3.2742,-3.3687,-3.4332,-3.4037,-3.4371,-3.5318,-3.5237,-3.5372,-3.6068,-3.6674,-3.7053,-3.7491,-3.7644,-3.7682,-3.7772,-3.8089,-3.8277,-3.8089,-3.7414,-3.74,-3.7938,-3.8194,-3.8126,-3.8582,-3.8841,-3.9151,-3.9571,-3.951,-3.9715,-4.0087,-4.035,-4.0444,-4.0464,-4.0139,-3.9566,-3.803,-3.7854,-3.7361,-3.6687,-3.6417,-3.6417,-3.6417,-3.6417,-3.6417,-3.6417,-3.6417,-3.6417,-3.6417,-3.6417,-3.6417,-3.6417,-3.6417,-3.6546,-3.6546,-3.6722,-3.6769,-3.6989,-3.6769,-3.6722,-3.7036,-3.7129,-3.7129,-3.6956,-3.6769,-3.664,-3.6862,-3.7487,-3.8102,-3.8899,-3.9724,-4.0432,-4.0887,-4.1254,-4.1633,-4.1912,-4.2051,-4.2051,-4.2092,-4.2051,-4.2051,-3.3281,-3.3281,-3.3281,-3.3281,-3.3281,-3.3281,-3.3281,-3.3381,-3.3904,-3.4384,-3.4763,-3.492,-3.5355,-3.5387,-3.5137,-3.4597,-3.3932,-3.3238,-3.2644,-3.2274,-3.2201,-3.2025,-3.1837,-3.1793,-3.1805,-3.1761,-3.1893,-3.1994,-3.2159,-3.2648,-3.2538,-3.2386,-3.3271,-3.3121,-3.2587,-3.3074,-3.3953,-3.4718,-3.4259,-3.4579,-3.54,-3.548,-3.5722,-3.6649,-3.6922,-3.74,-3.8,-3.8315,-3.8501,-3.8553,-3.8516,-3.8404,-3.8127,-3.7644,-3.7461,-3.831,-3.8817,-3.9146,-3.9499,-3.9911,-4.0328,-4.0328,-4.0463,-4.0318,-4.0397,-4.0538,-4.0386,-4.0013,-3.9611,-3.9186,-3.7854,-3.7453,-3.7129,-3.6593,-3.6417,-3.6417,-3.6417,-3.6417,-3.6417,-3.6417,-3.6417,-3.6417,-3.6417,-3.6417,-3.6417,-3.6417,-3.6417,-3.6417,-3.6417,-3.6417,-3.6499,-3.6546,-3.6452,-3.6417,-3.6687,-3.6769,-3.6687,-3.664,-3.6452,-3.6465,-3.6417,-3.6815,-3.7394,-3.7933,-3.8689,-3.9431,-3.9986,-4.0317,-4.0816,-4.1549,-4.1717,-4.1535,-4.1675,-4.1953,-4.1995,-3.3281,-3.3281,-3.3281,-3.3281,-3.3281,-3.3281,-3.3281,-3.3481,-3.4249,-3.4677,-3.492,-3.5727,-3.5824,-3.5606,-3.5444,-3.4836,-3.3891,-3.3264,-3.286,-3.255,-3.2494,-3.232,-3.1981,-3.1937,-3.1937,-3.195,-3.2038,-3.2081,-3.2181,-3.2505,-3.2747,-3.258,-3.3108,-3.3071,-3.2884,-3.3068,-3.3734,-3.4454,-3.4021,-3.44,-3.5251,-3.5223,-3.5413,-3.6649,-3.7,-3.7539,-3.8225,-3.8612,-3.876,-3.8723,-3.859,-3.8516,-3.8456,-3.8142,-3.8379,-3.8884,-3.9372,-3.9828,-4.0159,-4.0964,-4.1257,-4.1353,-4.1496,-4.1227,-4.0772,-4.0492,-4.0123,-3.9358,-3.86,-3.7841,-3.6769,-3.6769,-3.664,-3.6417,-3.6417,-3.6417,-3.6417,-3.6417,-3.6417,-3.6417,-3.6417,-3.6417,-3.6417,-3.6417,-3.6417,-3.6417,-3.6417,-3.6417,-3.6417,-3.6417,-3.6417,-3.6465,-3.6417,-3.6417,-3.6452,-3.6499,-3.6512,-3.6499,-3.6417,-3.6417,-3.6417,-3.6417,-3.6769,-3.7361,-3.7854,-3.8419,-3.8899,-3.9343,-3.9738,-4.023,-4.0532,-4.0831,-4.0944,-4.11,-4.1675,-3.3281,-3.3281,-3.3281,-3.3281,-3.3281,-3.3281,-3.3431,-3.3755,-3.4482,-3.4981,-3.5404,-3.6013,-3.6232,-3.5868,-3.5245,-3.45,-3.3621,-3.3287,-3.2939,-3.2754,-3.2667,-3.2463,-3.2081,-3.2125,-3.2081,-3.2125,-3.2201,-3.2332,-3.2412,-3.3046,-3.3034,-3.3009,-3.3496,-3.3571,-3.3139,-3.3339,-3.3798,-3.4179,-3.4105,-3.4288,-3.5237,-3.4716,-3.5345,-3.6162,-3.6947,-3.7462,-3.8,-3.8723,-3.8943,-3.8943,-3.8848,-3.8811,-3.8811,-3.8942,-3.9084,-3.9425,-4.0027,-4.0392,-4.0695,-4.1394,-4.1689,-4.0673,-4.1307,-4.1113,-4.0346,-3.9885,-3.9533,-3.8585,-3.7658,-3.6896,-3.6439,-3.6417,-3.6417,-3.6417,-3.6417,-3.6417,-3.6417,-3.6417,-3.6417,-3.6417,-3.6417,-3.6417,-3.6417,-3.6417,-3.6417,-3.6417,-3.6417,-3.6417,-3.6417,-3.6417,-3.6417,-3.6417,-3.6417,-3.6417,-3.6455,-3.6518,-3.6443,-3.6417,-3.6581,-3.6568,-3.6455,-3.6468,-3.6537,-3.6875,-3.7268,-3.7625,-3.7991,-3.8464,-3.872,-3.9019,-3.9505,-3.9899,-4.0,-4.0273,-4.0859,-3.3281,-3.3281,-3.3281,-3.3281,-3.3331,-3.3431,-3.3656,-3.4089,-3.4677,-3.5223,-3.562,-3.6108,-3.6267,-3.5768,-3.4876,-3.3884,-3.3124,-3.3124,-3.2982,-3.2853,-3.2797,-3.255,-3.2344,-3.23,-3.2388,-3.2288,-3.2463,-3.2667,-3.2742,-3.3233,-3.3395,-3.3364,-3.4041,-3.4186,-3.352,-3.369,-3.4126,-3.4288,-3.4424,-3.4509,-3.4509,-3.4592,-3.495,-3.5749,-3.6464,-3.6947,-3.7453,-3.83,-3.876,-3.8797,-3.8797,-3.8797,-3.8892,-3.9232,-3.9488,-3.977,-4.0808,-4.0974,-4.0902,-4.1613,-4.1668,-4.0276,-4.0632,-4.0173,-3.9343,-3.8823,-3.8432,-3.7579,-3.6943,-3.6499,-3.6405,-3.6417,-3.6417,-3.6417,-3.6417,-3.6417,-3.6417,-3.6417,-3.6417,-3.6417,-3.6417,-3.6417,-3.6417,-3.6417,-3.6417,-3.6417,-3.6417,-3.6417,-3.6417,-3.6417,-3.6417,-3.6417,-3.6417,-3.6417,-3.6493,-3.6669,-3.6556,-3.643,-3.6757,-3.6996,-3.6757,-3.6543,-3.66,-3.6669,-3.6593,-3.6956,-3.7315,-3.7546,-3.7704,-3.7997,-3.8572,-3.893,-3.8988,-3.9343,-3.9913,-3.3281,-3.3281,-3.3281,-3.3281,-3.3381,-3.3706,-3.3941,-3.4103,-3.503,-3.5524,-3.5521,-3.6021,-3.5755,-3.4901,-3.3941,-3.3325,-3.3149,-3.3124,-3.3081,-3.2982,-3.2982,-3.2853,-3.2636,-3.2624,-3.2636,-3.2537,-3.2667,-3.2667,-3.2791,-3.3107,-3.3194,-3.3257,-3.3715,-3.3909,-3.3771,-3.4117,-3.4154,-3.4175,-3.4012,-3.3894,-3.3924,-3.4105,-3.4551,-3.5032,-3.548,-3.5989,-3.6766,-3.7682,-3.8225,-3.8263,-3.8113,-3.8037,-3.8059,-3.8166,-3.8875,-3.9845,-4.0908,-4.1551,-4.0759,-4.1448,-4.1394,-4.0114,-4.0087,-3.9445,-3.8567,-3.7592,-3.7083,-3.6675,-3.6439,-3.6405,-3.6405,-3.6417,-3.6417,-3.6417,-3.6417,-3.6417,-3.6417,-3.6417,-3.6417,-3.6417,-3.6417,-3.6417,-3.6417,-3.6417,-3.6417,-3.6417,-3.6417,-3.6417,-3.6417,-3.6417,-3.6417,-3.6417,-3.6417,-3.6417,-3.6443,-3.6631,-3.6719,-3.6518,-3.6782,-3.7161,-3.6983,-3.6694,-3.6631,-3.6628,-3.6493,-3.6417,-3.6734,-3.6862,-3.6769,-3.7023,-3.7645,-3.7874,-3.7978,-3.8419,-3.8899,-3.3281,-3.3281,-3.3281,-3.3469,-3.3706,-3.3904,-3.4206,-3.451,-3.4916,-3.5122,-3.5121,-3.5303,-3.4989,-3.4306,-3.3802,-3.3512,-3.3187,-3.3149,-3.3124,-3.3124,-3.3081,-3.2952,-3.2754,-3.284,-3.2896,-3.2766,-3.2853,-3.2939,-3.2982,-3.3025,-3.3124,-3.3199,-3.3726,-3.4042,-3.4086,-3.4565,-3.4508,-3.429,-3.4016,-3.3933,-3.3949,-3.4076,-3.4243,-3.4522,-3.4992,-3.5521,-3.6136,-3.6791,-3.7333,-3.7372,-3.7256,-3.7232,-3.7477,-3.787,-3.8435,-3.8394,-3.9927,-4.0604,-4.0646,-4.1421,-4.066,-3.9502,-3.9091,-3.9002,-3.7972,-3.7248,-3.6687,-3.6581,-3.6581,-3.6546,-3.6405,-3.6417,-3.6417,-3.6417,-3.6417,-3.6417,-3.6417,-3.6417,-3.6417,-3.6417,-3.6417,-3.6417,-3.6417,-3.6417,-3.6417,-3.6417,-3.6417,-3.6417,-3.6417,-3.6417,-3.6417,-3.6417,-3.6417,-3.6417,-3.643,-3.6531,-3.6832,-3.6744,-3.6581,-3.692,-3.6996,-3.6857,-3.6757,-3.6606,-3.6468,-3.6417,-3.6417,-3.6452,-3.6546,-3.6628,-3.6722,-3.6989,-3.7222,-3.7129,-3.7658,-3.3636,-3.3581,-3.3511,-3.3586,-3.3852,-3.4097,-3.4318,-3.4531,-3.4786,-3.484,-3.4685,-3.467,-3.4451,-3.4256,-3.4167,-3.3808,-3.3319,-3.3282,-3.3169,-3.3174,-3.3081,-3.2995,-3.2939,-3.2995,-3.2995,-3.281,-3.2995,-3.3081,-3.3124,-3.3167,-3.3197,-3.3222,-3.3839,-3.4224,-3.4508,-3.4946,-3.5135,-3.4615,-3.4469,-3.4367,-3.4241,-3.4202,-3.4189,-3.4384,-3.4731,-3.5169,-3.5426,-3.6042,-3.6464,-3.6411,-3.6464,-3.6494,-3.6721,-3.7098,-3.7668,-3.7939,-3.9174,-3.983,-4.0087,-4.036,-3.9752,-3.876,-3.7959,-3.816,-3.7513,-3.7062,-3.6968,-3.6662,-3.6675,-3.6593,-3.6499,-3.6452,-3.6417,-3.6417,-3.6417,-3.6417,-3.6417,-3.6417,-3.6417,-3.6417,-3.6417,-3.6417,-3.6417,-3.6417,-3.6417,-3.6417,-3.6417,-3.6417,-3.6417,-3.6417,-3.6417,-3.643,-3.6669,-3.6631,-3.6505,-3.6593,-3.6845,-3.6971,-3.682,-3.6707,-3.682,-3.6857,-3.6769,-3.6619,-3.6443,-3.6417,-3.6417,-3.6417,-3.6417,-3.6499,-3.6546,-3.6499,-3.6499,-3.6417,-3.6546,-3.4547,-3.4292,-3.4012,-3.3674,-3.3371,-3.4339,-3.4399,-3.4139,-3.4731,-3.4873,-3.4544,-3.4388,-3.4483,-3.4673,-3.4325,-3.4066,-3.3809,-3.3834,-3.3621,-3.3319,-3.3136,-3.3206,-3.3163,-3.3194,-3.3131,-3.3038,-3.3081,-3.3124,-3.3124,-3.324,-3.3313,-3.3474,-3.3979,-3.4596,-3.5059,-3.5377,-3.5642,-3.5245,-3.5161,-3.4852,-3.4565,-3.4366,-3.4314,-3.4356,-3.4439,-3.4468,-3.4551,-3.521,-3.5561,-3.5427,-3.5575,-3.5737,-3.5878,-3.6241,-3.6722,-3.7611,-3.8172,-3.8796,-3.906,-3.9326,-3.8787,-3.8089,-3.7631,-3.7407,-3.7002,-3.6815,-3.6722,-3.6722,-3.6722,-3.6662,-3.6581,-3.6546,-3.6417,-3.6417,-3.6417,-3.6417,-3.6417,-3.6417,-3.6417,-3.6417,-3.6417,-3.6417,-3.6417,-3.6417,-3.6417,-3.6417,-3.6417,-3.6417,-3.6417,-3.6417,-3.6417,-3.6518,-3.692,-3.692,-3.6656,-3.6832,-3.7235,-3.7247,-3.7084,-3.687,-3.6744,-3.6732,-3.6681,-3.6581,-3.6417,-3.6417,-3.6417,-3.6417,-3.6417,-3.6417,-3.6417,-3.6417,-3.6417,-3.6417,-3.6417,-3.3752,-3.3467,-3.3635,-3.3647,-3.3455,-3.4015,-3.4123,-3.3993,-3.4331,-3.4306,-3.3965,-3.3916,-3.3885,-3.3971,-3.4211,-3.4104,-3.396,-3.4299,-3.4186,-3.4173,-3.4085,-3.3884,-3.3746,-3.352,-3.3476,-3.3237,-3.3149,-3.3124,-3.3124,-3.3354,-3.3703,-3.3959,-3.4195,-3.4392,-3.492,-3.5587,-3.5911,-3.6035,-3.5652,-3.5142,-3.4943,-3.4428,-3.4285,-3.4397,-3.4243,-3.4243,-3.4272,-3.433,-3.4358,-3.4437,-3.4685,-3.4943,-3.5236,-3.5589,-3.6251,-3.6953,-3.7397,-3.7632,-3.8037,-3.8445,-3.8626,-3.7815,-3.7446,-3.7201,-3.6909,-3.6922,-3.6815,-3.6769,-3.6722,-3.6662,-3.6487,-3.6452,-3.6417,-3.6417,-3.6417,-3.6417,-3.6417,-3.6417,-3.6417,-3.6417,-3.6417,-3.6417,-3.6417,-3.6417,-3.6417,-3.6417,-3.6417,-3.6417,-3.6417,-3.6417,-3.6417,-3.6543,-3.692,-3.6908,-3.6644,-3.7071,-3.7588,-3.7448,-3.7247,-3.7008,-3.6732,-3.6556,-3.6493,-3.643,-3.6417,-3.6417,-3.6417,-3.6417,-3.6417,-3.6417,-3.6417,-3.6417,-3.6417,-3.6417,-3.6417,-3.402,-3.3624,-3.3512,-3.3433,-3.3524,-3.3785,-3.3824,-3.3821,-3.4185,-3.429,-3.4109,-3.4195,-3.4137,-3.4148,-3.442,-3.4616,-3.462,-3.4743,-3.4801,-3.4713,-3.453,-3.4474,-3.4261,-3.411,-3.3985,-3.3608,-3.3558,-3.3633,-3.3684,-3.367,-3.4033,-3.44,-3.4633,-3.4878,-3.521,-3.5657,-3.623,-3.6171,-3.5965,-3.5275,-3.5132,-3.4513,-3.416,-3.423,-3.4105,-3.3992,-3.3937,-3.3924,-3.3797,-3.3892,-3.4101,-3.4448,-3.4844,-3.5391,-3.5989,-3.6319,-3.6502,-3.6675,-3.7176,-3.7717,-3.8219,-3.7492,-3.7261,-3.7108,-3.7015,-3.6968,-3.6815,-3.6769,-3.6709,-3.6615,-3.6439,-3.6452,-3.6417,-3.6417,-3.6417,-3.6417,-3.6417,-3.6417,-3.6417,-3.6417,-3.6417,-3.6417,-3.6417,-3.6417,-3.6417,-3.6417,-3.6417,-3.6417,-3.6417,-3.6417,-3.6417,-3.6593,-3.6883,-3.6744,-3.6568,-3.7174,-3.7626,-3.7096,-3.6945,-3.6897,-3.6684,-3.6531,-3.6417,-3.6417,-3.6417,-3.6417,-3.6417,-3.6417,-3.6417,-3.6417,-3.6417,-3.6417,-3.6417,-3.6417,-3.6417,-3.5661,-3.5358,-3.374,-3.313,-3.3187,-3.3689,-3.3721,-3.3703,-3.4313,-3.4966,-3.5388,-3.5294,-3.5328,-3.5459,-3.5426,-3.5365,-3.5278,-3.537,-3.5295,-3.5052,-3.5052,-3.4826,-3.468,-3.4675,-3.4587,-3.463,-3.45,-3.4387,-3.4537,-3.459,-3.4742,-3.4994,-3.5355,-3.5724,-3.6048,-3.6378,-3.6167,-3.559,-3.5734,-3.5378,-3.493,-3.4344,-3.4085,-3.4021,-3.3852,-3.3725,-3.3683,-3.367,-3.3543,-3.353,-3.4086,-3.4426,-3.4747,-3.5451,-3.6067,-3.6535,-3.6611,-3.6675,-3.6756,-3.7049,-3.7155,-3.7108,-3.6968,-3.6815,-3.6756,-3.6709,-3.6722,-3.6628,-3.6662,-3.6662,-3.6568,-3.6534,-3.6452,-3.6417,-3.6417,-3.6417,-3.6417,-3.6417,-3.6417,-3.6417,-3.6417,-3.6417,-3.6417,-3.6417,-3.6417,-3.6417,-3.6417,-3.6417,-3.6417,-3.6417,-3.6417,-3.6593,-3.6832,-3.6757,-3.6744,-3.7387,-3.76,-3.696,-3.6656,-3.6681,-3.6656,-3.6493,-3.6417,-3.6417,-3.6417,-3.6417,-3.6417,-3.6417,-3.6417,-3.6417,-3.6417,-3.6417,-3.6417,-3.6417,-3.6417,-3.4562,-3.3622,-3.3059,-3.2953,-3.3127,-3.3301,-3.3563,-3.4145,-3.4922,-3.5484,-3.5493,-3.543,-3.5238,-3.5246,-3.5521,-3.5625,-3.5617,-3.6006,-3.5868,-3.5805,-3.5776,-3.5542,-3.5345,-3.5182,-3.5056,-3.4813,-3.4738,-3.4768,-3.4675,-3.5077,-3.5487,-3.5724,-3.5968,-3.6315,-3.6398,-3.647,-3.6225,-3.5987,-3.5724,-3.5262,-3.4696,-3.4097,-3.3764,-3.3849,-3.3666,-3.3513,-3.3471,-3.3513,-3.3398,-3.3303,-3.3913,-3.4325,-3.4688,-3.539,-3.5945,-3.6361,-3.6499,-3.6499,-3.6487,-3.6628,-3.6722,-3.6769,-3.6769,-3.6628,-3.6534,-3.6499,-3.6499,-3.6499,-3.6534,-3.6534,-3.6439,-3.6452,-3.6417,-3.6417,-3.6417,-3.6417,-3.6417,-3.6417,-3.6417,-3.6417,-3.6417,-3.6417,-3.6417,-3.6417,-3.6417,-3.6417,-3.6417,-3.6417,-3.6417,-3.6417,-3.6417,-3.6593,-3.6744,-3.6719,-3.6883,-3.7211,-3.7274,-3.6769,-3.6518,-3.6505,-3.6443,-3.6417,-3.6417,-3.6417,-3.6417,-3.6417,-3.6417,-3.6417,-3.6417,-3.6417,-3.6417,-3.6417,-3.6417,-3.6417,-3.6417,-3.489,-3.416,-3.3951,-3.383,-3.3789,-3.353,-3.3947,-3.4971,-3.5838,-3.6128,-3.6039,-3.5987,-3.5785,-3.5533,-3.5629,-3.583,-3.5821,-3.6157,-3.6392,-3.6417,-3.6392,-3.6094,-3.5893,-3.5793,-3.5692,-3.5328,-3.5278,-3.5328,-3.5391,-3.5466,-3.5859,-3.622,-3.6424,-3.6436,-3.6462,-3.6396,-3.6093,-3.5907,-3.5665,-3.5481,-3.4958,-3.4392,-3.3814,-3.3781,-3.3551,-3.327,-3.3283,-3.3283,-3.3253,-3.3275,-3.3596,-3.4148,-3.4688,-3.524,-3.5793,-3.6182,-3.6417,-3.6417,-3.6405,-3.6405,-3.6546,-3.6581,-3.6581,-3.6546,-3.6405,-3.6417,-3.6417,-3.6417,-3.6417,-3.6405,-3.6405,-3.6417,-3.6417,-3.6417,-3.6417,-3.6417,-3.6417,-3.6417,-3.6417,-3.6417,-3.6417,-3.6417,-3.6417,-3.6417,-3.6417,-3.6417,-3.6417,-3.6417,-3.6417,-3.6417,-3.6417,-3.6543,-3.6631,-3.6593,-3.6606,-3.6744,-3.6707,-3.6455,-3.6417,-3.6417,-3.6417,-3.6417,-3.6417,-3.6417,-3.6417,-3.6417,-3.6417,-3.6417,-3.6417,-3.6417,-3.6417,-3.6417,-3.6417,-3.6417,-3.6417,-3.6754,-3.6849,-3.6342,-3.5748,-3.5115,-3.4443,-3.4933,-3.6257,-3.6773,-3.6981,-3.7057,-3.6921,-3.6565,-3.6351,-3.6367,-3.6295,-3.627,-3.638,-3.6405,-3.6417,-3.6417,-3.6329,-3.6342,-3.6304,-3.6179,-3.6279,-3.6241,-3.5994,-3.6317,-3.6222,-3.6413,-3.6497,-3.6332,-3.6421,-3.6426,-3.629,-3.5911,-3.5726,-3.5684,-3.5573,-3.518,-3.4673,-3.4249,-3.4072,-3.3795,-3.3469,-3.3381,-3.3275,-3.3199,-3.3325,-3.3589,-3.4098,-3.465,-3.5169,-3.5755,-3.6194,-3.6405,-3.6417,-3.6417,-3.6417,-3.6417,-3.6452,-3.6452,-3.6417,-3.6417,-3.6417,-3.6417,-3.6417,-3.6417,-3.6417,-3.6417,-3.6417,-3.6417,-3.6417,-3.6417,-3.6417,-3.6417,-3.6417,-3.6417,-3.6417,-3.6417,-3.6417,-3.6417,-3.6417,-3.6417,-3.6417,-3.6417,-3.6417,-3.6417,-3.6417,-3.6417,-3.6417,-3.648,-3.6455,-3.648,-3.6543,-3.6518,-3.6417,-3.6417,-3.6417,-3.6417,-3.6417,-3.6417,-3.6417,-3.6417,-3.6417,-3.6417,-3.6417,-3.6417,-3.6417,-3.6417,-3.6417,-3.6417,-3.6417,-3.6417,-3.7466,-3.7373,-3.7241,-3.6743,-3.6174,-3.5965,-3.6097,-3.6379,-3.7007,-3.7284,-3.7095,-3.6909,-3.6675,-3.6405,-3.6417,-3.6417,-3.6417,-3.6417,-3.6417,-3.6417,-3.6417,-3.6417,-3.6417,-3.6417,-3.6417,-3.6417,-3.6417,-3.6417,-3.6439,-3.6487,-3.6581,-3.6586,-3.6459,-3.6514,-3.642,-3.6335,-3.5952,-3.5692,-3.5676,-3.5558,-3.5307,-3.4791,-3.4577,-3.4463,-3.4293,-3.3985,-3.3734,-3.3621,-3.3483,-3.33,-3.33,-3.3596,-3.4123,-3.4675,-3.5278,-3.6279,-3.6417,-3.6417,-3.6417,-3.6417,-3.6417,-3.6417,-3.6417,-3.6417,-3.6417,-3.6417,-3.6417,-3.6417,-3.6417,-3.6417,-3.6417,-3.6417,-3.6417,-3.6417,-3.6417,-3.6417,-3.6417,-3.6417,-3.6417,-3.6417,-3.6417,-3.6417,-3.6417,-3.6417,-3.6417,-3.6417,-3.6417,-3.6417,-3.6417,-3.6417,-3.6417,-3.6417,-3.6417,-3.6417,-3.6417,-3.6468,-3.6443,-3.6417,-3.6417,-3.6417,-3.6417,-3.6417,-3.6417,-3.6417,-3.6417,-3.6417,-3.6417,-3.6417,-3.6417,-3.6417,-3.6417,-3.6417,-3.6417,-3.6417,-3.6417,-3.861,-3.8628,-3.8726,-3.8339,-3.7802,-3.7874,-3.7748,-3.7422,-3.7488,-3.7366,-3.7062,-3.6815,-3.6581,-3.6405,-3.6417,-3.6417,-3.6417,-3.6417,-3.6417,-3.6417,-3.6417,-3.6417,-3.6417,-3.6417,-3.6417,-3.6417,-3.6417,-3.6417,-3.6465,-3.6499,-3.6581,-3.6581,-3.6593,-3.6487,-3.6427,-3.6355,-3.6229,-3.5994,-3.5843,-3.5655,-3.5416,-3.5094,-3.5019,-3.4956,-3.4868,-3.455,-3.4248,-3.4098,-3.3709,-3.3413,-3.3325,-3.3345,-3.396,-3.4613,-3.5353,-3.6279,-3.6417,-3.6417,-3.6417,-3.6417,-3.6417,-3.6417,-3.6417,-3.6417,-3.6417,-3.6417,-3.6417,-3.6417,-3.6417,-3.6417,-3.6417,-3.6417,-3.6417,-3.6417,-3.6417,-3.6417,-3.6417,-3.6417,-3.6417,-3.6417,-3.6417,-3.6417,-3.6417,-3.6417,-3.6417,-3.6417,-3.6417,-3.6417,-3.6417,-3.6417,-3.6417,-3.6417,-3.6417,-3.6417,-3.6417,-3.6417,-3.6417,-3.6417,-3.6417,-3.6417,-3.6417,-3.6417,-3.6417,-3.6417,-3.6417,-3.6417,-3.6417,-3.6417,-3.6417,-3.6417,-3.6417,-3.6417,-3.6417,-3.6417,-3.6417,-4.0041,-4.0275,-4.0532,-4.0134,-3.9713,-3.9727,-3.9448,-3.8939,-3.82,-3.7539,-3.7281,-3.6943,-3.6756,-3.6734,-3.6546,-3.6417,-3.6417,-3.6417,-3.6417,-3.6417,-3.6417,-3.6417,-3.6417,-3.6417,-3.6417,-3.6417,-3.6417,-3.6417,-3.6417,-3.6465,-3.6452,-3.6417,-3.6417,-3.6405,-3.6417,-3.6417,-3.6342,-3.6292,-3.6267,-3.6204,-3.6094,-3.5868,-3.5558,-3.5483,-3.524,-3.4864,-3.4675,-3.4349,-3.3935,-3.3734,-3.3583,-3.3495,-3.4286,-3.4868,-3.5705,-3.6144,-3.6392,-3.6417,-3.6417,-3.6417,-3.6417,-3.6417,-3.6417,-3.6417,-3.6417,-3.6417,-3.6417,-3.6417,-3.6417,-3.6417,-3.6417,-3.6417,-3.6417,-3.6417,-3.6417,-3.6417,-3.6417,-3.6417,-3.6417,-3.6417,-3.6417,-3.6417,-3.6417,-3.6417,-3.6417,-3.6417,-3.6417,-3.6417,-3.6417,-3.6417,-3.6417,-3.6417,-3.6417,-3.6417,-3.6417,-3.6417,-3.6417,-3.6417,-3.6417,-3.6417,-3.6417,-3.6417,-3.6417,-3.6417,-3.6417,-3.6417,-3.6417,-3.6417,-3.6417,-3.6417,-3.6417,-3.6417,-3.6417,-3.6417,-3.6417,-4.1131,-4.156,-4.1084,-4.0873,-4.0774,-4.0215,-4.0085,-4.013,-3.9607,-3.8899,-3.8206,-3.775,-3.7474,-3.7348,-3.6675,-3.6405,-3.6405,-3.6417,-3.6417,-3.6417,-3.6417,-3.6417,-3.6417,-3.6417,-3.6417,-3.6417,-3.6417,-3.6417,-3.6417,-3.6417,-3.6417,-3.6417,-3.6417,-3.6417,-3.6417,-3.6417,-3.6417,-3.6417,-3.6417,-3.6417,-3.6355,-3.6342,-3.6157,-3.6119,-3.594,-3.5629,-3.5341,-3.4793,-3.4336,-3.3947,-3.3809,-3.4223,-3.5069,-3.5357,-3.5805,-3.6279,-3.6417,-3.6417,-3.6417,-3.6417,-3.6417,-3.6417,-3.6417,-3.6417,-3.6417,-3.6417,-3.6417,-3.6417,-3.6417,-3.6417,-3.6417,-3.6417,-3.6417,-3.6417,-3.6417,-3.6417,-3.6417,-3.6417,-3.6417,-3.6417,-3.6417,-3.6417,-3.6417,-3.6417,-3.6417,-3.6417,-3.6417,-3.6417,-3.6417,-3.6417,-3.6417,-3.6417,-3.6417,-3.6417,-3.6417,-3.6417,-3.6417,-3.6417,-3.6417,-3.6417,-3.6417,-3.6417,-3.6417,-3.6417,-3.6417,-3.6417,-3.6417,-3.6417,-3.6417,-3.6417,-3.6417,-3.6417,-3.6417,-3.6417,-3.6417,-4.1758,-4.2036,-4.1689,-4.1646,-4.1798,-4.1381,-4.1226,-4.1212,-4.1239,-4.0774,-3.9738,-3.8734,-3.8102,-3.7919,-3.7036,-3.6581,-3.6581,-3.6452,-3.6417,-3.6417,-3.6465,-3.6417,-3.6417,-3.6417,-3.6417,-3.6417,-3.6417,-3.6417,-3.6417,-3.6417,-3.6417,-3.6417,-3.6417,-3.6417,-3.6417,-3.6417,-3.6417,-3.6417,-3.6417,-3.6417,-3.6417,-3.6417,-3.6417,-3.6417,-3.6342,-3.6132,-3.5906,-3.5416,-3.4956,-3.46,-3.4437,-3.4663,-3.5207,-3.5458,-3.583,-3.6182,-3.6417,-3.6417,-3.6417,-3.6417,-3.6417,-3.6417,-3.6417,-3.6417,-3.6417,-3.6417,-3.6417,-3.6417,-3.6417,-3.6417,-3.6417,-3.6417,-3.6417,-3.6417,-3.6417,-3.6417,-3.6417,-3.6417,-3.6417,-3.6417,-3.6417,-3.6417,-3.6417,-3.6417,-3.6417,-3.6417,-3.6417,-3.6417,-3.6417,-3.6417,-3.6417,-3.6417,-3.6417,-3.6417,-3.6417,-3.6417,-3.6417,-3.6417,-3.6417,-3.6417,-3.6417,-3.6417,-3.6417,-3.6417,-3.6417,-3.6417,-3.6417,-3.6417,-3.6417,-3.6417,-3.6417,-3.6417,-3.6417,-3.6417,-3.6417,-4.2078,-4.2092,-4.2133,-4.2366,-4.2648,-4.2648,-4.247,-4.2278,-4.2699,-4.2537,-4.1659,-3.9869,-3.9019,-3.8405,-3.7441,-3.7163,-3.6989,-3.6956,-3.6781,-3.6687,-3.6687,-3.6593,-3.6465,-3.6417,-3.6417,-3.6417,-3.6417,-3.6417,-3.6417,-3.6417,-3.6417,-3.6417,-3.6417,-3.6417,-3.6417,-3.6417,-3.6417,-3.6417,-3.6417,-3.6417,-3.6417,-3.6417,-3.6417,-3.6417,-3.6417,-3.6417,-3.6194,-3.5906,-3.5533,-3.5307,-3.5019,-3.5245,-3.5529,-3.5793,-3.5956,-3.6317,-3.6417,-3.6417,-3.6417,-3.6417,-3.6417,-3.6417,-3.6417,-3.6417,-3.6417,-3.6417,-3.6417,-3.6417,-3.6417,-3.6417,-3.6417,-3.6417,-3.6417,-3.6417,-3.6417,-3.6417,-3.6417,-3.6417,-3.6417,-3.6417,-3.6417,-3.6417,-3.6417,-3.6417,-3.6417,-3.6417,-3.6417,-3.6417,-3.6417,-3.6417,-3.6417,-3.6417,-3.6417,-3.6417,-3.6417,-3.6417,-3.6417,-3.6417,-3.6417,-3.6417,-3.6417,-3.6417,-3.6417,-3.6417,-3.6417,-3.6417,-3.6417,-3.6417,-3.6417,-3.6417,-3.6417,-3.6417,-3.6417,-3.6417,-3.6417,-4.2092,-4.2133,-4.2298,-4.2459,-4.2688,-4.2688,-4.2809,-4.2996,-4.2981,-4.2955,-4.2659,-4.1949,-4.1085,-4.0417,-3.8432,-3.7887,-3.8315,-3.7887,-3.7579,-3.7533,-3.7361,-3.7002,-3.664,-3.6499,-3.6417,-3.6417,-3.6417,-3.6417,-3.6417,-3.6417,-3.6417,-3.6417,-3.6417,-3.6417,-3.6417,-3.6417,-3.6417,-3.6417,-3.6417,-3.6417,-3.6417,-3.6417,-3.6417,-3.6417,-3.6417,-3.6417,-3.6267,-3.5818,-3.5571,-3.5458,-3.5458,-3.5717,-3.5918,-3.6107,-3.6279,-3.6317,-3.6417,-3.6417,-3.6417,-3.6417,-3.6417,-3.6417,-3.6417,-3.6417,-3.6417,-3.6417,-3.6417,-3.6417,-3.6417,-3.6417,-3.6417,-3.6417,-3.6417,-3.6417,-3.6417,-3.6417,-3.6417,-3.6417,-3.6417,-3.6417,-3.6417,-3.6417,-3.6417,-3.6417,-3.6417,-3.6417,-3.6417,-3.6417,-3.6417,-3.6417,-3.6417,-3.6417,-3.6417,-3.6417,-3.6417,-3.6417,-3.6417,-3.6417,-3.6417,-3.6417,-3.6417,-3.6417,-3.6417,-3.6417,-3.6417,-3.6417,-3.6417,-3.6417,-3.6417,-3.6417,-3.6417,-3.6417,-3.6417,-3.6417,-3.6417]},{"header":{"parameterUnit":"m.s-1","parameterCategory":1,"la1":31.0,"la2":29.5877,"lo1":-88.7671,"lo2":-86.6584,"dx":0.0162,"dy":0.0185,"nx":115,"ny":88,"refTime":"2022-12-31T06:00:00:Z","depth":0,"parameterNumber":3,"parameterNumberName":"V-component_of_WINDS"},"data":[0.0,0.0,0.0,0.0,0.0,0.0,0.0,0.0,0.0,0.0,0.0,0.0,0.0,0.0,0.0,0.0,0.0,0.0,0.0,0.0,0.0,0.0,0.0,0.0,0.0,0.0,0.0,0.0,0.0,0.0,0.0,0.0,0.0,0.0,0.0,0.0,0.0,0.0,0.0,0.0,0.0,0.0,0.0,0.0,0.0,0.0,0.0,0.0,0.0,0.0,0.0,0.0,0.0,0.0,0.0,0.0,0.0,0.0,0.0,0.0,0.0,0.0,0.0,0.0,0.0,0.0,0.0,0.0,0.0,0.0,0.0,0.0,0.0,0.0,0.0,0.0,0.0,0.0,0.0,0.0,0.0,0.0,0.0,0.0,0.0,0.0,0.0,0.0,0.0,0.0,0.0,0.0,0.0,0.0,0.0,0.0,0.0,0.0,0.0,0.0,0.0,0.0,0.0,0.0,0.0,0.0,0.0,0.0,0.0,0.0,0.0,0.0,0.0,0.0,0.0,0.0,0.0,0.0,0.0,0.0,0.0,0.0,0.0,0.0,0.0,0.0,0.0,0.0,0.0,0.0,0.0,0.0,0.0,0.0,0.0,0.0,0.0,0.0,0.0,0.0,0.0,0.0,0.0,0.0,0.0,0.0,0.0,0.0,0.0,0.0,0.0,0.0,0.0,0.0,0.0,0.0,0.0,0.0,0.0,0.0,0.0,0.0,0.0,0.0,0.0,0.0,0.0,0.0,0.0,0.0,0.0,0.0,0.0,0.0,0.0,0.0,0.0,0.0,0.0,0.0,0.0,0.0,0.0,0.0,0.0,0.0,0.0,0.0,0.0,0.0,0.0,0.0,0.0,0.0,0.0,0.0,0.0,0.0,0.0,0.0,0.0,0.0,0.0,0.0,0.0,0.0,0.0,0.0,0.0,0.0,0.0,0.0,0.0,0.0,0.0,0.0,0.0,0.0,0.0,0.0,0.0,0.0,0.0,0.0,0.0,0.0,0.0,0.0,0.0,0.0,0.0,0.0,0.0,0.0,0.0,0.0,0.0,0.0,0.0,0.0,0.0,0.0,0.0,0.0,0.0,0.0,0.0,0.0,0.0,0.0,0.0,0.0,0.0,0.0,0.0,0.0,0.0,0.0,0.0,0.0,0.0,0.0,0.0,0.0,0.0,0.0,0.0,0.0,0.0,0.0,0.0,0.0,0.0,0.0,0.0,0.0,0.0,0.0,0.0,0.0,0.0,0.0,0.0,0.0,0.0,0.0,0.0,0.0,0.0,0.0,0.0,0.0,0.0,0.0,0.0,0.0,0.0,0.0,0.0,0.0,0.0,0.0,0.0,0.0,0.0,0.0,0.0,0.0,0.0,0.0,0.0,0.0,0.0,0.0,0.0,0.0,0.0,0.0,0.0,0.0,0.0,0.0,0.0,0.0,0.0,0.0,0.0,0.0,0.0,0.0,0.0,0.0,0.0,0.0,0.0,0.0,0.0,0.0,0.0,0.0,0.0,0.0,0.0,0.0,0.0,0.0,0.0,0.0,0.0,0.0,0.0,0.0,0.0,0.0,0.0,0.0,0.0,0.0,0.0,0.0,0.0,0.0,0.0,0.0,0.0,0.0,0.0,0.0,0.0,0.0,0.0,0.0,0.0,0.0,0.0,0.0,0.0,0.0,0.0,0.0,0.0,0.0,0.0,0.0,0.0,0.0,0.0,0.0,0.0,0.0,0.0,0.0,0.0,0.0,0.0,0.0,0.0,0.0,0.0,0.0,0.0,0.0,0.0,0.0,0.0,0.0,0.0,0.0,0.0,0.0,0.0,0.0,0.0,0.0,0.0,0.0,0.0,0.0,0.0,0.0,0.0,0.0,0.0,0.0,0.0,0.0,0.0,0.0,0.0,0.0,0.0,0.0,0.0,0.0,0.0,0.0,0.0,0.0,0.0,0.0,0.0,0.0,0.0,0.0,0.0,0.0,0.0,0.0,0.0,0.0,0.0,0.0,0.0,0.0,0.0,0.0,0.0,0.0,0.0,0.0,0.0,0.0,0.0,0.0,0.0,0.0,0.0,0.0,0.0,0.0,0.0,0.0,0.0,0.0,0.0,0.0,0.0,0.0,0.0,0.0,0.0,0.0,0.0,0.0,0.0,0.0,0.0,0.0,0.0,0.0,0.0,0.0,0.0,0.0,0.0,0.0,0.0,0.0,0.0,0.0,0.0,0.0,0.0,0.0,0.0,0.0,0.0,0.0,0.0,0.0,0.0,0.0,0.0,0.0,0.0,0.0,0.0,0.0,0.0,0.0,0.0,0.0,0.0,0.0,0.0,0.0,0.0,0.0,0.0,0.0,0.0,0.0,0.0,0.0,0.0,0.0,0.0,0.0,0.0,0.0,0.0,0.0,0.0,0.0,0.0,0.0,0.0,0.0,0.0,0.0,0.0,0.0,0.0,0.0,0.0,0.0,0.0,0.0,0.0,0.0,0.0,0.0,0.0,0.0,0.0,0.0,0.0,0.0,0.0,0.0,0.0,0.0,0.0,0.0,0.0,0.0,0.0,0.0,0.0,0.0,0.0,0.0,0.0,0.0,0.0,0.0,0.0,0.0,0.0,0.0,0.0,0.0,0.0,0.0,0.0,0.0,0.0,0.0,0.0,0.0,0.0,0.0,0.0,0.0,0.0,0.0,0.0,0.0,0.0,0.0,0.0,0.0,0.0,0.0,0.0,0.0,0.0,0.0,0.0,0.0,0.0,0.0,0.0,0.0,0.0,0.0,0.0,0.0,0.0,0.0,0.0,0.0,0.0,0.0,0.0,0.0,0.0,0.0,0.0,0.0,0.0,0.0,0.0,0.0,0.0,0.0,0.0,0.0,0.0,0.0,0.0,0.0,0.0,0.0,0.0,0.0,0.0,0.0,0.0,0.0,0.0,0.0,0.0,0.0,0.0,0.0,0.0,0.0,0.0,0.0,0.0,0.0,0.0,0.0,0.0,0.0,0.0,0.0,0.0,0.0,0.0,0.0,0.0,0.0,0.0,0.0,0.0,0.0,0.0,0.0,0.0,0.0,0.0,0.0,0.0,0.0,0.0,0.0,0.0,0.0,0.0,0.0,0.0,0.0,0.0,0.0,0.0,0.0,0.0,0.0,0.0,0.0,0.0,0.0,0.0,0.0,0.0,0.0,0.0,0.0,0.0,0.0,0.0,0.0,0.0,0.0,0.0,0.0,0.0,0.0,0.0,0.0,0.0,0.0,0.0,0.0,0.0,0.0,0.0,0.0,0.0,0.0,0.0,0.0,0.0,0.0,0.0,0.0,0.0,0.0,0.0,0.0,0.0,0.0,0.0,0.0,0.0,0.0,0.0,0.0,0.0,0.0,0.0,0.0,0.0,0.0,0.0,0.0,0.0,0.0,0.0,0.0,0.0,0.0,0.0,0.0,0.0,0.0,0.0,0.0,0.0,0.0,0.0,0.0,0.0,0.0,0.0,0.0,0.0,0.0,0.0,0.0,0.0,0.0,0.0,0.0,0.0,0.0,0.0,0.0,0.0,0.0,0.0,0.0,0.0,0.0,0.0,0.0,0.0,0.0,0.0,0.0,0.0,0.0,0.0,0.0,0.0,0.0,0.0,0.0,0.0,0.0,0.0,0.0,0.0,0.0,0.0,0.0,0.0,0.0,0.0,0.0,0.0,0.0,0.0,0.0,0.0,0.0,0.0,0.0,0.0,0.0,0.0,0.0,0.0,0.0,0.0,0.0,0.0,0.0,0.0,0.0,0.0,0.0,0.0,0.0,0.0,0.0,0.0,0.0,0.0,0.0,0.0,0.0,0.0,0.0,0.0,0.0,0.0,0.0,0.0,0.0,0.0,0.0,0.0,0.0,0.0,0.0,0.0,0.0,0.0,0.0,0.0,0.0,0.0,0.0,0.0,0.0,0.0,0.0,0.0,0.0,0.0,0.0,0.0,0.0,0.0,0.0,0.0,0.0,0.0,0.0,0.0,0.0,0.0,0.0,0.0,0.0,0.0,0.0,0.0,0.0,0.0,0.0,0.0,0.0,0.0,0.0,0.0,0.0,0.0,0.0,0.0,0.0,0.0,0.0,0.0,0.0,0.0,0.0,0.0,0.0,0.0,0.0,0.0,0.0,0.0,0.0,0.0,0.0,0.0,0.0,0.0,0.0,0.0,0.0,0.0,0.0,0.0,0.0,0.0,0.0,0.0,0.0,0.0,0.0,0.0,0.0,0.0,0.0,0.0,0.0,0.7947,0.0,0.0,0.0,0.7518,0.0,0.0,0.0,0.0,0.0,0.0,0.0,0.0,0.0,0.0,0.0,0.0,0.0,0.0,0.0,0.0,0.0,0.0,0.0,0.0,0.0,0.0,0.0,0.0,0.0,0.0,0.0,0.0,0.0,0.0,0.0,0.0,0.0,0.0,0.0,0.0,0.0,0.0,0.0,0.0,0.0,0.0,0.0,0.0,0.0,0.0,0.0,0.0,0.0,0.0,0.0,0.0,0.0,0.0,0.0,0.0,0.0,0.0,0.0,0.0,0.0,0.0,0.0,0.0,0.0,0.0,0.0,0.0,0.0,0.0,0.0,0.0,0.0,0.0,0.0,0.0,0.0,0.0,0.0,0.0,0.0,0.0,0.0,0.0,0.0,0.0,0.0,0.0,0.0,0.0,0.0,0.0,0.0,0.0,0.0,0.0,0.0,0.0,0.0,0.0,0.0,0.0,0.0,0.0,0.0,0.0,0.0,0.0,0.0,0.0,0.8158,0.7227,0.8901,0.9028,0.7305,0.0,0.0,0.0,0.0,0.0,0.0,0.0,0.0,0.0,0.0,0.0,0.0,0.0,0.0,0.0,0.0,0.0,0.0,0.0,0.0,0.0,0.0,0.0,0.0,0.0,0.0,0.0,0.0,0.0,0.0,0.0,0.0,0.0,0.0,0.0,0.0,0.0,0.0,0.0,0.0,0.0,0.0,0.0,0.0,0.0,0.0,0.0,0.0,0.0,0.0,0.0,0.0,0.0,0.0,0.0,0.0,0.0,0.0,0.0,0.0,0.0,0.0,0.0,0.0,0.0,0.0,0.0,0.0,0.0,0.0,0.0,0.0,0.0,0.0,0.0,0.0,0.0,0.0,0.0,0.0,0.0,0.0,0.0,0.0,0.0,0.0,0.0,0.0,0.0,0.0,0.0,0.0,0.0,0.0,0.0,0.0,0.0,0.0,0.0,0.0,0.0,0.0,0.0,0.0,0.0,0.0,0.0,0.0,0.0,0.0,0.0,0.0,0.9482,0.9638,0.7879,0.0,0.0,0.0,0.0,0.0,0.0,0.0,0.0,0.0,0.0,0.0,0.0,0.0,0.0,0.0,0.0,0.0,0.0,0.0,0.0,0.0,0.0,0.0,0.0,0.0,0.0,0.0,0.0,0.0,0.0,0.0,0.0,0.0,0.0,0.0,0.0,0.0,0.0,0.0,0.0,0.0,0.0,0.0,0.0,0.0,0.0,0.0,0.0,0.0,0.0,0.0,0.0,0.0,0.0,0.0,0.0,0.0,0.0,0.0,0.0,0.0,0.0,0.0,0.0,0.0,0.0,0.0,0.0,0.0,0.0,0.0,0.0,0.0,0.0,0.0,0.0,0.0,0.0,0.0,0.0,0.0,0.0,0.0,0.0,0.0,0.0,0.0,0.0,0.0,0.0,0.0,0.0,0.0,0.0,0.0,0.0,0.0,0.0,0.0,0.0,0.0,0.0,0.0,0.0,0.0,0.0,0.0,0.0,0.0,0.0,0.7796,0.8894,0.9142,0.0,0.9436,0.0,0.0,0.0,0.0,0.0,0.0,0.0,0.0,0.0,0.0,0.0,0.0,0.0,0.0,0.0,0.0,0.0,0.0,0.0,0.0,0.0,0.0,0.0,0.0,0.0,0.0,0.0,0.0,0.0,0.0,0.0,0.0,0.0,0.0,0.0,0.0,0.0,0.0,0.0,0.0,0.0,0.0,0.0,0.0,0.0,0.0,0.0,0.0,0.0,0.0,0.0,0.0,0.0,0.0,0.0,0.0,0.0,0.0,0.0,0.0,0.0,0.0,0.0,0.0,0.0,0.0,0.0,0.0,0.0,0.0,0.0,0.0,0.0,0.0,0.0,0.0,0.0,0.0,0.0,0.0,0.0,0.0,0.0,0.0,0.0,0.0,0.0,0.0,0.0,0.0,0.0,0.0,0.0,0.0,0.0,0.0,0.0,0.0,0.0,0.0,0.0,0.0,0.0,0.0,0.0,0.0,0.0,0.0,0.0,0.0,0.83,0.9078,0.9087,0.906,0.0,0.0,0.0,0.0,0.0,0.0,0.0,0.0,0.0,0.0,0.0,0.0,0.0,0.0,0.0,0.0,0.0,0.0,0.0,0.0,0.0,0.0,0.0,0.0,0.0,0.0,0.0,0.0,0.0,0.0,0.0,0.0,0.0,0.0,0.0,0.0,0.0,0.0,0.0,0.0,0.0,0.0,0.0,0.0,0.0,0.0,0.0,0.0,0.0,0.0,0.0,0.0,0.0,0.0,0.0,0.0,0.0,0.0,0.0,0.0,0.0,0.0,0.0,0.0,0.0,0.0,0.0,0.0,0.0,0.0,0.0,0.0,0.0,0.0,0.0,0.0,0.0,0.0,0.0,0.0,0.0,0.0,0.0,0.0,0.0,0.0,0.0,0.0,0.0,0.0,0.0,0.0,0.0,0.0,0.0,0.0,0.0,0.0,0.0,0.0,0.0,0.0,0.0,0.0,0.0,0.0,0.0,0.0,0.0,0.0,0.8535,0.8958,0.9538,0.9382,0.9097,0.8691,0.0,0.0,0.0,0.0,0.0,0.0,0.0,0.0,0.0,0.0,0.0,0.0,0.0,0.0,0.0,0.0,0.0,0.0,0.0,0.0,0.0,0.0,0.0,0.0,0.0,0.0,0.0,0.0,0.0,0.0,0.0,0.0,0.0,0.0,0.0,0.0,0.0,0.0,0.0,0.0,0.0,0.0,0.0,0.0,0.0,0.0,0.0,0.0,0.0,0.0,0.0,0.0,0.0,0.0,0.0,0.0,0.0,0.0,0.0,0.0,0.0,0.0,0.0,0.0,0.0,0.0,0.0,0.0,0.0,0.0,0.0,0.0,0.0,0.0,0.0,0.0,0.0,0.0,0.0,0.0,0.0,0.0,0.0,0.0,0.0,0.0,0.0,0.0,0.0,0.0,0.0,0.0,0.0,0.0,0.0,0.0,0.0,0.0,0.0,0.0,0.0,0.0,0.0,0.0,0.0,0.0,0.0,0.0,1.0533,0.9612,0.9641,1.0745,1.0091,0.9521,0.0,0.0,0.0,0.0,0.0,0.0,0.0,0.0,0.0,0.0,0.0,0.0,0.0,0.0,0.0,0.0,0.0,0.0,0.0,0.0,0.0,0.0,0.0,0.0,0.0,0.0,0.0,0.0,0.0,0.0,0.0,0.0,0.0,0.0,0.0,0.0,0.0,0.0,0.0,0.0,0.0,0.0,0.0,0.0,0.0,0.0,0.0,0.0,0.0,0.0,0.0,0.0,0.0,0.0,0.0,0.0,0.0,0.0,0.0,0.0,0.0,0.0,0.0,0.0,0.0,0.0,0.0,0.0,0.0,0.0,0.0,0.0,0.0,0.0,0.0,0.0,0.0,0.0,0.0,0.0,0.0,0.0,0.0,0.0,0.0,0.0,0.0,0.0,0.0,0.0,0.0,0.0,0.0,0.0,0.0,0.0,0.0,0.0,0.0,0.0,0.0,0.0,0.0,0.0,0.0,0.0,0.0,0.0,0.0,0.8623,0.8939,0.9805,1.1164,1.0017,0.959,0.0,0.0,0.0,0.0,0.0,0.0,0.0,0.0,0.0,0.0,0.0,0.0,0.0,0.0,0.0,0.0,0.0,0.0,0.0,0.0,0.0,0.0,0.0,0.0,0.0,0.0,0.0,0.0,0.0,0.0,0.0,0.0,0.0,0.0,0.0,0.0,0.0,0.0,0.0,0.0,0.0,0.0,0.0,0.0,0.0,0.0,0.0,0.0,0.0,0.0,0.0,0.0,0.0,0.0,0.0,0.0,0.0,0.0,0.0,0.0,0.0,0.0,0.0,0.0,0.0,0.0,0.0,0.0,0.0,0.0,0.0,0.0,0.0,0.0,0.0,0.0,0.0,0.0,0.0,0.0,0.0,0.0,0.0,0.0,0.0,0.0,0.0,0.0,0.0,0.0,0.0,0.0,0.0,0.0,0.0,0.0,0.0,0.0,0.0,0.0,0.0,0.0,0.0,0.0,0.0,0.0,0.0,0.0,0.0,0.8582,0.9728,1.0681,1.1265,1.0169,0.9591,0.0,0.0,0.0,0.0,0.0,0.0,0.0,0.0,0.0,0.0,0.0,0.0,0.0,0.0,0.0,0.0,0.0,0.0,0.0,0.0,0.0,0.0,0.0,0.0,0.0,0.0,0.0,0.0,0.0,0.0,0.0,0.0,0.0,0.0,0.0,0.0,0.0,0.0,0.0,0.0,0.0,0.0,0.0,0.0,0.0,0.0,0.0,0.0,0.0,0.0,0.0,0.0,0.0,0.0,0.0,0.0,0.0,0.0,0.0,0.0,0.0,0.0,0.0,0.0,0.0,0.0,0.0,0.0,0.0,0.0,0.0,0.0,0.0,0.0,0.0,0.0,0.0,0.0,0.0,0.0,0.0,0.0,0.0,0.0,0.0,0.0,0.0,0.0,0.0,0.0,0.0,0.0,0.0,0.0,0.0,0.0,0.0,0.0,0.0,0.0,0.0,0.0,0.0,0.0,0.0,0.0,0.0,0.0,0.8635,1.0954,1.2194,1.2231,1.1157,1.0639,0.9516,0.0,0.0,0.0,0.0,0.0,0.0,0.0,0.0,0.0,0.0,0.0,0.0,0.0,0.0,0.0,0.0,0.0,0.0,0.0,0.0,0.0,0.0,0.0,0.0,0.0,0.0,0.0,0.0,0.0,0.0,0.0,0.0,0.0,0.0,0.0,0.0,0.0,0.0,0.0,0.0,0.0,0.0,0.0,0.0,0.0,0.0,0.0,0.0,0.0,0.0,0.0,0.0,0.0,0.0,0.0,0.0,0.0,0.0,0.0,0.0,0.0,0.0,0.0,0.0,0.0,0.0,0.0,0.0,0.0,0.0,0.0,0.0,0.0,0.0,0.0,0.0,0.0,0.0,0.0,0.0,0.0,0.0,0.0,0.0,0.0,0.0,0.0,0.0,0.0,0.0,0.0,0.0,0.0,0.0,0.0,0.0,0.0,0.0,0.0,0.0,0.0,0.0,0.0,0.0,0.0,0.0,0.0,0.0,0.0,0.9632,1.1675,1.2564,1.2108,1.0905,1.0526,0.0,0.0,0.0,0.0,0.0,0.0,0.0,0.0,0.0,0.0,0.0,0.0,0.0,0.0,0.0,0.0,0.0,0.0,0.0,0.0,0.0,0.0,0.0,0.0,0.0,0.0,0.0,0.0,0.0,0.0,0.0,0.0,0.0,0.0,0.0,0.0,0.0,0.0,0.0,0.0,0.0,0.0,0.0,0.0,0.0,0.0,0.0,0.0,0.0,0.0,0.0,0.0,0.0,0.0,0.0,0.0,0.0,0.0,0.0,0.0,0.0,0.0,0.0,0.0,0.0,0.0,0.0,0.0,0.0,0.0,0.0,0.0,0.0,0.0,0.0,0.0,0.0,0.0,0.0,0.0,0.0,0.0,0.0,0.0,0.0,0.0,0.0,0.0,0.0,0.0,0.0,0.0,0.0,0.0,0.0,0.0,0.0,0.0,0.0,0.0,0.0,0.0,0.0,0.0,0.0,0.0,0.0,0.0,0.0,1.1741,1.3248,1.3936,1.3585,1.1861,1.126,1.194,0.0,0.0,0.0,0.0,0.0,0.0,0.0,0.0,0.0,0.0,0.0,0.0,0.0,0.0,0.0,0.0,0.0,0.0,0.0,0.0,0.0,0.0,0.0,0.0,0.0,0.0,0.0,0.0,0.0,0.0,0.0,0.0,0.0,0.0,0.0,0.0,0.0,0.0,0.0,0.0,0.0,0.0,0.0,0.0,0.0,0.0,0.0,0.0,0.0,0.0,0.0,0.0,0.0,0.0,0.0,0.0,0.0,0.0,0.0,0.0,0.0,0.0,0.0,0.0,0.0,0.0,0.0,0.0,0.0,0.0,0.0,0.0,0.0,0.0,0.0,0.0,0.0,0.0,0.0,0.0,0.0,0.0,0.0,0.0,0.0,0.0,0.0,0.0,0.0,0.0,0.0,0.0,0.0,0.0,0.0,0.0,0.0,0.0,0.0,0.0,0.0,0.0,0.0,0.0,0.0,0.0,0.0,0.0,1.6268,1.6557,1.6277,1.5315,1.334,1.1886,0.0,0.0,0.0,0.0,0.0,0.0,0.0,0.0,0.0,0.0,0.0,0.0,0.0,0.0,0.0,0.0,0.0,0.0,0.0,0.0,0.0,0.0,0.0,0.0,0.0,0.0,0.0,0.0,0.0,0.0,0.0,0.0,0.0,0.0,0.0,0.0,0.0,0.0,0.0,0.0,0.0,0.0,0.0,0.0,0.0,0.0,0.0,0.0,0.0,0.0,0.0,0.0,0.0,0.0,0.0,0.0,0.0,0.0,0.0,0.0,0.0,0.0,0.0,0.0,0.0,0.0,0.0,0.0,0.0,0.0,0.0,0.0,0.0,0.0,0.0,0.0,0.0,0.0,0.0,0.0,0.0,0.0,0.0,0.0,0.0,0.0,0.0,0.0,0.0,0.0,0.0,0.0,0.0,0.0,0.0,0.0,0.0,0.0,0.0,0.0,0.0,0.0,0.0,0.0,0.0,0.0,0.0,0.0,0.0,1.7336,1.8582,1.8473,1.6903,1.4586,1.3216,0.0,0.0,0.0,0.0,0.0,0.0,0.0,0.0,0.0,0.0,0.0,0.0,0.0,0.0,0.0,0.0,0.0,0.0,0.0,0.0,0.0,0.0,0.0,0.0,0.0,0.0,0.0,0.0,0.0,0.0,0.0,0.0,0.0,0.0,0.0,0.0,0.0,0.0,0.0,0.0,0.0,0.0,0.0,0.0,0.0,0.0,0.0,0.0,0.0,0.0,0.0,0.0,0.0,0.0,0.0,0.0,0.0,0.0,0.0,0.0,0.0,0.0,0.0,0.0,0.0,0.0,0.0,0.0,0.0,0.0,0.0,0.0,0.0,0.0,0.0,0.0,0.0,0.0,0.0,0.0,0.0,0.0,0.0,0.0,0.0,0.0,0.0,0.0,0.0,0.0,0.0,0.0,0.0,0.0,0.0,0.0,0.0,0.0,0.0,0.0,0.0,0.0,0.0,0.0,0.0,0.0,0.0,0.0,1.6619,1.9567,2.0344,2.0203,1.9152,1.6785,1.515,0.0,0.0,0.0,0.0,0.0,0.0,0.0,0.0,0.0,0.0,0.0,0.0,0.0,0.0,0.0,0.0,0.0,0.0,0.0,0.0,0.0,0.0,0.0,0.0,0.0,0.0,0.0,0.0,0.0,0.0,0.0,0.0,0.0,0.0,0.0,0.0,0.0,0.0,0.0,0.0,0.0,0.0,0.0,0.0,0.0,0.0,0.0,0.0,0.0,0.0,0.0,0.0,0.0,0.0,0.0,0.0,0.0,0.0,0.0,0.0,0.0,0.0,0.0,0.0,0.0,0.0,0.0,0.0,0.0,0.0,0.0,0.0,0.0,0.0,0.0,0.0,0.0,0.0,0.0,0.0,0.0,0.0,0.0,0.0,0.0,0.0,0.0,0.0,0.0,0.0,0.0,0.0,0.0,0.0,0.0,0.0,0.0,0.0,0.0,0.0,0.0,0.0,0.0,0.0,0.0,0.0,0.0,0.0,1.8213,2.2089,2.1728,2.1488,2.1398,1.9266,1.7171,0.0,0.0,0.0,0.0,0.0,0.0,0.0,0.0,0.0,0.0,0.0,0.0,0.0,0.0,0.0,0.0,0.0,0.0,0.0,0.0,0.0,0.0,0.0,0.0,0.0,0.0,0.0,0.0,0.0,0.0,0.0,0.0,0.0,0.0,0.0,0.0,0.0,0.0,0.0,0.0,0.0,0.0,0.0,0.0,0.0,0.0,0.0,0.0,0.0,0.0,0.0,0.0,0.0,0.0,0.0,0.0,0.0,0.0,0.0,0.0,0.0,0.0,0.0,0.0,0.0,0.0,0.0,0.0,0.0,0.0,0.0,0.0,0.0,0.0,0.0,0.0,0.0,0.0,0.0,0.0,0.0,0.0,0.0,0.0,0.0,0.0,0.0,0.0,0.0,0.0,0.0,0.0,0.0,0.0,0.0,0.0,0.0,0.0,0.0,0.0,0.0,0.0,0.0,0.0,0.0,0.0,0.0,0.0,1.9602,2.2089,2.2077,2.2029,2.2017,1.9661,1.7593,0.0,0.0,0.0,0.0,0.0,0.0,0.0,0.0,0.0,0.0,0.0,0.0,0.0,0.0,0.0,0.0,0.0,0.0,0.0,0.0,0.0,0.0,0.0,0.0,0.0,0.0,0.0,0.0,0.0,0.0,0.0,0.0,0.0,0.0,0.0,0.0,0.0,0.0,0.0,0.0,0.0,0.0,0.0,0.0,0.0,0.0,0.0,0.0,1.1548,0.0,0.0,0.0,0.0,0.0,0.0,0.0,0.0,0.0,0.0,0.0,0.0,0.0,0.0,0.0,0.0,0.0,0.0,0.0,0.0,0.0,0.0,0.0,0.0,0.0,0.0,0.0,0.0,0.0,0.0,0.0,0.0,0.0,0.0,0.0,0.0,0.0,0.0,0.0,0.0,0.0,0.0,0.0,0.0,0.0,0.0,0.0,0.0,0.0,0.0,0.0,0.0,0.0,0.0,0.0,0.0,0.0,0.0,0.0,2.0033,2.2101,2.2197,2.2216,2.2249,2.1104,1.9219,0.0,0.0,0.0,0.0,0.0,0.0,0.0,0.0,0.0,0.0,0.0,0.0,0.0,0.0,0.0,0.0,0.0,0.0,0.0,0.0,0.0,0.0,0.0,0.0,0.0,0.0,0.0,0.0,0.0,0.0,0.0,0.0,0.0,0.0,0.0,0.0,0.0,0.0,0.0,0.0,0.0,0.0,0.0,0.0,0.0,0.0,0.0,0.0,0.0,0.0,0.0,0.0,0.0,0.0,0.0,0.0,0.0,0.0,0.0,0.0,0.0,0.0,0.0,0.0,0.0,0.0,0.0,0.0,0.0,0.0,0.0,0.0,0.0,0.0,0.0,0.0,0.0,0.0,0.0,0.0,0.0,0.0,0.0,0.0,0.0,0.0,0.0,0.0,0.0,0.0,0.0,0.0,0.0,0.0,0.0,0.0,0.0,0.0,0.0,0.0,0.0,0.0,0.0,0.0,0.0,0.0,0.0,1.8085,2.0033,2.2089,2.2197,2.2278,2.2389,2.2586,2.0867,1.7114,0.0,0.0,0.0,0.0,0.0,0.0,0.0,0.0,0.0,0.0,0.0,0.0,0.0,0.0,0.0,0.0,0.0,0.0,0.0,0.0,0.0,0.0,0.0,0.0,0.0,0.0,0.0,0.0,0.0,0.0,0.0,0.0,0.0,0.0,0.0,0.0,0.0,0.0,1.1899,1.383,0.0,0.0,0.0,0.0,0.0,0.0,0.0,0.0,1.2934,0.0,0.0,0.0,0.0,0.0,0.0,0.0,0.0,0.0,0.0,0.0,0.0,0.0,0.0,0.0,0.0,0.0,0.0,0.0,0.0,0.0,0.0,0.0,0.0,0.0,0.0,0.0,0.0,0.0,0.0,0.0,0.0,0.0,0.0,0.0,0.0,0.0,0.0,0.0,0.0,0.0,0.0,0.0,0.0,0.0,0.0,0.0,0.0,0.0,0.0,0.0,0.0,0.0,0.0,0.0,0.0,1.8422,1.8819,2.0033,2.2125,2.2197,2.2278,2.2389,2.2616,2.0923,1.7314,0.0,0.0,0.0,0.0,0.0,0.0,0.0,0.0,0.0,0.0,0.0,0.0,0.0,0.0,0.0,0.0,0.0,0.0,0.0,0.0,0.0,0.0,0.0,0.0,0.0,0.0,0.0,0.0,0.0,0.0,0.0,0.0,0.0,0.0,0.0,0.0,0.0,0.0,0.0,1.5442,1.6199,0.0,0.0,0.0,0.0,0.0,0.0,0.0,0.0,1.3002,0.0,0.0,0.0,0.0,0.0,0.0,0.0,0.0,0.0,0.0,0.0,0.0,0.0,0.0,0.0,0.0,0.0,0.0,0.0,0.0,0.0,0.0,0.0,0.0,0.0,0.0,0.0,0.0,0.0,0.0,0.0,0.0,0.0,0.0,0.0,0.0,0.0,0.0,0.0,0.0,0.0,0.0,0.0,0.0,0.0,0.0,0.0,0.0,0.0,0.0,0.0,0.0,0.0,0.0,0.0,1.7388,1.9625,2.1257,2.2273,2.2402,2.2512,2.2665,2.2769,2.0915,0.0,0.0,0.0,0.0,0.0,0.0,0.0,0.0,0.0,0.0,0.0,0.0,0.0,0.0,0.0,0.0,0.0,0.0,0.0,0.0,0.0,0.0,0.0,0.0,0.0,0.0,0.0,0.0,0.0,0.0,0.0,0.0,0.0,0.0,0.0,0.0,0.0,0.0,0.0,0.0,1.6258,1.7174,1.7716,0.0,0.0,0.0,0.0,0.0,0.0,1.4343,1.3539,0.0,0.0,0.0,0.0,0.0,0.0,0.0,0.0,0.0,0.0,0.0,0.0,0.0,0.0,0.0,0.0,0.0,0.0,0.0,0.0,0.0,0.0,0.0,0.0,0.0,0.0,0.0,0.0,0.0,0.0,0.0,0.0,0.0,0.0,0.0,0.0,0.0,0.0,0.0,0.0,0.0,0.0,0.0,0.0,0.0,0.0,0.0,0.0,0.0,0.0,0.0,0.0,0.0,0.0,0.0,1.6235,1.9976,2.2232,2.2731,2.2947,2.3102,2.3213,2.3102,2.1036,0.0,0.0,0.0,0.0,0.0,0.0,0.0,0.0,0.0,0.0,0.0,0.0,0.0,0.0,0.0,0.0,0.0,0.0,0.0,0.0,0.0,0.0,0.0,0.0,0.0,0.0,0.0,0.0,0.0,0.0,0.0,0.0,0.0,0.0,0.0,0.0,0.0,0.0,0.0,0.0,0.0,1.8003,1.8707,1.7237,0.0,0.0,0.0,0.0,1.6396,1.5713,0.0,0.0,0.0,0.0,0.0,0.0,0.0,0.0,0.0,0.0,0.0,0.0,0.0,0.0,0.0,0.0,0.0,0.0,0.0,0.0,0.0,0.0,0.0,0.0,0.0,0.0,0.0,0.0,0.0,0.0,0.0,0.0,0.0,0.0,0.0,0.0,0.0,0.0,0.0,0.0,0.0,0.0,0.0,0.0,0.0,0.0,0.0,0.0,0.0,0.0,0.0,0.0,0.0,0.0,0.0,0.0,1.6878,1.9273,2.1699,2.3948,2.4103,2.4213,2.4375,2.3903,2.1608,0.0,0.0,0.0,0.0,0.0,0.0,0.0,0.0,0.0,0.0,0.0,0.0,0.0,0.0,0.0,0.0,0.0,0.0,0.0,0.0,0.0,0.0,0.0,0.0,0.0,0.0,0.0,0.0,0.0,0.0,0.0,0.0,0.0,0.0,0.0,0.0,0.0,0.0,0.0,0.0,0.0,1.8682,1.8331,1.7664,1.7549,0.0,0.0,1.7637,1.9095,1.882,0.0,0.0,0.0,0.0,0.0,0.0,0.0,0.0,0.0,0.0,0.0,0.0,0.0,0.0,0.0,0.0,0.0,0.0,0.0,0.0,0.0,0.0,0.0,0.0,0.0,0.0,0.0,0.0,0.0,0.0,0.0,0.0,0.0,0.0,0.0,0.0,0.0,0.0,0.0,0.0,0.0,0.0,0.0,0.0,0.0,0.0,0.0,0.0,0.0,0.0,0.0,0.0,0.0,0.0,0.0,1.5925,1.7142,2.0801,2.3306,2.4414,2.4561,2.4638,2.4703,2.4453,2.2135,0.0,0.0,0.0,0.0,0.0,0.0,0.0,0.0,0.0,0.0,0.0,0.0,0.0,0.0,0.0,0.0,0.0,0.0,0.0,0.0,0.0,0.0,0.0,0.0,0.0,0.0,0.0,0.0,0.0,0.0,0.0,0.0,0.0,0.0,0.0,0.0,0.0,0.0,0.0,0.0,0.0,0.0,1.9962,1.907,0.0,0.0,0.0,1.9007,1.9698,0.0,0.0,0.0,0.0,0.0,0.0,0.0,0.0,0.0,0.0,0.0,0.0,0.0,0.0,0.0,0.0,0.0,0.0,0.0,0.0,0.0,0.0,0.0,0.0,0.0,0.0,0.0,0.0,0.0,0.0,0.0,0.0,0.0,0.0,0.0,0.0,0.0,0.0,0.0,0.0,0.0,0.0,0.0,0.0,0.0,0.0,0.0,0.0,0.0,0.0,0.0,0.0,0.0,0.0,0.0,0.0,0.0,1.7444,2.2322,2.4933,2.507,2.5169,2.5234,2.5234,2.5096,0.0,0.0,0.0,0.0,0.0,0.0,0.0,0.0,0.0,0.0,0.0,0.0,0.0,0.0,0.0,0.0,0.0,0.0,0.0,0.0,0.0,0.0,0.0,0.0,0.0,0.0,0.0,0.7861,0.0,0.0,0.0,0.0,0.0,0.0,0.0,0.0,0.0,0.0,0.0,0.0,0.0,0.0,1.9396,2.1081,2.0464,2.0362,0.0,0.0,2.0713,2.1016,2.1066,2.0363,0.0,0.0,0.0,0.0,0.0,0.0,0.0,0.0,0.0,0.0,0.0,0.0,0.0,0.0,0.0,0.0,0.0,0.0,0.0,0.0,0.0,0.0,0.0,0.0,0.0,0.0,0.0,0.0,0.0,0.0,0.0,0.0,0.0,0.0,0.0,0.0,0.0,0.0,0.0,0.0,0.0,0.0,0.0,0.0,0.0,0.0,0.0,0.0,0.0,0.0,0.0,0.0,0.0,0.0,1.7626,1.8268,2.3037,2.5799,2.6327,2.6386,2.6386,2.6373,2.5824,2.3286,0.0,0.0,0.0,0.0,0.0,0.0,0.0,0.0,0.0,0.0,0.0,0.0,0.0,0.0,0.0,0.0,0.0,0.0,0.0,0.0,0.0,0.0,0.0,0.0,0.0,0.0,0.0,0.0,0.0,0.0,0.0,0.0,0.0,0.0,0.0,0.0,0.0,0.0,0.0,0.0,0.0,1.8869,2.0528,2.1506,2.2498,0.0,2.3283,2.3246,2.4286,2.4424,2.2887,1.8216,0.0,0.0,0.0,0.0,0.0,0.0,0.0,0.0,0.0,0.0,0.0,0.0,0.0,0.0,0.0,0.0,0.0,0.0,0.0,0.0,0.0,0.0,0.0,0.0,0.0,0.0,0.0,0.0,0.0,0.0,0.0,0.0,0.0,0.0,0.0,0.0,0.0,0.0,0.0,0.0,0.0,0.0,0.0,0.0,0.0,0.0,0.0,0.0,0.0,0.0,0.0,0.0,0.0,1.8095,1.8443,2.3578,2.6396,2.6611,2.6624,2.6602,2.6487,2.6755,2.5034,0.0,0.0,0.0,0.0,0.0,0.0,0.0,0.0,0.0,0.0,0.0,0.0,0.0,0.0,0.0,0.0,0.0,0.0,0.0,0.0,0.0,0.0,0.0,0.0,0.0,0.0,0.0,0.0,1.3312,1.3463,1.2228,0.0,0.0,0.0,0.0,0.0,0.0,0.0,0.0,0.0,0.0,2.1079,2.2058,2.2862,0.0,0.0,2.4029,2.3898,2.4675,2.3954,2.2493,2.0275,1.9058,0.0,0.0,0.0,0.0,0.0,0.0,0.0,0.0,0.0,0.0,0.0,0.0,0.0,0.0,0.0,0.0,0.0,0.0,0.0,0.0,0.0,0.0,0.0,0.0,0.0,0.0,0.0,0.0,0.0,0.0,0.0,0.0,0.0,0.0,0.0,0.0,0.0,0.0,0.0,0.0,0.0,0.0,0.0,0.0,0.0,0.0,0.0,0.0,0.0,0.0,0.0,0.0,1.8516,1.8789,2.4053,2.6794,2.6807,2.6794,2.676,2.6671,2.7209,2.6087,0.0,0.0,0.0,0.0,0.0,0.0,0.0,0.0,0.0,0.0,0.0,0.0,0.0,0.0,0.0,0.0,0.0,0.0,0.0,0.0,0.0,0.0,0.0,0.0,0.0,0.0,0.0,0.0,1.3923,1.3747,1.2739,0.0,0.0,0.0,0.0,0.0,0.0,0.0,0.0,0.0,0.0,2.2656,2.3684,2.4061,2.4443,2.4938,2.4456,2.413,2.4519,2.3841,2.2916,2.1766,0.0,0.0,0.0,0.0,0.0,0.0,0.0,0.0,0.0,0.0,0.0,0.0,0.0,0.0,0.0,0.0,0.0,0.0,0.0,0.0,0.0,0.0,0.0,0.0,0.0,0.0,0.0,1.1241,0.0,0.0,1.0745,0.0,0.0,0.0,0.0,0.0,0.0,0.0,0.0,0.0,0.0,0.0,0.0,0.0,0.0,0.0,0.0,0.0,0.0,0.0,0.0,0.0,0.0,1.8874,1.9438,2.4448,2.7028,2.7016,2.699,2.705,2.705,2.7037,2.6095,2.4068,0.0,0.0,0.0,0.0,0.0,0.0,0.0,0.0,0.0,0.0,0.0,0.0,0.0,0.0,0.0,0.0,0.0,0.0,0.0,0.0,0.0,0.0,0.0,0.0,0.0,0.0,1.1069,1.1811,1.2676,0.0,0.0,0.0,0.0,0.0,0.0,0.0,0.0,0.0,2.0767,2.1907,2.3125,2.5234,2.5134,2.5071,2.5536,2.4732,2.4054,2.413,2.4858,2.4683,0.0,0.0,0.0,0.0,0.0,0.0,0.0,0.0,0.0,0.0,0.0,0.0,0.0,0.0,0.0,0.0,0.0,0.0,0.0,0.0,0.0,0.0,0.0,0.0,0.0,0.0,0.0,1.5601,1.469,0.0,0.0,0.0,0.0,0.0,0.0,0.0,0.0,0.0,0.0,0.0,2.3423,2.4714,0.0,0.0,0.0,0.0,0.0,0.0,0.0,0.0,0.0,0.0,0.0,0.0,1.9629,2.0668,2.5649,2.8337,2.8337,2.8324,2.8486,2.8863,2.943,2.8681,2.6463,0.0,0.0,0.0,0.0,0.0,0.0,0.0,0.0,0.0,0.0,0.0,0.0,0.0,0.0,0.0,0.0,0.0,0.0,0.0,0.0,0.0,0.0,0.0,0.0,0.0,1.2835,0.0,0.0,0.0,0.0,0.0,0.0,0.0,0.0,0.0,0.0,1.7348,1.9949,2.1794,2.3791,2.5493,2.66,2.6892,2.7067,0.0,0.0,0.0,0.0,0.0,0.0,0.0,0.0,0.0,0.0,0.0,0.0,0.0,0.0,2.3601,1.9192,1.768,1.7149,1.7325,0.0,0.0,0.0,0.0,0.0,0.0,0.0,0.0,0.0,0.0,0.0,0.0,0.0,0.0,1.9408,1.821,1.8047,0.0,0.0,0.0,0.0,0.0,0.0,0.0,0.0,2.4923,2.6707,2.788,2.9202,2.9052,2.7652,2.6465,2.4008,0.0,0.0,0.0,0.0,0.0,0.0,0.0,0.0,2.0958,2.3111,2.7303,2.9609,2.9875,2.9875,3.0021,3.0419,3.1179,3.0742,2.8979,2.6739,2.4776,0.0,0.0,0.0,0.0,0.0,0.0,0.0,0.0,0.0,0.0,0.0,0.0,0.0,0.0,0.0,0.0,0.0,0.0,0.0,0.0,0.0,0.0,0.0,1.3898,0.0,0.0,0.0,0.0,0.0,0.0,0.0,0.0,0.0,1.7008,2.0101,2.2849,2.4155,2.5887,2.7266,2.7783,0.0,0.0,0.0,0.0,0.0,0.0,0.0,2.5154,2.5945,2.4877,2.3857,2.3658,2.5246,2.6295,2.5544,0.0,0.0,2.2728,2.1152,2.0564,2.074,2.0901,2.0964,2.0803,2.1531,2.2184,0.0,0.0,0.0,0.0,2.2796,0.0,0.0,0.0,2.4264,2.3363,0.0,2.2071,0.0,0.0,0.0,0.0,1.9667,2.2235,0.0,0.0,3.0015,3.1915,3.3068,3.3099,3.3453,3.3909,3.1307,2.9637,2.867,2.4379,0.0,0.0,0.0,0.0,0.0,0.0,2.2871,2.6783,2.9209,3.0753,3.1471,3.1471,3.1504,3.157,3.2227,3.2202,3.1457,2.9138,2.7724,2.751,2.0352,0.0,0.0,0.0,0.0,0.0,0.0,0.0,0.0,0.0,0.0,0.0,0.0,0.0,0.0,0.0,0.0,0.0,0.0,0.0,0.0,1.4916,0.0,0.0,0.0,0.0,0.0,0.0,0.0,0.0,0.0,2.315,2.1146,2.2803,2.5096,2.7657,0.0,0.0,0.0,0.0,2.7607,2.8172,2.6854,2.5862,2.5875,2.6839,2.7694,2.7998,0.0,0.0,2.7148,2.7838,2.811,2.6006,2.7258,2.8462,2.8348,2.6287,2.5008,2.541,2.5076,2.5084,2.5586,2.6465,2.7632,2.945,0.0,0.0,0.0,0.0,2.717,2.8079,2.917,2.9644,2.8765,2.7017,2.7468,0.0,0.0,0.0,0.0,0.0,0.0,2.9143,3.2106,3.2407,3.3932,3.6519,3.6067,3.5967,3.608,3.5314,3.4231,3.2915,3.1589,2.6359,1.7698,0.0,0.0,0.0,0.0,2.5687,2.755,2.972,3.1181,3.1926,3.142,3.167,3.2693,3.3518,3.3826,3.362,3.2452,3.0702,2.8382,2.5713,0.0,0.0,0.0,0.0,0.0,0.0,0.0,0.0,0.0,0.0,0.0,0.0,0.0,0.0,0.0,0.0,0.0,0.0,0.0,1.2917,1.5376,1.6704,0.0,0.0,0.0,0.0,0.0,0.0,0.0,0.0,0.0,2.5045,2.6139,2.7067,0.0,0.0,2.8712,2.8875,2.934,2.9854,3.0369,3.0043,0.0,2.9741,2.9114,2.9112,3.0419,3.1356,3.1604,3.0839,3.0686,3.0455,2.9624,2.9565,2.9631,2.9517,2.8306,2.7281,2.7344,2.7256,2.7205,2.7394,2.7821,2.8235,3.4575,3.2361,3.0491,3.0232,3.1091,3.1498,3.2392,3.3597,3.3911,3.322,3.1843,3.2147,3.0822,2.8346,2.8102,0.0,0.0,0.0,3.2701,3.5502,3.5046,3.6035,3.8104,3.7798,3.76,3.7554,3.6743,3.6239,3.6045,3.519,3.1042,2.3913,0.0,2.4319,2.2524,2.563,2.807,2.972,3.1007,3.2101,3.2953,3.284,3.3066,3.3616,3.4456,3.4765,3.4431,3.4107,3.2976,3.1001,2.9041,2.6806,0.0,0.0,0.0,0.0,0.0,0.0,0.0,0.0,0.0,0.0,0.0,1.2811,1.0658,0.0,0.0,0.0,1.6027,1.651,1.7323,1.9543,0.0,0.0,0.0,0.0,0.0,0.0,0.0,2.3778,2.5952,2.7498,2.8324,2.8988,2.9202,2.8674,2.9139,2.9628,2.988,0.0,3.1035,3.1348,3.1386,3.1386,3.1414,3.0676,3.0531,3.1627,3.2047,3.222,3.2207,3.1951,3.1653,3.1417,3.1042,3.0695,3.0656,2.9919,2.9239,2.885,2.8775,2.8775,2.8775,2.8775,2.8938,3.8664,3.8357,3.4804,3.4262,3.5782,3.5692,3.6262,3.728,3.7164,3.6696,3.6006,3.605,3.5132,3.3426,3.2076,0.0,3.4057,3.4454,3.5791,3.7914,3.7869,3.812,3.8677,3.8616,3.8567,3.8506,3.6582,3.6581,3.8106,3.6254,3.4531,3.3021,3.0909,2.9513,2.8896,2.9092,3.0465,3.2915,3.2949,3.3347,3.4254,3.5182,3.5233,3.4298,3.5126,3.5225,3.4447,3.4525,3.4593,3.4474,3.1046,2.8771,2.8079,0.0,0.0,0.0,0.0,0.0,0.0,0.0,0.0,0.0,0.0,0.0,0.0,0.0,0.0,1.944,2.2406,0.0,2.5036,2.5418,0.0,0.0,0.0,2.1649,2.1829,2.4009,2.5762,2.6419,0.0,0.0,3.0976,3.1246,3.1276,3.0796,3.0696,3.0834,3.1273,3.1361,3.1461,3.1574,3.159,3.1537,3.1637,3.166,3.1851,3.2102,3.2094,3.2158,3.2186,3.2109,3.1962,3.1759,3.1721,3.159,3.1414,3.126,3.1085,3.0068,2.9917,2.993,2.9917,2.9917,3.0055,4.01,4.0192,3.9411,3.8616,3.7849,3.8323,3.8391,3.8241,3.8662,3.8466,3.7756,3.8376,3.8648,3.8681,3.8323,3.8417,3.8843,3.8913,3.9283,3.978,3.9305,3.9404,3.9982,3.9474,3.9277,3.9247,3.8752,3.8455,3.8292,3.777,3.734,3.6923,3.5956,3.4026,3.1391,3.3365,3.4773,3.5432,3.5031,3.4545,3.4053,3.5933,3.6075,3.4214,3.5521,3.5932,3.5261,3.5242,3.5265,3.522,3.3873,3.3036,3.2796,2.5788,0.0,0.0,0.0,0.0,0.0,0.0,0.0,0.0,0.0,1.8455,1.5169,0.0,2.0071,0.0,2.7092,2.7155,2.3668,2.4448,0.0,0.0,2.3443,2.3234,2.7644,2.7023,2.7196,2.9716,3.0942,3.1667,3.1813,3.1741,3.181,3.2076,3.1597,3.111,3.0871,3.1524,3.2177,3.2554,3.2671,3.2722,3.2671,3.2722,3.2811,3.3047,3.3022,3.3077,3.3077,3.2721,3.2371,3.2126,3.1703,3.1477,3.1411,3.1386,3.1336,3.106,3.1009,3.1009,3.1009,3.0997,3.1035,4.0814,4.095,4.1068,4.0466,3.955,3.9936,3.9856,3.9547,3.9835,3.9687,3.9296,3.9748,4.0136,4.0489,4.0489,4.0489,4.0489,4.0489,4.0489,4.0474,4.0105,4.0136,4.0474,4.0105,3.9936,3.9936,3.9936,3.9717,3.9296,3.9281,3.9296,3.9296,3.896,3.7767,3.5881,3.6065,3.5787,3.4985,3.5652,3.5675,3.5054,3.6561,3.6251,3.4008,3.5817,3.6178,3.4681,3.5459,3.54,3.4233,3.3529,3.317,3.308,2.8397,2.6318,0.0,0.0,0.0,0.0,0.0,0.0,0.0,0.0,0.0,0.0,0.0,2.3885,2.5745,2.8768,2.916,2.5681,2.7314,2.871,2.9035,2.7802,2.8078,3.0996,3.0085,2.9856,3.1433,3.2005,3.2281,3.2322,3.2333,3.2461,3.2777,3.2424,3.2039,3.1825,3.2252,3.2717,3.3074,3.3124,3.3124,3.3124,3.3124,3.3124,3.324,3.3283,3.3283,3.327,3.303,3.2773,3.2621,3.234,3.2139,3.2139,3.2139,3.2139,3.2139,3.2139,3.1951,3.1486,3.1386,3.1424,4.1049,4.1083,4.1049,4.0932,4.0799,4.0765,4.0765,4.0765,4.0558,4.0489,4.0489,4.0489,4.0489,4.0489,4.0489,4.0489,4.0489,4.0489,4.0489,4.0489,4.0489,4.0489,4.0489,4.0489,4.0489,4.0489,4.0489,4.0489,4.0489,4.0489,4.0489,4.0489,4.042,4.0297,4.0006,3.7585,3.5621,3.4203,3.5727,3.6347,3.6046,3.6773,3.5962,3.3734,3.6081,3.6432,3.4173,3.5669,3.5549,3.329,3.2557,3.2228,3.2123,3.112,2.9968,0.0,2.7684,0.0,0.0,0.0,0.0,0.0,0.0,0.0,0.0,2.8604,2.8261,2.5766,2.9292,3.1089,2.9525,3.1656,3.278,3.2031,3.2904,3.3301,3.254,3.2605,3.2564,3.223,3.2716,3.2992,3.2784,3.298,3.3197,3.3129,3.3048,3.2998,3.3074,3.3061,3.3086,3.3124,3.3124,3.3124,3.3124,3.3124,3.3124,3.3124,3.3124,3.3124,3.3124,3.3111,3.3111,3.3111,3.3061,3.3074,3.3068,3.3086,3.3099,3.3036,3.3023,3.2704,3.1938,3.17,3.1763,4.0712,4.0848,4.0662,4.0696,4.0799,4.0643,4.0558,4.0558,4.0539,4.0489,4.0489,4.0489,4.0489,4.0489,4.0489,4.0489,4.0489,4.0489,4.0489,4.0489,4.0489,4.0489,4.0489,4.0489,4.0489,4.0489,4.0489,4.0489,4.0489,4.0489,4.0489,4.0489,4.0071,3.9264,3.8133,0.0,0.0,0.0,3.7017,3.5639,3.4685,3.5437,3.5047,3.3412,3.6486,0.0,3.6761,3.7045,3.7015,3.6522,3.6357,0.0,0.0,0.0,0.0,0.0,0.0,0.0,0.0,0.0,0.0,0.0,2.8697,2.8655,2.8318,3.1253,3.189,2.8949,3.2155,3.408,3.3055,3.3397,3.3396,3.2647,3.2475,3.246,3.2592,3.266,3.2615,3.2764,3.3418,3.3698,3.3318,3.345,3.3513,3.3368,3.3197,3.3124,3.3124,3.3124,3.3124,3.3124,3.3124,3.3124,3.3124,3.3124,3.3124,3.3124,3.3124,3.3124,3.3124,3.3124,3.3124,3.3124,3.3124,3.3124,3.3124,3.3124,3.3124,3.3124,3.3124,3.3061,3.2847,3.2784,3.2792,4.1591,4.1696,4.1666,4.1445,0.0,4.1171,4.0901,4.0489,4.0489,4.0489,4.0489,4.0489,4.0489,4.0489,4.0489,4.0489,4.0489,4.0489,4.0489,4.0489,4.0489,4.0489,4.0489,4.0489,4.0489,4.0489,4.0489,4.0489,4.0489,4.0489,4.0489,4.0489,4.0261,3.9726,3.9029,3.9399,3.9666,3.9717,3.8542,3.7609,3.6946,3.7248,3.6439,3.4533,3.7287,0.0,0.0,0.0,0.0,0.0,0.0,0.0,0.0,3.308,0.0,3.3335,3.1539,3.0417,3.0417,3.0417,3.1127,3.2691,3.2829,3.2794,3.2821,3.4334,3.4528,3.2929,3.4282,3.5008,3.4556,3.4772,3.4659,3.3845,3.3821,3.3805,3.3602,3.3537,3.3511,3.3633,3.3824,3.3865,3.3793,3.3598,3.3526,3.3398,3.3326,3.3197,3.3124,3.3124,3.3111,3.324,3.324,3.3227,3.324,3.3154,3.3124,3.3124,3.3124,3.3124,3.3124,3.3124,3.3124,3.3124,3.3124,3.3124,3.3124,3.3124,3.3124,3.3124,3.3124,3.3124,3.3124,3.3124,3.3124,4.2602,4.2617,4.2716,4.233,4.1601,4.1696,4.1295,4.0489,4.0524,0.0,0.0,4.0574,4.0558,4.0574,4.0524,4.0489,4.0489,4.0489,4.0489,4.0489,4.0489,4.0489,4.0489,4.0489,4.0489,4.0489,4.0489,4.0489,4.0489,4.0489,4.0489,4.0489,4.0489,4.0489,4.0489,4.0489,4.0196,3.9636,3.942,3.9213,3.9003,3.8827,3.7704,3.5564,3.8083,3.8442,3.6345,3.7788,3.7653,3.5539,3.4863,3.4487,3.4382,3.4367,3.5265,3.7195,3.7404,3.7404,3.7404,3.7404,3.7104,3.6402,3.5948,3.6122,3.7164,3.647,3.605,3.6202,3.5634,3.5293,3.5405,3.5892,3.5896,3.5055,3.5371,3.5278,3.4509,3.4356,3.4288,3.4314,3.405,3.3852,3.3949,3.3696,3.3428,3.3398,3.3368,3.3283,3.3154,3.3124,3.3154,3.3283,3.3283,3.3313,3.3313,3.3197,3.3124,3.3124,3.3124,3.3124,3.3124,3.3124,3.3124,3.3124,3.3124,3.3124,3.3124,3.3124,3.3124,3.3124,3.3124,3.3124,3.3124,3.3124,3.3124,4.2617,4.2602,4.2602,4.2253,4.1601,4.1637,4.117,4.0539,4.0662,4.0848,4.1,4.0833,4.0765,4.0765,4.0558,4.0489,4.0489,4.0489,4.0489,4.0489,4.0489,4.0489,4.0489,4.0489,4.0489,4.0489,4.0489,4.0489,4.0489,4.0489,4.0489,4.0489,4.0489,4.0489,4.0489,4.0489,4.0455,4.0305,3.7836,3.6485,3.6323,3.6142,3.5908,3.5654,3.8221,3.951,3.9119,3.9344,3.9344,3.8968,3.8702,3.8317,3.7734,3.7659,3.7629,3.7419,3.7404,3.7404,3.7404,3.7404,3.7282,3.7121,3.7575,3.7532,3.6529,3.5718,3.5506,3.6038,3.593,3.6027,3.6557,3.6683,3.6429,3.5666,3.5467,3.5115,3.4509,3.4285,3.4202,3.416,3.4243,3.4092,3.3852,3.3725,3.3556,3.3441,3.3283,3.3124,3.3111,3.3124,3.3124,3.3167,3.3167,3.3167,3.321,3.3124,3.3124,3.3124,3.3124,3.3124,3.3124,3.3124,3.3124,3.3124,3.3124,3.3124,3.3124,3.3124,3.3124,3.3124,3.3124,3.3124,3.3124,3.3124,3.3124,4.3679,4.3679,4.3679,4.3279,4.2648,4.2294,4.1775,4.1218,4.1322,4.1174,4.0932,4.0833,4.0848,4.095,4.073,4.0662,4.0662,4.0558,4.0489,4.0489,4.0489,4.0489,4.0489,4.0489,4.0489,4.0489,4.0489,4.0489,4.0489,4.0489,4.0489,4.0489,4.0489,4.0489,4.0489,4.0489,4.0489,4.0474,3.9072,3.826,3.8073,3.7888,3.7717,3.7644,3.8912,3.9553,3.9517,3.9517,3.9517,3.9532,3.946,3.9275,3.8975,3.896,3.8811,3.8527,3.8497,3.8482,3.8476,3.8091,3.7994,3.8361,3.8303,3.8222,3.8014,3.7243,3.6914,3.72,3.6769,3.6571,3.6852,3.6894,3.6582,3.579,3.5949,3.5669,3.4703,3.4799,3.4799,3.4356,3.4105,3.3979,3.3949,3.3683,3.3513,3.3398,3.324,3.3124,3.3124,3.3124,3.3154,3.3227,3.327,3.3283,3.3283,3.3167,3.3124,3.3124,3.3124,3.3124,3.3124,3.3124,3.3124,3.3124,3.3124,3.3124,3.3124,3.3124,3.3124,3.3124,3.3124,3.3124,3.3124,3.3124,3.3124,4.461,4.461,4.444,4.4009,4.3347,4.2817,4.2273,4.1767,4.1767,4.1415,4.0861,4.0799,4.0916,4.1083,4.0882,4.0833,4.0848,4.0662,4.0558,4.0558,4.0524,4.0489,4.0489,4.0489,4.0489,4.0489,4.0489,4.0489,4.0489,4.0489,4.0489,4.0489,4.0489,4.0489,4.0489,4.0489,4.0489,4.0489,4.0401,4.0226,4.0066,3.9874,3.9661,3.9481,3.9517,3.9532,3.9481,3.946,3.9445,3.9481,3.9409,3.9388,3.9388,3.9388,3.9388,3.9388,3.9388,3.9316,3.9119,3.8375,3.8173,3.8745,3.8464,3.8478,3.901,3.8738,3.8389,3.8113,3.6996,3.6489,3.7011,3.6724,3.6385,3.6016,3.6267,3.5869,3.4716,3.4991,3.5155,3.4468,3.4021,3.3894,3.3992,3.3738,3.3441,3.3326,3.3197,3.3111,3.3167,3.3167,3.3197,3.3326,3.3356,3.3313,3.3313,3.3197,3.3124,3.3124,3.3124,3.3124,3.3124,3.3124,3.3124,3.3124,3.3124,3.3124,3.3124,3.3124,3.3124,3.3124,3.3124,3.3124,3.3124,3.3124,3.3124,4.461,4.4517,4.4009,4.3316,4.2756,4.2648,4.2217,4.1668,4.1621,4.1326,4.0796,4.0799,4.0916,4.1068,4.0867,4.0867,4.1034,4.0848,4.0765,4.073,4.0593,4.0489,4.0505,4.0489,4.0489,4.0489,4.0489,4.0489,4.0489,4.0489,4.0489,4.0489,4.0489,4.0489,4.0489,4.0489,4.0489,4.0489,4.0489,4.0401,4.0277,4.0101,3.9874,3.9681,3.9854,3.9854,3.9661,3.9661,3.9661,3.9661,3.9481,3.9388,3.9388,3.9388,3.9388,3.9388,3.9388,3.9083,3.8352,3.7501,3.7165,3.7165,3.7872,3.8188,3.8352,3.8885,3.8922,3.8075,3.6042,3.5856,3.7606,3.6543,3.5895,3.6503,3.6108,3.5156,3.4662,3.4314,3.4285,3.4439,3.4189,3.4076,3.4034,3.381,3.3526,3.321,3.3111,3.3154,3.3283,3.3197,3.3154,3.3326,3.3283,3.3179,3.3179,3.3124,3.3124,3.3124,3.3124,3.3124,3.3124,3.3124,3.3124,3.3124,3.3124,3.3124,3.3124,3.3124,3.3124,3.3124,3.3124,3.3124,3.3124,3.3124,3.3124,4.4701,4.4746,4.4355,4.3824,4.3171,4.2786,4.2232,4.1617,4.1601,4.1236,4.0674,4.0627,4.078,4.1068,4.0882,4.0833,4.0901,4.0746,4.0627,4.0627,4.0662,4.0696,4.0696,4.0662,4.0662,4.0662,4.0558,4.0489,4.0489,4.0489,4.0489,4.0489,4.0489,4.0489,4.0489,4.0489,4.0489,4.0489,4.0489,4.047,4.0401,4.0277,3.991,3.943,3.9661,3.9803,3.9696,3.9589,3.9517,3.9517,3.9409,3.9388,3.9388,3.9388,3.9388,3.9388,3.9388,3.9265,3.8922,3.856,3.8159,3.7691,3.8,3.7985,3.7462,3.7309,3.7424,3.7924,3.6752,3.6399,3.7218,3.6267,3.5736,3.6162,3.6635,3.6674,3.5963,3.5789,3.5642,3.5223,3.4384,3.3937,3.3992,3.3738,3.3441,3.3167,3.3136,3.3192,3.3265,3.3167,3.3154,3.3248,3.3375,3.3438,3.3237,3.3124,3.3136,3.3136,3.3124,3.3124,3.3174,3.3124,3.3124,3.3149,3.3162,3.3162,3.3124,3.3124,3.3124,3.3174,3.3136,3.3124,3.3124,3.3124,3.3124,4.4723,4.4874,4.4814,4.439,4.3741,4.3441,4.2916,4.2299,4.2062,4.1533,4.0886,4.0616,4.0677,4.0898,4.0848,4.0833,4.0848,4.0662,4.0593,4.0593,4.0696,4.073,4.0799,4.0799,4.0799,4.0765,4.0662,4.0558,4.0505,4.0489,4.0489,4.0489,4.0489,4.042,4.0316,4.042,4.042,4.0316,4.0385,4.042,4.0316,4.0331,4.0051,3.9445,3.9589,3.9681,3.961,3.9445,3.9388,3.9388,3.9388,3.9388,3.9388,3.9388,3.9388,3.9352,3.8929,3.8708,3.8708,3.8523,3.8263,3.791,3.8037,3.8023,3.7601,3.7063,3.7271,3.824,3.7744,3.7295,3.7472,3.6582,3.6016,3.6096,3.7,3.7063,3.6267,3.6188,3.5803,3.5264,3.4343,3.3966,3.4259,3.3924,3.3552,3.3913,3.3652,3.3525,3.3656,3.3701,3.3614,3.362,3.3941,3.3859,3.3445,3.3533,3.3483,3.3533,3.3621,3.3633,3.3495,3.3458,3.3483,3.3721,3.347,3.3458,3.3721,3.3646,3.3564,3.3495,3.3488,3.3388,3.3413,3.3287,3.3149,4.4723,4.4911,4.5092,4.4762,4.42,4.4715,4.4637,4.3775,4.3133,4.241,4.1612,4.0901,4.0539,4.0558,4.073,4.0867,4.1034,4.0848,4.073,4.073,4.0593,4.0627,4.0799,4.0799,4.0799,4.0799,4.0765,4.0662,4.0489,4.0489,4.0489,4.0489,4.0489,4.0246,3.9965,4.0281,4.0246,3.9895,4.0211,4.0246,3.9859,4.0226,4.0261,3.9925,3.9803,3.9625,3.9445,3.9388,3.9388,3.9388,3.9316,3.9352,3.9388,3.9388,3.9352,3.9265,3.7956,3.7112,3.7112,3.6635,3.6399,3.6933,3.763,3.8389,3.8523,3.8435,3.8523,3.9192,3.8263,3.815,3.862,3.7372,3.6582,3.6621,3.5989,3.544,3.4786,3.4909,3.4301,3.4356,3.4408,3.4559,3.5114,3.4345,3.4471,3.5021,3.4779,3.4381,3.485,3.4806,3.4704,3.4761,3.4754,3.45,3.406,3.4085,3.4424,3.4469,3.4388,3.4512,3.4437,3.4349,3.4349,3.4311,3.406,3.4098,3.4474,3.4587,3.4487,3.4349,3.4079,3.3954,3.3903,3.3451,3.3312,4.4739,4.4902,4.4809,4.4533,4.419,4.4003,4.3805,4.3519,4.325,4.2594,4.1852,4.1438,4.1044,4.0489,4.0558,4.0643,4.0712,4.0627,4.0593,4.0627,4.0662,4.073,4.0799,4.0799,4.0882,4.095,4.0746,4.0593,4.0489,4.0489,4.0489,4.0489,4.0489,4.0385,4.0281,4.0385,4.0246,3.9788,3.9895,3.9895,3.9717,3.9773,3.9859,3.9996,3.9925,3.9818,3.9574,3.8995,3.8848,3.9388,3.8383,3.8294,3.9213,3.8922,3.887,3.9228,3.8337,3.7971,3.8323,3.7744,3.7155,3.6894,3.6674,3.6531,3.6241,3.6241,3.6439,3.6883,3.6844,3.6961,3.7486,3.7165,3.6621,3.6241,3.6267,3.6213,3.6055,3.5909,3.5923,3.5897,3.575,3.569,3.5562,3.5306,3.5215,3.5496,3.5285,3.5237,3.5366,3.5309,3.536,3.5385,3.5545,3.5575,3.5229,3.4816,3.4713,3.4848,3.4925,3.4803,3.4708,3.4798,3.4785,3.4751,3.4562,3.4562,3.4876,3.503,3.503,3.4839,3.4595,3.4507,3.4469,3.406,3.3847,4.4964,4.5036,4.4976,4.4845,4.4653,4.425,4.4046,4.3979,4.374,4.3258,4.2649,4.2058,4.1438,4.0932,4.0632,4.0489,4.0489,4.0489,4.0489,4.0489,4.0627,4.073,4.0799,4.0799,4.0882,4.095,4.0746,4.0558,4.0524,4.0558,4.0558,4.0489,4.0489,4.042,4.0316,4.0385,4.0246,3.9824,3.9859,3.991,3.9732,3.9436,3.9241,3.9256,3.9147,3.9271,3.9538,3.8958,3.8811,3.9156,3.8308,3.8121,3.8885,3.8723,3.8701,3.8885,3.8211,3.8023,3.8397,3.7872,3.7116,3.6582,3.632,3.5803,3.5291,3.5467,3.5896,3.6373,3.6805,3.7106,3.7108,3.7203,3.6884,3.635,3.683,3.7165,3.6947,3.6802,3.6653,3.647,3.6273,3.6236,3.6387,3.6353,3.6545,3.6713,3.6577,3.6379,3.653,3.6538,3.6315,3.6129,3.6664,3.6767,3.6488,3.6001,3.5579,3.5646,3.5557,3.5398,3.5226,3.5292,3.5292,3.5231,3.5152,3.5127,3.5211,3.5411,3.5365,3.5248,3.509,3.5047,3.4914,3.4743,3.4512,4.5478,4.5499,4.5735,4.5692,4.564,4.5577,4.5692,4.5482,4.4802,4.44,4.3964,4.2665,4.2011,4.1663,4.1029,4.0586,4.0632,4.057,4.0489,4.0505,4.0524,4.0627,4.0765,4.0765,4.0765,4.0799,4.0799,4.0696,4.0574,4.0696,4.0696,4.0524,4.0489,4.0281,3.9753,4.0246,4.0246,3.991,4.0106,4.0141,3.9717,3.9298,3.876,3.8055,3.7738,3.8144,3.9228,3.9141,3.9068,3.9337,3.9068,3.8885,3.8225,3.8649,3.8922,3.815,3.7386,3.6972,3.6933,3.6346,3.599,3.6016,3.6439,3.6621,3.6543,3.7193,3.7668,3.7644,3.8275,3.8675,3.7746,3.7622,3.74,3.7063,3.7342,3.7459,3.6951,3.6659,3.6476,3.6353,3.6305,3.6358,3.7091,3.7495,3.7896,3.8678,3.8458,3.7966,3.8207,3.8076,3.7886,3.7442,3.7456,3.7554,3.7468,3.7248,3.6837,3.6505,3.6379,3.6218,3.6029,3.5999,3.6041,3.5987,3.5886,3.5873,3.5919,3.6088,3.613,3.5999,3.5789,3.5588,3.5479,3.5353,3.5027,4.5515,4.5515,4.5698,4.5807,4.5807,4.5807,4.5807,4.5807,4.5482,4.5079,4.4463,4.3917,4.3321,4.2649,4.1821,4.1392,4.1361,4.0805,4.0489,4.0489,4.0489,4.0524,4.0593,4.0593,4.0593,4.0627,4.0882,4.0882,4.073,4.0765,4.0749,4.0696,4.0574,4.0436,4.0246,4.042,4.0246,3.9788,3.9859,3.9788,3.9523,3.9349,3.8921,3.8339,3.8664,3.8642,3.7715,3.7141,3.7691,3.9228,3.7179,3.6082,3.657,3.7256,3.7563,3.7242,3.6557,3.636,3.6738,3.6162,3.5896,3.6306,3.6281,3.6082,3.6162,3.6816,3.7063,3.6705,3.7051,3.7188,3.7057,3.729,3.7234,3.6442,3.6597,3.6864,3.6752,3.6914,3.7313,3.7728,3.7641,3.7957,3.8609,3.8803,3.9104,3.9813,3.9379,3.8932,3.8827,3.8562,3.8103,3.7749,3.8011,3.8076,3.7677,3.7505,3.7307,3.7062,3.6909,3.6734,3.6599,3.6561,3.6654,3.6616,3.6527,3.6553,3.6611,3.664,3.664,3.6593,3.6294,3.6184,3.6128,3.5915,3.568,4.5625,4.5625,4.5735,4.5807,4.5807,4.5807,4.5807,4.5807,4.5807,4.5482,4.4996,4.4625,4.4223,4.3517,4.2361,4.1837,4.1709,4.0886,4.0489,4.0489,4.0489,4.0489,4.0489,4.0489,4.0489,4.0558,4.0848,4.0882,4.0696,4.0833,4.0848,4.0696,4.0627,4.0558,4.0489,4.0455,4.0226,3.9945,3.9859,3.9661,3.9328,3.9096,3.8738,3.8219,3.8182,3.7776,3.6855,3.5843,3.6201,3.7729,3.6346,3.5575,3.5776,3.6464,3.6777,3.6385,3.6042,3.5936,3.632,3.5655,3.5372,3.5789,3.5762,3.5507,3.5507,3.6148,3.6503,3.5938,3.6551,3.6948,3.6972,3.7362,3.7394,3.6839,3.702,3.7112,3.7434,3.8196,3.8825,3.9243,3.9239,3.9476,3.9757,4.028,4.0389,4.0745,4.0216,3.9681,3.9401,3.8908,3.8485,3.8239,3.8349,3.8213,3.7782,3.769,3.7723,3.7572,3.742,3.7108,3.6883,3.6883,3.6964,3.6917,3.6853,3.6841,3.6875,3.6968,3.6968,3.6828,3.6722,3.6718,3.6607,3.6646,3.6451,4.5771,4.5807,4.5807,4.5807,4.5807,4.5807,4.5807,4.5807,4.5807,4.5755,4.5582,4.498,4.4625,4.4172,4.2954,4.2186,4.1724,4.1075,4.0616,4.052,4.0489,4.0489,4.0489,4.0489,4.0489,4.0524,4.073,4.073,4.0593,4.0882,4.0882,4.0593,4.0696,4.0696,4.0524,4.0366,4.0312,4.0242,4.0066,3.9696,3.9213,3.8826,3.8294,3.772,3.6844,3.6478,3.6464,3.5494,3.5291,3.6543,3.6646,3.6306,3.5936,3.6425,3.6582,3.579,3.5669,3.5629,3.5507,3.5155,3.4758,3.4909,3.5494,3.5386,3.5073,3.6042,3.6638,3.5993,3.6918,3.7606,3.7558,3.7971,3.8175,3.8174,3.8271,3.8698,3.9564,4.0301,4.043,4.0407,4.0575,4.0632,4.0675,4.1365,4.1728,4.1811,4.1254,4.0774,4.0432,3.9839,3.897,3.8805,3.885,3.8715,3.8459,3.8245,3.8368,3.8702,3.8387,3.7854,3.742,3.7387,3.7307,3.7261,3.7214,3.7168,3.7121,3.7214,3.7168,3.7015,3.7015,3.7108,3.7062,3.6968,3.6956,4.5662,4.5807,4.5807,4.5807,4.5807,4.5807,4.5807,4.5807,4.5807,4.5807,4.5724,4.5561,4.5383,4.5304,4.427,4.345,4.2747,4.1837,4.1059,4.0586,4.0489,4.0489,4.0489,4.0489,4.0489,4.0524,4.0681,4.0765,4.073,4.0966,4.0966,4.073,4.073,4.0696,4.0505,4.0331,4.0312,4.0292,4.0101,3.9854,3.9538,3.9415,3.8929,3.8075,3.7644,3.6922,3.6175,3.5629,3.5155,3.5101,3.6306,3.6188,3.5114,3.6068,3.6227,3.5142,3.5305,3.5386,3.495,3.5073,3.5318,3.5426,3.5923,3.6227,3.5467,3.6281,3.6647,3.6511,3.7084,3.7642,3.8027,3.8583,3.9122,3.9713,3.9483,3.9474,4.0167,4.0534,4.0661,4.0618,4.0675,4.1029,4.1547,4.1852,4.2237,4.2441,4.2058,4.1478,4.1184,4.0603,3.9694,3.9475,3.9475,3.9387,3.921,3.9002,3.9135,3.9782,3.9519,3.8868,3.84,3.8109,3.792,3.7703,3.7611,3.7551,3.7459,3.7413,3.7307,3.7214,3.7214,3.7261,3.7155,3.7108,3.7108,4.5698,4.5807,4.5807,4.5807,4.5807,4.5807,4.5807,4.5807,4.5807,4.5698,4.5609,4.5735,4.5698,4.5458,4.4617,4.408,4.3575,4.222,4.1395,4.109,4.0662,4.0505,4.0489,4.0489,4.0489,4.0489,4.0627,4.0662,4.0696,4.0882,4.0916,4.0765,4.0528,4.0509,4.0593,4.0036,3.9753,3.9666,3.9661,3.9553,3.9141,3.943,3.9337,3.8612,3.8098,3.6883,3.5426,3.5142,3.5032,3.5223,3.6082,3.6148,3.4703,3.5655,3.5762,3.4509,3.4868,3.4909,3.4634,3.4922,3.5114,3.5318,3.5909,3.5883,3.5521,3.6088,3.6605,3.6094,3.6756,3.7314,3.7802,3.8607,3.977,4.0817,4.0689,4.0603,4.1169,4.156,4.1699,4.174,4.174,4.1879,4.2496,4.2537,4.2699,4.282,4.2415,4.2032,4.1701,4.1085,4.056,4.0289,4.0159,4.0159,4.0073,3.9869,4.0087,4.0689,4.0859,4.013,3.9577,3.9073,3.8607,3.8349,3.8103,3.7854,3.7703,3.7657,3.7598,3.7551,3.7459,3.7413,3.74,3.7307,3.7353,4.5807,4.5807,4.5807,4.5807,4.5807,4.5807,4.5807,4.5807,4.5719,4.5536,4.5336,4.5536,4.5389,4.5089,4.4443,4.4096,4.4049,4.2253,4.1601,4.1221,4.0816,4.047,4.0489,4.0489,4.0489,4.0489,4.0489,4.0524,4.0558,4.0696,4.0765,4.0646,4.0235,4.0285,4.042,3.9753,3.9075,3.8899,3.9271,3.8943,3.8412,3.876,3.8958,3.856,3.741,3.6241,3.5101,3.4703,3.495,3.5669,3.632,3.5722,3.462,3.5223,3.5223,3.4716,3.4634,3.4716,3.4507,3.4684,3.4695,3.4901,3.5505,3.5493,3.5266,3.5877,3.624,3.5867,3.6524,3.7471,3.8222,3.8952,4.0333,4.1728,4.2073,4.2114,4.2278,4.2835,4.3305,4.3305,4.325,4.3305,4.3305,4.3305,4.3305,4.313,4.2754,4.2537,4.2293,4.1935,4.1365,4.093,4.0887,4.093,4.0859,4.0774,4.1113,4.1589,4.1935,4.1589,4.0944,4.0346,3.9563,3.9091,3.8684,3.8226,3.7854,3.7841,3.7887,3.7795,3.7703,3.7749,3.7854,3.7703,3.7644,4.5807,4.5807,4.5807,4.5807,4.5807,4.5807,4.5807,4.5771,4.5484,4.5284,4.5173,4.4986,4.4852,4.4708,4.4423,4.3908,4.3029,4.219,4.1653,4.0596,4.0489,4.0401,4.0455,4.0489,4.0489,4.0489,4.0489,4.0489,4.0524,4.057,4.0558,4.0524,4.0327,4.0231,4.0261,3.9824,3.9169,3.8701,3.9038,3.8583,3.7615,3.7985,3.8136,3.7525,3.6543,3.5896,3.5588,3.5426,3.5507,3.5534,3.5237,3.4827,3.4675,3.5237,3.5223,3.4771,3.5018,3.51,3.4726,3.5264,3.5738,3.5286,3.6029,3.6672,3.586,3.5969,3.6367,3.6634,3.7563,3.876,4.0294,4.1056,4.1796,4.2578,4.2915,4.2955,4.305,4.317,4.3305,4.3305,4.3305,4.3305,4.3305,4.3305,4.3305,4.3305,4.317,4.3036,4.282,4.2618,4.2222,4.1713,4.1879,4.1961,4.1755,4.1672,4.1893,4.2196,4.2537,4.2754,4.2099,4.1505,4.0675,3.9855,3.9121,3.8715,3.8349,3.8024,3.8057,3.7979,3.79,3.79,3.79,3.79,3.79,4.5807,4.5807,4.5807,4.5807,4.5807,4.5807,4.5807,4.5735,4.5373,4.5098,4.4911,4.4685,4.4511,4.4289,4.3983,4.3424,4.287,4.2107,4.1306,4.0495,4.0312,4.0366,4.0455,4.0489,4.0489,4.0505,4.042,4.0401,4.0462,4.0591,4.0633,4.0377,4.0208,4.0188,4.0101,3.9631,3.8752,3.813,3.8472,3.8173,3.7218,3.7295,3.7193,3.6464,3.5883,3.5548,3.5114,3.495,3.4909,3.484,3.4522,3.4314,3.4522,3.5196,3.5182,3.4688,3.5075,3.5321,3.52,3.5669,3.6111,3.5708,3.6442,3.6392,3.6332,3.6332,3.6898,3.7568,3.8425,3.9652,4.1684,4.1949,4.2415,4.305,4.3305,4.3305,4.3305,4.3305,4.3305,4.3305,4.3305,4.3305,4.3305,4.3305,4.3305,4.3305,4.3305,4.317,4.317,4.2996,4.2955,4.2739,4.2955,4.2996,4.2699,4.2618,4.2618,4.2795,4.2955,4.309,4.2875,4.2278,4.1672,4.0901,4.0073,3.9387,3.897,3.8639,3.8317,3.807,3.7946,3.7946,3.79,3.7946,3.7946,4.5807,4.5807,4.5807,4.5807,4.5807,4.5807,4.5807,4.5735,4.53,4.4911,4.4594,4.4496,4.4051,4.3699,4.3198,4.3107,4.2563,4.1693,4.0492,4.0213,4.0121,4.0261,4.0385,4.042,4.0436,4.047,4.0366,4.0312,4.043,4.0588,4.0451,4.0173,4.0004,4.0001,3.9884,3.9328,3.8546,3.7805,3.83,3.7985,3.7141,3.7063,3.683,3.5936,3.5655,3.5182,3.4592,3.4272,3.4063,3.4034,3.4076,3.4202,3.4481,3.495,3.5317,3.457,3.5028,3.5247,3.5409,3.5857,3.6152,3.6152,3.6353,3.6542,3.6775,3.7228,3.7909,3.864,3.9524,4.049,4.1949,4.2333,4.2618,4.313,4.3305,4.3305,4.3305,4.3305,4.3305,4.3305,4.3305,4.3305,4.3305,4.3305,4.3305,4.3305,4.3305,4.3305,4.3305,4.3305,4.321,4.317,4.325,4.3305,4.305,4.2955,4.305,4.309,4.325,4.3265,4.3305,4.2915,4.236,4.1852,4.1127,4.0389,3.9812,3.9533,3.9073,3.8408,3.8226,3.8395,3.8272,3.8024,3.7979,4.5807,4.5807,4.5807,4.5807,4.5807,4.5807,4.5807,4.5662,4.5039,4.4685,4.4496,4.3825,4.3265,4.2812,4.2617,4.1979,4.1113,4.0263,3.9862,3.9839,3.9859,4.0001,4.0296,4.0331,4.0331,4.0347,4.0277,4.0242,4.0187,4.0051,4.0081,3.9965,3.9808,3.9763,3.9715,3.9409,3.8892,3.8098,3.8538,3.8121,3.7309,3.7362,3.7155,3.5936,3.5575,3.5006,3.4343,3.3937,3.3768,3.381,3.3992,3.4076,3.4173,3.4494,3.4785,3.5012,3.5141,3.5392,3.5843,3.6083,3.6341,3.6586,3.6955,3.7778,3.8354,3.8762,3.9172,4.0051,4.0943,4.1935,4.2955,4.2955,4.309,4.3305,4.3305,4.3305,4.3305,4.3305,4.3305,4.3305,4.3305,4.3305,4.3305,4.3305,4.3305,4.3305,4.3305,4.3305,4.3305,4.3305,4.3305,4.3265,4.3305,4.3305,4.325,4.321,4.3225,4.321,4.3305,4.3305,4.3305,4.3305,4.2955,4.2415,4.1949,4.138,4.0901,4.0475,4.0087,3.9621,3.9312,3.9002,3.8939,3.8832,3.8272,4.5807,4.5807,4.5807,4.5807,4.5807,4.5807,4.5698,4.541,4.4836,4.4473,4.4112,4.3591,4.318,4.2746,4.2096,4.1115,4.0068,3.9582,3.9517,3.9646,3.9717,3.991,4.0242,4.0207,4.0242,4.0207,4.0121,4.0016,4.0026,4.0088,3.9896,3.9866,4.0096,4.0186,3.9757,3.982,3.9225,3.8633,3.8464,3.8248,3.7376,3.7886,3.7246,3.6399,3.5602,3.5087,3.4592,3.381,3.3556,3.3556,3.3696,3.3738,3.3887,3.4301,3.473,3.5111,3.5491,3.6051,3.6562,3.6864,3.7209,3.8345,3.8267,3.8675,3.9475,3.9885,4.0317,4.1197,4.2099,4.282,4.3235,4.3305,4.3305,4.3305,4.3305,4.3305,4.3305,4.3305,4.3305,4.3305,4.3305,4.3305,4.3305,4.3305,4.3305,4.3305,4.3305,4.3305,4.3305,4.3305,4.3305,4.3305,4.3305,4.3305,4.3349,4.3424,4.3334,4.3305,4.3499,4.3484,4.3349,4.3364,4.3255,4.289,4.2496,4.2155,4.1825,4.1338,4.1071,4.076,4.0289,3.9899,3.9826,3.9577,3.9029,4.5807,4.5807,4.5807,4.5807,4.5771,4.5698,4.5484,4.5136,4.4685,4.4281,4.3988,4.3512,4.3125,4.2626,4.1564,4.0382,3.9388,3.9388,3.9481,3.9589,3.961,3.9839,4.0031,4.0066,3.9996,4.0051,3.991,3.9717,3.9807,3.9959,3.9798,3.985,4.0658,4.0741,3.9948,4.0061,3.9431,3.8927,3.8231,3.8075,3.8075,3.8,3.7644,3.6858,3.6068,3.5602,3.5155,3.4259,3.3768,3.3725,3.3725,3.3725,3.3883,3.471,3.5245,3.534,3.6024,3.6894,3.7727,3.7469,3.7932,3.9407,3.9152,3.9651,4.0475,4.1,4.1394,4.2196,4.278,4.321,4.329,4.3305,4.3305,4.3305,4.3305,4.3305,4.3305,4.3305,4.3305,4.3305,4.3305,4.3305,4.3305,4.3305,4.3305,4.3305,4.3305,4.3305,4.3305,4.3305,4.3305,4.3305,4.3305,4.3305,4.3394,4.3604,4.3469,4.3319,4.3708,4.3992,4.3708,4.3454,4.3329,4.322,4.313,4.2795,4.2456,4.2252,4.2058,4.174,4.1183,4.0845,4.0817,4.0475,3.9913,4.5807,4.5807,4.5807,4.5807,4.5735,4.5447,4.5247,4.5052,4.4335,4.4065,4.3767,4.3407,4.2611,4.1594,4.036,3.9627,3.9418,3.9388,3.9424,3.9481,3.9481,3.9589,3.9768,3.9753,3.9768,3.9824,3.9717,3.9717,3.9691,3.9631,3.9559,3.9634,4.0091,4.0412,4.0247,4.0211,4.0077,3.975,3.904,3.8649,3.8598,3.8464,3.8037,3.7567,3.7063,3.6543,3.5816,3.4909,3.4343,3.4301,3.4468,3.4551,3.4875,3.6616,3.6891,3.6511,3.6352,3.6923,3.8595,3.823,3.8432,3.9766,3.9738,4.0403,4.1268,4.2211,4.2659,4.3036,4.3235,4.329,4.329,4.3305,4.3305,4.3305,4.3305,4.3305,4.3305,4.3305,4.3305,4.3305,4.3305,4.3305,4.3305,4.3305,4.3305,4.3305,4.3305,4.3305,4.3305,4.3305,4.3305,4.3305,4.3305,4.3305,4.3334,4.3559,4.3663,4.3424,4.3738,4.4287,4.3977,4.3633,4.3559,4.3459,4.3394,4.3305,4.301,4.2875,4.2955,4.2684,4.2085,4.1879,4.1811,4.138,4.0901,4.5807,4.5807,4.5807,4.5646,4.5447,4.53,4.4679,4.3973,4.3602,4.3084,4.2605,4.2353,4.1698,4.0793,4.0017,3.9674,3.9463,3.9418,3.9388,3.9388,3.9424,3.9532,3.9646,3.9574,3.9553,3.9661,3.9589,3.9517,3.9481,3.9445,3.9388,3.9478,3.9928,4.0301,4.0442,4.0471,4.0314,3.9883,3.9217,3.8693,3.8627,3.8516,3.8366,3.8089,3.7525,3.7025,3.6452,3.5762,3.5196,3.5156,3.5278,3.5332,3.5642,3.6811,3.777,3.7978,3.8138,3.8616,3.9081,3.8373,3.9179,4.0374,4.0745,4.0831,4.1895,4.2566,4.305,4.3115,4.3115,4.317,4.329,4.3305,4.3305,4.3305,4.3305,4.3305,4.3305,4.3305,4.3305,4.3305,4.3305,4.3305,4.3305,4.3305,4.3305,4.3305,4.3305,4.3305,4.3305,4.3305,4.3305,4.3305,4.3305,4.3305,4.3319,4.3439,4.3798,4.3693,4.3499,4.3902,4.3992,4.3828,4.3708,4.3529,4.3364,4.3305,4.3305,4.325,4.317,4.3076,4.2996,4.2739,4.2537,4.2618,4.2099,4.5353,4.5175,4.5494,4.539,4.4923,4.4738,4.3925,4.2834,4.2576,4.2077,4.152,4.1227,4.0875,4.0554,4.0271,3.9935,3.9709,3.9664,3.9529,3.9448,3.9424,3.9496,3.9517,3.9496,3.9496,3.9625,3.9496,3.9424,3.9388,3.9352,3.9301,3.9331,3.9884,4.0248,4.0494,4.0556,4.0418,3.9732,3.9132,3.8675,3.8448,3.8404,3.8389,3.8188,3.782,3.7386,3.7169,3.6517,3.6068,3.6094,3.6068,3.6177,3.6641,3.7917,3.8752,3.9116,3.9518,3.983,3.9738,3.9489,4.01,4.1113,4.1881,4.1645,4.2307,4.2729,4.2809,4.3021,4.3036,4.313,4.321,4.325,4.3305,4.3305,4.3305,4.3305,4.3305,4.3305,4.3305,4.3305,4.3305,4.3305,4.3305,4.3305,4.3305,4.3305,4.3305,4.3305,4.3305,4.3305,4.3305,4.3319,4.3604,4.3559,4.3409,4.3514,4.3813,4.3962,4.3783,4.3648,4.3783,4.3828,4.3723,4.3544,4.3334,4.3305,4.3305,4.3305,4.3305,4.321,4.317,4.321,4.321,4.3305,4.317,4.4119,4.3499,4.4728,4.4788,4.4185,4.3462,4.2765,4.197,4.1482,4.1285,4.1077,4.0621,4.0464,4.0687,4.0367,4.0152,4.0292,4.0322,4.0068,3.9709,3.9403,3.9574,3.961,3.9559,3.9484,3.946,3.9424,3.9388,3.9388,3.9265,3.9177,3.9193,3.961,4.0239,4.0509,4.0518,4.0286,3.975,3.9222,3.8792,3.8472,3.8335,3.8277,3.824,3.8165,3.8113,3.8037,3.7347,3.6986,3.7088,3.7162,3.7413,3.814,3.9377,4.0075,4.0157,4.0755,4.0972,4.0802,4.0546,4.1142,4.1841,4.2254,4.2374,4.2754,4.2915,4.2996,4.2996,4.2996,4.3021,4.3115,4.317,4.3305,4.3305,4.3305,4.3305,4.3305,4.3305,4.3305,4.3305,4.3305,4.3305,4.3305,4.3305,4.3305,4.3305,4.3305,4.3305,4.3305,4.3305,4.3305,4.3424,4.3902,4.3902,4.3589,4.3798,4.4276,4.4291,4.4097,4.3843,4.3693,4.3678,4.3618,4.3499,4.3305,4.3305,4.3305,4.3305,4.3305,4.3305,4.3305,4.3305,4.3305,4.3305,4.3305,4.3104,4.3029,4.3343,4.326,4.3013,4.2572,4.1857,4.1054,4.0644,4.0256,4.0033,3.9535,3.9587,3.9951,4.0234,4.0196,4.0472,4.0876,4.0741,4.0726,4.0621,4.0382,4.0217,3.9948,3.9807,3.9523,3.9418,3.9388,3.9388,3.9399,3.9461,3.9498,3.9424,3.9563,3.9906,4.049,4.0412,4.0197,3.9596,3.903,3.8893,3.8489,3.8329,3.8202,3.8366,3.8366,3.8315,3.8211,3.8159,3.8246,3.8522,3.8893,3.9392,4.067,4.1155,4.1131,4.1808,4.207,4.1784,4.1408,4.124,4.209,4.2418,4.2607,4.2835,4.285,4.2915,4.2955,4.2996,4.3021,4.3195,4.325,4.3305,4.3305,4.3305,4.3305,4.3305,4.3305,4.3305,4.3305,4.3305,4.3305,4.3305,4.3305,4.3305,4.3305,4.3305,4.3305,4.3305,4.3305,4.3305,4.3454,4.3902,4.3888,4.3574,4.4082,4.4796,4.453,4.4291,4.4007,4.3678,4.3469,4.3394,4.3319,4.3305,4.3305,4.3305,4.3305,4.3305,4.3305,4.3305,4.3305,4.3305,4.3305,4.3305,4.1639,4.1708,4.1849,4.1937,4.1864,4.1628,4.0941,4.0129,4.0025,3.9883,3.9498,3.9424,3.9706,4.0159,4.0569,4.0889,4.1167,4.1497,4.1474,4.1369,4.1242,4.1085,4.0831,4.0651,4.0502,4.0053,3.9993,4.0083,4.0142,3.9949,3.9847,3.966,3.9404,3.9683,3.9885,4.048,4.086,4.0704,4.0207,3.9435,3.9275,3.8754,3.8441,3.8352,3.8464,3.859,3.8612,3.8598,3.8708,3.8988,3.9402,3.9979,4.0618,4.1255,4.1952,4.2337,4.2644,4.3036,4.2578,4.2073,4.1617,4.2377,4.2581,4.2688,4.2769,4.2809,4.2915,4.2955,4.2981,4.3061,4.3235,4.325,4.3305,4.3305,4.3305,4.3305,4.3305,4.3305,4.3305,4.3305,4.3305,4.3305,4.3305,4.3305,4.3305,4.3305,4.3305,4.3305,4.3305,4.3305,4.3305,4.3514,4.3858,4.3693,4.3484,4.4302,4.484,4.4112,4.3932,4.3973,4.3718,4.3439,4.3305,4.3305,4.3305,4.3305,4.3305,4.3305,4.3305,4.3305,4.3305,4.3305,4.3305,4.3305,4.3305,3.9693,3.9098,4.0477,4.1003,4.0982,4.0596,4.0009,3.9461,3.9735,4.0047,4.0353,4.0512,4.1,4.1608,4.1662,4.1867,4.2043,4.2246,4.2156,4.1773,4.1773,4.1504,4.1422,4.1324,4.122,4.1362,4.1115,4.098,4.116,4.086,4.0499,4.0256,4.0226,4.029,4.0211,4.0938,4.115,4.0851,4.0568,4.0075,3.9481,3.8904,3.8611,3.8538,3.8686,3.8797,3.8833,3.8819,3.8929,3.9172,3.9647,4.0307,4.1136,4.1692,4.2322,4.2872,4.2961,4.3036,4.2941,4.2714,4.2648,4.2688,4.2809,4.2915,4.2941,4.2981,4.2996,4.3076,4.3021,4.3021,4.3101,4.3155,4.325,4.3305,4.3305,4.3305,4.3305,4.3305,4.3305,4.3305,4.3305,4.3305,4.3305,4.3305,4.3305,4.3305,4.3305,4.3305,4.3305,4.3305,4.3305,4.3514,4.3798,4.3708,4.3693,4.4556,4.4811,4.4047,4.3589,4.3618,4.3589,4.3394,4.3305,4.3305,4.3305,4.3305,4.3305,4.3305,4.3305,4.3305,4.3305,4.3305,4.3305,4.3305,4.3305,3.8894,3.9453,3.9926,4.0064,3.992,3.9775,3.9734,3.9802,4.0085,4.0373,4.065,4.0757,4.1077,4.1635,4.2145,4.2363,4.2447,4.291,4.2746,4.2671,4.2542,4.2357,4.2216,4.2021,4.1871,4.1489,4.1399,4.1527,4.1324,4.1343,4.1276,4.1096,4.1013,4.1046,4.105,4.1404,4.1489,4.1308,4.0915,4.0386,3.9738,3.9224,3.8841,3.8767,3.89,3.898,3.9017,3.898,3.9104,3.9339,3.9795,4.0547,4.1339,4.1897,4.2554,4.3046,4.321,4.321,4.3195,4.3076,4.2996,4.2955,4.2955,4.3076,4.3155,4.321,4.321,4.321,4.3155,4.3155,4.3235,4.325,4.3305,4.3305,4.3305,4.3305,4.3305,4.3305,4.3305,4.3305,4.3305,4.3305,4.3305,4.3305,4.3305,4.3305,4.3305,4.3305,4.3305,4.3305,4.3305,4.3514,4.3693,4.3663,4.3858,4.4347,4.4421,4.3723,4.3424,4.3409,4.3334,4.3305,4.3305,4.3305,4.3305,4.3305,4.3305,4.3305,4.3305,4.3305,4.3305,4.3305,4.3305,4.3305,4.3305,3.7992,3.8441,3.9402,3.9609,3.9387,3.9607,4.0099,4.0586,4.0686,4.0925,4.1366,4.1489,4.1715,4.216,4.2462,4.2701,4.2785,4.309,4.3275,4.3305,4.3275,4.3015,4.2776,4.2656,4.2536,4.2102,4.2043,4.2102,4.2177,4.1987,4.1986,4.2036,4.1808,4.1823,4.1852,4.1961,4.1888,4.1764,4.1483,4.1178,4.0571,4.0002,3.9417,3.9291,3.9283,3.9213,3.9228,3.9228,3.928,3.9568,4.0038,4.0696,4.1339,4.1998,4.2656,4.312,4.3305,4.3305,4.329,4.329,4.317,4.3115,4.3115,4.317,4.329,4.3305,4.3305,4.3305,4.3305,4.329,4.329,4.3305,4.3305,4.3305,4.3305,4.3305,4.3305,4.3305,4.3305,4.3305,4.3305,4.3305,4.3305,4.3305,4.3305,4.3305,4.3305,4.3305,4.3305,4.3305,4.3305,4.3454,4.3559,4.3514,4.3529,4.3693,4.3648,4.3349,4.3305,4.3305,4.3305,4.3305,4.3305,4.3305,4.3305,4.3305,4.3305,4.3305,4.3305,4.3305,4.3305,4.3305,4.3305,4.3305,4.3305,3.6995,3.629,3.8802,3.9615,3.9343,4.0061,4.0901,4.1617,4.1292,4.1708,4.2629,4.2566,4.2718,4.313,4.3245,4.3254,4.3225,4.326,4.329,4.3305,4.3305,4.32,4.3215,4.317,4.3021,4.314,4.3095,4.2895,4.3185,4.2882,4.2823,4.2827,4.2352,4.2456,4.2555,4.2491,4.2326,4.2201,4.2058,4.1742,4.1281,4.0687,4.0278,4.007,3.9921,3.971,3.9606,3.9568,3.9478,3.9627,3.9941,4.0636,4.1294,4.2006,4.2611,4.3135,4.329,4.3305,4.3305,4.3305,4.3305,4.325,4.325,4.3305,4.3305,4.3305,4.3305,4.3305,4.3305,4.3305,4.3305,4.3305,4.3305,4.3305,4.3305,4.3305,4.3305,4.3305,4.3305,4.3305,4.3305,4.3305,4.3305,4.3305,4.3305,4.3305,4.3305,4.3305,4.3305,4.3305,4.3305,4.3305,4.3379,4.3349,4.3379,4.3454,4.3424,4.3305,4.3305,4.3305,4.3305,4.3305,4.3305,4.3305,4.3305,4.3305,4.3305,4.3305,4.3305,4.3305,4.3305,4.3305,4.3305,4.3305,4.3305,3.7222,3.7866,3.8649,3.923,3.965,4.0651,4.1342,4.1666,4.192,4.2327,4.2673,4.2835,4.3036,4.329,4.3305,4.3305,4.3305,4.3305,4.3305,4.3305,4.3305,4.3305,4.3305,4.3305,4.3305,4.3305,4.3305,4.3305,4.3235,4.3195,4.3115,4.2931,4.2783,4.2942,4.3021,4.3016,4.2751,4.2536,4.2423,4.219,4.1891,4.1279,4.1025,4.089,4.0778,4.0502,4.0202,4.0068,3.9903,3.9597,3.9597,4.0038,4.0666,4.1324,4.2043,4.314,4.3305,4.3305,4.3305,4.3305,4.3305,4.3305,4.3305,4.3305,4.3305,4.3305,4.3305,4.3305,4.3305,4.3305,4.3305,4.3305,4.3305,4.3305,4.3305,4.3305,4.3305,4.3305,4.3305,4.3305,4.3305,4.3305,4.3305,4.3305,4.3305,4.3305,4.3305,4.3305,4.3305,4.3305,4.3305,4.3305,4.3305,4.3305,4.3305,4.3364,4.3334,4.3305,4.3305,4.3305,4.3305,4.3305,4.3305,4.3305,4.3305,4.3305,4.3305,4.3305,4.3305,4.3305,4.3305,4.3305,4.3305,4.3305,4.3305,3.7366,3.7712,3.8558,3.9271,3.9923,4.0526,4.1015,4.1471,4.2094,4.2514,4.2729,4.2915,4.3115,4.329,4.3305,4.3305,4.3305,4.3305,4.3305,4.3305,4.3305,4.3305,4.3305,4.3305,4.3305,4.3305,4.3305,4.3305,4.3265,4.321,4.3115,4.3115,4.313,4.3195,4.322,4.323,4.308,4.2895,4.2716,4.2491,4.2207,4.1916,4.1826,4.1752,4.1647,4.1175,4.0816,4.0636,4.0172,3.9732,3.9627,3.9738,4.0472,4.125,4.2132,4.314,4.3305,4.3305,4.3305,4.3305,4.3305,4.3305,4.3305,4.3305,4.3305,4.3305,4.3305,4.3305,4.3305,4.3305,4.3305,4.3305,4.3305,4.3305,4.3305,4.3305,4.3305,4.3305,4.3305,4.3305,4.3305,4.3305,4.3305,4.3305,4.3305,4.3305,4.3305,4.3305,4.3305,4.3305,4.3305,4.3305,4.3305,4.3305,4.3305,4.3305,4.3305,4.3305,4.3305,4.3305,4.3305,4.3305,4.3305,4.3305,4.3305,4.3305,4.3305,4.3305,4.3305,4.3305,4.3305,4.3305,4.3305,4.3305,4.3305,3.742,3.6503,3.838,3.944,3.9974,3.9988,4.0318,4.0944,4.1688,4.2336,4.2511,4.278,4.2941,4.301,4.317,4.3305,4.3305,4.3305,4.3305,4.3305,4.3305,4.3305,4.3305,4.3305,4.3305,4.3305,4.3305,4.3305,4.3305,4.3265,4.325,4.3305,4.3305,4.329,4.3305,4.3305,4.3215,4.3155,4.3125,4.305,4.3015,4.2746,4.247,4.2381,4.1998,4.1549,4.1324,4.0935,4.0442,4.0202,4.0023,3.9918,4.0861,4.1647,4.2551,4.3075,4.3275,4.3305,4.3305,4.3305,4.3305,4.3305,4.3305,4.3305,4.3305,4.3305,4.3305,4.3305,4.3305,4.3305,4.3305,4.3305,4.3305,4.3305,4.3305,4.3305,4.3305,4.3305,4.3305,4.3305,4.3305,4.3305,4.3305,4.3305,4.3305,4.3305,4.3305,4.3305,4.3305,4.3305,4.3305,4.3305,4.3305,4.3305,4.3305,4.3305,4.3305,4.3305,4.3305,4.3305,4.3305,4.3305,4.3305,4.3305,4.3305,4.3305,4.3305,4.3305,4.3305,4.3305,4.3305,4.3305,4.3305,4.3305,4.3305,3.7361,3.7586,3.8564,3.8957,3.9033,3.9692,3.9823,3.9694,4.0216,4.0901,4.1603,4.2017,4.2263,4.24,4.3036,4.329,4.329,4.3305,4.3305,4.3305,4.3305,4.3305,4.3305,4.3305,4.3305,4.3305,4.3305,4.3305,4.3305,4.3305,4.3305,4.3305,4.3305,4.3305,4.3305,4.3305,4.3305,4.3305,4.3305,4.3305,4.323,4.3215,4.309,4.3045,4.2737,4.2462,4.2117,4.1557,4.092,4.0457,4.0292,4.0786,4.1886,4.2231,4.2671,4.314,4.3305,4.3305,4.3305,4.3305,4.3305,4.3305,4.3305,4.3305,4.3305,4.3305,4.3305,4.3305,4.3305,4.3305,4.3305,4.3305,4.3305,4.3305,4.3305,4.3305,4.3305,4.3305,4.3305,4.3305,4.3305,4.3305,4.3305,4.3305,4.3305,4.3305,4.3305,4.3305,4.3305,4.3305,4.3305,4.3305,4.3305,4.3305,4.3305,4.3305,4.3305,4.3305,4.3305,4.3305,4.3305,4.3305,4.3305,4.3305,4.3305,4.3305,4.3305,4.3305,4.3305,4.3305,4.3305,4.3305,4.3305,4.3305,4.3305,3.7599,3.7933,3.8285,3.8245,3.805,3.8504,3.8612,3.8599,3.8541,3.9033,4.0087,4.1085,4.1672,4.1838,4.2699,4.3115,4.3115,4.325,4.3305,4.3305,4.3265,4.3305,4.3305,4.3305,4.3305,4.3305,4.3305,4.3305,4.3305,4.3305,4.3305,4.3305,4.3305,4.3305,4.3305,4.3305,4.3305,4.3305,4.3305,4.3305,4.3305,4.3305,4.3305,4.3305,4.3215,4.306,4.2791,4.2207,4.1752,4.1235,4.104,4.1309,4.2051,4.2351,4.2701,4.312,4.3305,4.3305,4.3305,4.3305,4.3305,4.3305,4.3305,4.3305,4.3305,4.3305,4.3305,4.3305,4.3305,4.3305,4.3305,4.3305,4.3305,4.3305,4.3305,4.3305,4.3305,4.3305,4.3305,4.3305,4.3305,4.3305,4.3305,4.3305,4.3305,4.3305,4.3305,4.3305,4.3305,4.3305,4.3305,4.3305,4.3305,4.3305,4.3305,4.3305,4.3305,4.3305,4.3305,4.3305,4.3305,4.3305,4.3305,4.3305,4.3305,4.3305,4.3305,4.3305,4.3305,4.3305,4.3305,4.3305,4.3305,4.3305,4.3305,3.7887,3.79,3.7854,3.7564,3.7155,3.7155,3.7328,3.7487,3.7036,3.7222,3.8173,3.9956,4.076,4.1365,4.2319,4.2563,4.2739,4.2795,4.297,4.305,4.305,4.313,4.3265,4.3305,4.3305,4.3305,4.3305,4.3305,4.3305,4.3305,4.3305,4.3305,4.3305,4.3305,4.3305,4.3305,4.3305,4.3305,4.3305,4.3305,4.3305,4.3305,4.3305,4.3305,4.3305,4.3305,4.3135,4.2791,4.244,4.2171,4.1826,4.2096,4.2342,4.2656,4.2851,4.3185,4.3305,4.3305,4.3305,4.3305,4.3305,4.3305,4.3305,4.3305,4.3305,4.3305,4.3305,4.3305,4.3305,4.3305,4.3305,4.3305,4.3305,4.3305,4.3305,4.3305,4.3305,4.3305,4.3305,4.3305,4.3305,4.3305,4.3305,4.3305,4.3305,4.3305,4.3305,4.3305,4.3305,4.3305,4.3305,4.3305,4.3305,4.3305,4.3305,4.3305,4.3305,4.3305,4.3305,4.3305,4.3305,4.3305,4.3305,4.3305,4.3305,4.3305,4.3305,4.3305,4.3305,4.3305,4.3305,4.3305,4.3305,4.3305,4.3305,3.79,3.7854,3.767,3.74,3.7108,3.7108,3.6968,3.6722,3.6709,3.6769,3.7083,3.7854,3.8734,3.9458,4.1394,4.1893,4.1449,4.1893,4.2196,4.2237,4.2415,4.2754,4.309,4.321,4.3305,4.3305,4.3305,4.3305,4.3305,4.3305,4.3305,4.3305,4.3305,4.3305,4.3305,4.3305,4.3305,4.3305,4.3305,4.3305,4.3305,4.3305,4.3305,4.3305,4.3305,4.3305,4.3125,4.2686,4.2485,4.2351,4.2351,4.2566,4.2806,4.303,4.314,4.3185,4.3305,4.3305,4.3305,4.3305,4.3305,4.3305,4.3305,4.3305,4.3305,4.3305,4.3305,4.3305,4.3305,4.3305,4.3305,4.3305,4.3305,4.3305,4.3305,4.3305,4.3305,4.3305,4.3305,4.3305,4.3305,4.3305,4.3305,4.3305,4.3305,4.3305,4.3305,4.3305,4.3305,4.3305,4.3305,4.3305,4.3305,4.3305,4.3305,4.3305,4.3305,4.3305,4.3305,4.3305,4.3305,4.3305,4.3305,4.3305,4.3305,4.3305,4.3305,4.3305,4.3305,4.3305,4.3305,4.3305,4.3305,4.3305,4.3305]}]]